GFSCGP_prec_sndepth_000.txt.gz
Snowfall_Accumulation
0.0 0.0 0.0 0.0 0.0 0.0 0.0 0.0 0.0 0.0 0.0 0.0 0.0 0.0 0.0 0.0 0.0 0.0 0.0 0.0 0.0 0.0 0.0 0.0 0.0 0.0 0.0 0.0 0.0 0.0 0.0 0.0 0.0 0.0 0.0 0.0 0.0 0.0 0.0 0.0 0.0 0.0 0.0 0.0
0.0 0.0 0.0 0.0 0.0 0.0 0.0 0.0 0.0 0.0 0.0 0.0 0.0 0.0 0.0 0.0 0.0 0.0 0.0 0.0 0.0 0.0 0.0 0.0 0.0 0.0 0.0 0.0 0.0 0.0 0.0 0.0 0.0 0.0 0.0 0.0 0.0 0.0 0.0 0.0 0.0 0.0 0.0 0.0
0.0 0.0 0.0 0.0 0.0 0.0 0.0 0.0 0.0 0.0 0.0 0.0 0.0 0.0 0.0 0.0 0.0 0.0 0.0 0.0 0.0 0.0 0.0 0.0 0.0 0.0 0.0 0.0 0.0 0.0 0.0 0.0 0.0 0.0 0.0 0.0 0.0 0.0 0.0 0.0 0.0 0.0 0.0 0.0
0.0 0.0 0.0 0.0 0.0 0.0 0.0 0.0 0.0 0.0 0.0 0.0 0.0 0.0 0.0 0.0 0.0 0.0 0.0 0.0 0.0 0.0 0.0 0.0 0.0 0.0 0.0 0.0 0.0 0.0 0.0 0.0 0.0 0.0 0.0 0.0 0.0 0.0 0.0 0.0 0.0 0.0 0.0 0.0
0.0 0.0 0.0 0.0 0.0 0.0 0.0 0.0 0.0 0.0 0.0 0.0 0.0 0.0 0.0 0.0 0.0 0.0 0.0 0.0 0.0 0.0 0.0 0.0 0.0 0.0 0.0 0.0 0.0 0.0 0.0 0.0 0.0 0.0 0.0 0.0 0.0 0.0 0.0 0.0 0.0 0.0 0.0 0.0
0.0 0.0 0.0 0.0 0.0 0.0 0.0 0.0 0.0 0.0 0.0 0.5 0.0 0.0 0.0 0.0 0.0 0.0 0.0 0.0 0.0 0.0 0.0 0.0 0.0 0.0 0.0 0.0 0.0 0.0 0.0 0.0 0.0 0.0 0.0 0.0 0.0 0.0 0.0 0.0 0.0 0.0 0.0 0.0
0.0 0.0 0.0 0.0 0.0 0.0 0.0 0.0 0.6 1.2 3.3 1.9 0.0 0.3 0.0 0.0 0.0 0.0 0.0 0.0 0.0 0.0 0.0 0.0 0.0 0.0 0.0 0.0 0.0 0.0 0.0 0.0 0.0 0.0 0.0 0.0 0.0 0.0 0.0 0.0 0.0 0.0 0.0 0.0
0.0 0.0 0.0 0.0 0.0 0.0 0.0 0.0 1.3 2.9 2.5 1.3 0.7 0.6 0.1 0.0 0.0 0.0 0.0 0.0 0.0 0.0 0.0 0.0 0.0 0.0 0.0 0.0 0.0 0.0 0.0 0.0 0.0 0.0 0.0 0.0 0.0 0.0 0.0 0.0 0.0 0.0 0.0 0.0
0.0 0.0 0.0 0.0 0.0 0.0 0.0 0.0 0.0 0.9 5.0 3.7 0.0 0.0 0.0 0.0 0.0 0.0 0.0 0.0 0.0 0.0 0.0 0.0 0.0 0.0 0.0 0.0 0.0 0.0 0.0 0.0 0.0 0.0 0.0 0.0 0.0 0.0 0.0 0.0 0.0 0.0 0.0 0.0
0.0 0.1 0.0 0.0 0.0 0.0 0.0 0.0 0.5 0.5 5.3 4.2 0.0 0.0 0.0 0.0 0.0 0.0 0.0 0.0 0.0 0.0 0.0 0.0 0.0 0.0 0.0 0.0 0.0 0.0 0.0 0.0 0.0 0.0 0.0 0.0 0.0 0.0 0.0 0.0 0.0 0.0 0.0 0.0
0.0 0.0 0.0 0.0 0.0 0.0 0.0 0.0 0.0 0.0 0.6 3.0 2.5 0.2 0.0 0.0 0.0 0.0 0.0 0.0 0.0 0.0 0.0 0.0 0.0 0.0 0.0 0.0 0.0 0.0 0.0 0.0 0.0 0.0 0.0 0.0 0.0 0.0 0.0 0.0 0.0 0.0 0.0 0.0
0.0 0.0 0.9 0.0 0.0 0.0 0.0 0.0 0.0 1.2 0.7 0.8 1.9 0.8 0.0 0.0 0.0 0.0 0.0 0.0 0.0 0.0 0.0 0.0 0.0 0.0 0.0 0.0 0.0 0.0 0.0 0.0 0.0 0.0 0.0 0.0 0.0 0.0 0.0 0.0 0.0 0.0 0.0 0.0
0.0 0.4 2.4 0.5 0.0 0.0 0.0 0.0 0.0 0.0 0.6 1.2 5.5 1.2 0.0 0.0 0.0 0.0 0.0 0.0 0.0 0.0 0.0 0.0 0.0 0.0 0.0 0.0 0.0 0.0 0.0 0.0 0.0 0.0 0.0 0.0 0.0 0.0 0.0 0.0 0.0 0.0 0.0 0.0
nan 0.2 0.0 0.1 0.0 0.0 0.0 0.0 0.0 0.0 2.2 1.1 0.8 0.0 0.0 0.0 0.0 0.0 0.0 0.0 0.0 0.0 0.0 0.0 0.0 0.0 0.0 0.0 0.0 0.0 0.0 0.0 0.0 0.0 0.0 0.0 0.0 0.0 0.0 0.0 0.0 0.0 0.0 0.0
0.0 1.7 0.0 0.0 0.0 0.0 0.0 0.0 0.0 0.0 0.0 0.1 0.0 0.0 0.0 0.0 0.0 0.0 0.0 0.0 0.0 0.0 0.0 0.0 0.0 0.0 0.0 0.0 0.0 0.0 0.0 0.0 0.0 0.0 0.0 0.0 0.0 0.0 0.2 0.8 1.1 0.9 0.9 0.0
0.0 3.9 1.1 2.9 0.0 0.0 0.0 0.0 0.0 0.0 0.0 0.0 0.0 0.0 0.0 0.0 0.0 0.0 0.0 0.0 0.0 0.0 0.0 0.0 0.0 0.0 0.0 0.0 0.0 0.0 0.0 0.0 0.0 0.0 0.0 0.0 1.6 1.9 2.0 1.9 1.4 1.0 0.9 0.9
0.2 1.2 6.9 9.9 0.0 0.0 4.7 0.6 0.0 0.0 0.0 0.0 0.0 0.0 0.0 0.0 0.0 0.0 0.0 0.0 0.0 0.0 0.0 0.0 0.0 0.0 0.0 0.0 0.0 0.0 0.0 0.7 1.9 2.2 3.1 2.8 2.3 2.1 1.8 1.5 1.3 1.1 1.0 1.1
0.0 3.0 7.1 14.7 8.0 15.9 1.4 0.0 0.0 0.0 0.0 0.0 0.0 0.0 0.0 0.0 0.0 0.0 0.0 0.0 0.0 0.0 0.0 0.0 0.0 0.0 0.0 0.0 0.0 0.0 0.8 1.4 1.6 2.6 3.5 2.6 1.7 3.0 1.7 1.5 1.5 1.1 1.1 1.2
0.2 0.0 9.8 16.3 16.8 0.4 0.0 0.0 0.0 0.0 0.0 0.0 0.0 0.0 0.0 0.0 0.0 0.0 0.0 0.0 0.0 0.0 0.0 0.0 0.0 0.0 0.0 0.0 0.0 0.8 0.9 0.9 0.9 1.1 1.6 1.7 2.4 3.3 1.8 4.0 2.0 1.5 2.5 1.9
0.0 0.0 0.3 11.3 17.2 13.6 0.1 0.0 0.0 0.0 0.2 0.0 0.0 0.0 0.0 0.0 0.0 0.0 0.0 0.0 0.0 0.0 0.0 0.0 0.0 0.0 0.0 0.0 0.0 0.8 0.9 1.2 1.1 1.0 1.0 1.2 2.3 4.7 3.8 2.3 3.4 3.8 3.7 3.4
5.3 9.9 11.6 12.6 15.2 3.7 0.0 0.0 0.0 4.1 0.0 0.0 0.0 0.0 0.0 0.0 0.0 0.0 0.0 0.0 0.0 0.0 0.0 0.0 0.0 0.0 0.0 0.4 0.9 0.8 0.9 1.2 1.4 1.7 1.7 2.0 2.3 4.9 3.2 3.7 3.2 4.4 4.9 2.8
1.2 7.8 19.5 12.3 12.5 14.2 0.0 0.0 0.0 0.0 0.0 0.0 0.0 0.0 0.0 0.0 0.0 0.0 0.0 0.0 0.0 0.0 0.0 0.0 0.0 0.0 0.0 1.1 1.4 1.2 0.9 1.3 1.8 2.3 2.6 3.3 5.3 5.1 5.2 8.8 5.5 7.4 6.5 6.4
4.7 1.4 5.7 2.4 3.7 0.2 0.0 0.1 0.0 0.0 0.4 0.2 0.0 0.0 0.0 0.0 0.0 0.0 0.0 0.0 0.0 0.0 0.0 0.0 2.0 1.7 0.0 2.2 2.3 2.7 2.0 2.2 2.9 5.5 7.6 7.6 6.8 6.8 6.8 9.7 6.3 8.7 7.5 8.7
0.6 0.0 1.7 2.4 0.1 0.1 0.0 0.0 0.0 0.0 0.0 0.0 0.0 0.0 0.0 0.0 0.0 0.0 0.0 0.1 0.0 1.4 1.8 2.2 2.7 3.0 3.1 2.9 3.2 3.6 3.0 3.2 10.2 10.2 5.4 4.4 5.6 4.2 5.6 7.7 8.8 12.2 9.2 7.1
0.5 0.4 1.0 1.6 0.0 0.0 0.0 0.0 0.0 0.0 0.0 0.0 0.0 0.0 0.0 0.0 0.0 0.0 1.1 1.3 0.9 1.5 1.7 2.3 2.8 2.8 2.7 2.5 2.9 4.3 4.1 4.7 7.0 7.3 4.0 5.5 7.7 8.5 4.8 4.0 7.1 5.7 3.7 8.5
0.0 0.0 0.2 2.4 0.0 0.0 0.0 0.0 0.0 0.0 0.0 0.3 0.3 0.5 0.5 0.6 0.6 0.7 1.1 0.8 1.0 1.6 2.0 2.4 2.6 2.3 2.8 3.6 4.1 5.4 6.8 6.5 6.5 4.0 6.0 5.8 5.8 5.0 4.4 4.3 3.9 nan nan nan

GFSCGP_prec_sndepth_003.txt.gz
Snowfall_Accumulation
0.0 0.0 0.0 0.0 0.0 0.0 0.0 0.0 0.0 0.0 0.0 0.0 0.0 0.0 0.0 0.0 0.0 0.0 0.0 0.0 0.0 0.0 0.0 0.0 0.0 0.0 0.0 0.0 0.0 0.0 0.0 0.0 0.0 0.0 0.0 0.0 0.0 0.0 0.0 0.0 0.0 0.0 0.0 0.0
0.0 0.0 0.0 0.0 0.0 0.0 0.0 0.0 0.0 0.0 0.0 0.0 0.0 0.0 0.0 0.0 0.0 0.0 0.0 0.0 0.0 0.0 0.0 0.0 0.0 0.0 0.0 0.0 0.0 0.0 0.0 0.0 0.0 0.0 0.0 0.0 0.0 0.0 0.0 0.0 0.0 0.0 0.0 0.0
0.0 0.0 0.0 0.0 0.0 0.0 0.0 0.0 0.0 0.0 0.0 0.0 0.0 0.0 0.0 0.0 0.0 0.0 0.0 0.0 0.0 0.0 0.0 0.0 0.0 0.0 0.0 0.0 0.0 0.0 0.0 0.0 0.0 0.0 0.0 0.0 0.0 0.0 0.0 0.0 0.0 0.0 0.0 0.0
0.0 0.0 0.0 0.0 0.0 0.0 0.0 0.0 0.0 0.0 0.0 0.0 0.0 0.0 0.0 0.0 0.0 0.0 0.0 0.0 0.0 0.0 0.0 0.0 0.0 0.0 0.0 0.0 0.0 0.0 0.0 0.0 0.0 0.0 0.0 0.0 0.0 0.0 0.0 0.0 0.0 0.0 0.0 0.0
0.0 0.0 0.0 0.0 0.0 0.0 0.0 0.0 0.0 0.0 0.0 0.0 0.0 0.0 0.0 0.0 0.0 0.0 0.0 0.0 0.0 0.0 0.0 0.0 0.0 0.0 0.0 0.0 0.0 0.0 0.0 0.0 0.0 0.0 0.0 0.0 0.0 0.0 0.0 0.0 0.0 0.0 0.0 0.0
0.0 0.0 0.0 0.0 0.0 0.0 0.0 0.0 0.0 0.0 0.0 0.5 0.0 0.0 0.0 0.0 0.0 0.0 0.0 0.0 0.0 0.0 0.0 0.0 0.0 0.0 0.0 0.0 0.0 0.0 0.0 0.0 0.0 0.0 0.0 0.0 0.0 0.0 0.0 0.0 0.0 0.0 0.0 0.0
0.0 0.0 0.0 0.0 0.0 0.0 0.0 0.0 0.6 1.2 3.3 1.8 0.0 0.3 0.0 0.0 0.0 0.0 0.0 0.0 0.0 0.0 0.0 0.0 0.0 0.0 0.0 0.0 0.0 0.0 0.0 0.0 0.0 0.0 0.0 0.0 0.0 0.0 0.0 0.0 0.0 0.0 0.0 0.0
0.0 0.0 0.0 0.0 0.0 0.0 0.0 0.0 1.3 2.9 2.5 1.3 0.7 0.6 0.1 0.0 0.0 0.0 0.0 0.0 0.0 0.0 0.0 0.0 0.0 0.0 0.0 0.0 0.0 0.0 0.0 0.0 0.0 0.0 0.0 0.0 0.0 0.0 0.0 0.0 0.0 0.0 0.0 0.0
0.0 0.0 0.0 0.0 0.0 0.0 0.0 0.0 0.0 0.9 5.0 3.7 0.0 0.0 0.0 0.0 0.0 0.0 0.0 0.0 0.0 0.0 0.0 0.0 0.0 0.0 0.0 0.0 0.0 0.0 0.0 0.0 0.0 0.0 0.0 0.0 0.0 0.0 0.0 0.0 0.0 0.0 0.0 0.0
0.0 0.1 0.0 0.0 0.0 0.0 0.0 0.0 0.5 0.5 5.3 4.2 0.0 0.0 0.0 0.0 0.0 0.0 0.0 0.0 0.0 0.0 0.0 0.0 0.0 0.0 0.0 0.0 0.0 0.0 0.0 0.0 0.0 0.0 0.0 0.0 0.0 0.0 0.0 0.0 0.0 0.0 0.0 0.0
0.0 0.0 0.0 0.0 0.0 0.0 0.0 0.0 0.0 0.0 0.6 3.0 2.4 0.2 0.0 0.0 0.0 0.0 0.0 0.0 0.0 0.0 0.0 0.0 0.0 0.0 0.0 0.0 0.0 0.0 0.0 0.0 0.0 0.0 0.0 0.0 0.0 0.0 0.0 0.0 0.0 0.0 0.0 0.0
0.0 0.0 1.0 0.0 0.0 0.0 0.0 0.0 0.0 1.1 0.7 0.8 1.6 0.8 0.0 0.0 0.0 0.0 0.0 0.0 0.0 0.0 0.0 0.0 0.0 0.0 0.0 0.0 0.0 0.0 0.0 0.0 0.0 0.0 0.0 0.0 0.0 0.0 0.0 0.0 0.0 0.0 0.0 0.0
0.0 0.6 2.8 0.6 0.0 0.0 0.0 0.0 0.0 0.0 0.6 1.2 5.6 1.2 0.0 0.0 0.0 0.0 0.0 0.0 0.0 0.0 0.0 0.0 0.0 0.0 0.0 0.0 0.0 0.0 0.0 0.0 0.0 0.0 0.0 0.0 0.0 0.0 0.0 0.0 0.0 0.0 0.0 0.0
nan 0.3 0.6 0.4 0.0 0.0 0.0 0.0 0.0 0.0 2.1 1.2 0.8 0.0 0.0 0.0 0.0 0.0 0.0 0.0 0.0 0.0 0.0 0.0 0.0 0.0 0.0 0.0 0.0 0.0 0.0 0.0 0.0 0.0 0.0 0.0 0.0 0.0 0.0 0.0 0.0 0.0 0.0 0.0
0.0 2.7 0.3 0.1 0.0 0.0 0.0 0.0 0.0 0.0 0.0 0.1 0.0 0.0 0.0 0.0 0.0 0.0 0.0 0.0 0.0 0.0 0.0 0.0 0.0 0.0 0.0 0.0 0.0 0.0 0.0 0.0 0.0 0.0 0.0 0.0 0.0 0.0 0.2 0.8 1.0 0.9 0.8 0.0
0.0 3.6 1.0 2.9 0.0 0.0 0.0 0.0 0.0 0.0 0.0 0.0 0.0 0.0 0.0 0.0 0.0 0.0 0.0 0.0 0.0 0.0 0.0 0.0 0.0 0.0 0.0 0.0 0.0 0.0 0.0 0.0 0.0 0.0 0.0 0.0 1.5 1.8 2.0 1.8 1.4 1.0 0.9 0.9
0.1 1.3 6.9 10.6 0.0 0.0 5.0 0.8 0.0 0.0 0.0 0.0 0.0 0.0 0.0 0.0 0.0 0.0 0.0 0.0 0.0 0.0 0.0 0.0 0.0 0.0 0.0 0.0 0.0 0.0 0.0 0.6 1.8 2.1 3.1 2.7 2.3 2.1 1.7 1.4 1.3 1.0 1.0 1.1
0.2 3.3 6.6 15.7 8.3 18.4 1.7 0.0 0.0 0.0 0.0 0.0 0.0 0.0 0.0 0.0 0.0 0.0 0.0 0.0 0.0 0.0 0.0 0.0 0.0 0.0 0.0 0.0 0.0 0.0 0.7 1.3 1.5 2.5 3.4 2.5 1.7 2.9 1.6 1.4 1.5 1.1 1.1 1.2
0.1 0.1 10.2 17.5 17.6 0.6 0.0 0.0 0.0 0.0 0.0 0.0 0.0 0.0 0.0 0.0 0.0 0.0 0.0 0.0 0.0 0.0 0.0 0.0 0.0 0.0 0.0 0.0 0.0 0.8 0.9 0.8 0.9 1.0 1.5 1.6 2.3 3.3 1.8 3.9 2.0 1.5 2.5 1.9
0.0 0.0 0.3 11.4 18.4 14.6 0.1 0.0 0.0 0.0 0.2 0.1 0.2 0.2 0.1 0.0 0.0 0.0 0.0 0.0 0.0 0.0 0.0 0.0 0.0 0.0 0.0 0.0 0.0 0.8 0.8 1.2 1.1 0.9 0.9 1.1 2.2 4.6 3.8 2.3 3.3 3.8 3.7 3.4
6.0 10.4 12.8 13.7 16.8 4.4 0.2 0.0 0.0 5.2 2.5 0.7 0.5 0.3 0.1 0.2 0.1 0.0 0.0 0.0 0.0 0.0 0.0 0.0 0.0 0.0 0.0 0.4 0.9 0.8 0.8 1.1 1.4 1.6 1.7 2.0 2.2 4.8 3.2 3.7 3.1 4.4 4.9 2.7
1.4 8.4 20.0 13.2 13.5 15.7 0.2 0.1 1.0 1.4 0.3 0.8 0.4 0.1 0.2 0.1 0.0 0.0 0.0 0.0 0.0 0.0 0.0 0.0 0.0 0.0 0.0 1.0 1.3 1.1 0.9 1.3 1.8 2.3 2.6 3.3 5.3 5.0 5.1 8.8 5.5 7.4 6.5 6.3
5.2 1.8 8.2 3.3 4.5 0.2 0.1 0.5 0.1 0.2 1.4 0.8 0.3 0.2 0.1 0.1 0.0 0.0 0.0 0.0 0.0 0.0 0.0 0.0 2.0 1.7 0.0 2.2 2.3 2.7 1.9 2.2 2.9 5.4 7.5 7.6 6.8 6.8 6.8 9.7 6.2 8.7 7.4 8.7
0.6 0.0 1.7 2.4 0.1 0.1 0.1 0.0 0.0 0.1 0.2 0.1 0.2 0.2 0.1 0.1 0.1 0.0 0.0 0.1 0.0 1.2 1.6 2.0 2.6 3.0 3.0 2.9 3.2 3.6 3.0 3.2 10.1 10.1 5.4 4.4 5.6 4.2 5.6 7.7 8.8 12.1 9.1 7.1
0.5 0.4 1.0 1.5 0.0 0.0 0.0 0.0 0.0 0.0 0.0 0.0 0.0 0.0 0.1 0.0 0.0 0.0 1.0 1.2 0.8 1.5 1.6 2.3 2.8 2.8 2.6 2.5 2.9 4.3 4.1 4.7 6.9 7.2 4.0 5.4 7.7 8.5 4.7 4.0 7.0 5.7 3.7 8.5
0.0 0.0 0.2 2.3 0.0 0.0 0.0 0.0 0.0 0.0 0.0 0.3 0.3 0.4 0.5 0.5 0.5 0.6 1.0 0.8 1.0 1.4 1.8 2.3 2.6 2.4 2.8 3.6 4.0 5.4 6.8 6.4 6.5 4.0 6.0 5.8 5.8 5.0 4.4 4.3 3.9 nan nan nan

GFSCGP_prec_sndepth_006.txt.gz
Snowfall_Accumulation
0.0 0.0 0.0 0.0 0.0 0.0 0.0 0.0 0.0 0.0 0.0 0.0 0.0 0.0 0.0 0.0 0.0 0.0 0.0 0.0 0.0 0.0 0.0 0.0 0.0 0.0 0.0 0.0 0.0 0.0 0.0 0.0 0.0 0.0 0.0 0.0 0.0 0.0 0.0 0.0 0.0 0.0 0.0 0.0
0.0 0.0 0.0 0.0 0.0 0.0 0.0 0.0 0.0 0.0 0.0 0.0 0.0 0.0 0.0 0.0 0.0 0.0 0.0 0.0 0.0 0.0 0.0 0.0 0.0 0.0 0.0 0.0 0.0 0.0 0.0 0.0 0.0 0.0 0.0 0.0 0.0 0.0 0.0 0.0 0.0 0.0 0.0 0.0
0.0 0.0 0.0 0.0 0.0 0.0 0.0 0.0 0.0 0.0 0.0 0.0 0.0 0.0 0.0 0.0 0.0 0.0 0.0 0.0 0.0 0.0 0.0 0.0 0.0 0.0 0.0 0.0 0.0 0.0 0.0 0.0 0.0 0.0 0.0 0.0 0.0 0.0 0.0 0.0 0.0 0.0 0.0 0.0
0.0 0.0 0.0 0.0 0.0 0.0 0.0 0.0 0.0 0.0 0.0 0.0 0.0 0.0 0.0 0.0 0.0 0.0 0.0 0.0 0.0 0.0 0.0 0.0 0.0 0.0 0.0 0.0 0.0 0.0 0.0 0.0 0.0 0.0 0.0 0.0 0.0 0.0 0.0 0.0 0.0 0.0 0.0 0.0
0.0 0.0 0.0 0.0 0.0 0.0 0.0 0.0 0.0 0.0 0.0 0.0 0.0 0.0 0.0 0.0 0.0 0.0 0.0 0.0 0.0 0.0 0.0 0.0 0.0 0.0 0.0 0.0 0.0 0.0 0.0 0.0 0.0 0.0 0.0 0.0 0.0 0.0 0.0 0.0 0.0 0.0 0.0 0.0
0.0 0.0 0.0 0.0 0.0 0.0 0.0 0.0 0.0 0.0 0.0 0.5 0.0 0.0 0.0 0.0 0.0 0.0 0.0 0.0 0.0 0.0 0.0 0.0 0.0 0.0 0.0 0.0 0.0 0.0 0.0 0.0 0.0 0.0 0.0 0.0 0.0 0.0 0.0 0.0 0.0 0.0 0.0 0.0
0.0 0.0 0.0 0.0 0.0 0.0 0.0 0.0 0.6 1.2 3.2 1.8 0.0 0.2 0.0 0.0 0.0 0.0 0.0 0.0 0.0 0.0 0.0 0.0 0.0 0.0 0.0 0.0 0.0 0.0 0.0 0.0 0.0 0.0 0.0 0.0 0.0 0.0 0.0 0.0 0.0 0.0 0.0 0.0
0.0 0.0 0.0 0.0 0.0 0.0 0.0 0.0 1.2 2.9 2.5 1.2 0.7 0.5 0.1 0.0 0.0 0.0 0.0 0.0 0.0 0.0 0.0 0.0 0.0 0.0 0.0 0.0 0.0 0.0 0.0 0.0 0.0 0.0 0.0 0.0 0.0 0.0 0.0 0.0 0.0 0.0 0.0 0.0
0.0 0.0 0.0 0.0 0.0 0.0 0.0 0.0 0.0 0.8 5.0 3.7 0.0 0.0 0.0 0.0 0.0 0.0 0.0 0.0 0.0 0.0 0.0 0.0 0.0 0.0 0.0 0.0 0.0 0.0 0.0 0.0 0.0 0.0 0.0 0.0 0.0 0.0 0.0 0.0 0.0 0.0 0.0 0.0
0.0 0.1 0.0 0.0 0.0 0.0 0.0 0.0 0.5 0.5 5.3 4.2 0.0 0.0 0.0 0.0 0.0 0.0 0.0 0.0 0.0 0.0 0.0 0.0 0.0 0.0 0.0 0.0 0.0 0.0 0.0 0.0 0.0 0.0 0.0 0.0 0.0 0.0 0.0 0.0 0.0 0.0 0.0 0.0
0.0 0.0 0.0 0.0 0.0 0.0 0.0 0.0 0.0 0.0 0.6 3.0 2.4 0.1 0.0 0.0 0.0 0.0 0.0 0.0 0.0 0.0 0.0 0.0 0.0 0.0 0.0 0.0 0.0 0.0 0.0 0.0 0.0 0.0 0.0 0.0 0.0 0.0 0.0 0.0 0.0 0.0 0.0 0.0
0.0 0.0 1.5 0.0 0.0 0.0 0.0 0.0 0.0 1.0 0.8 0.8 1.7 1.0 0.0 0.0 0.0 0.0 0.0 0.0 0.0 0.0 0.0 0.0 0.0 0.0 0.0 0.0 0.0 0.0 0.0 0.0 0.0 0.0 0.0 0.0 0.0 0.0 0.0 0.0 0.0 0.0 0.0 0.0
0.0 1.0 4.5 1.7 0.0 0.0 0.0 0.0 0.0 0.0 0.5 1.3 5.6 1.2 0.0 0.0 0.0 0.0 0.0 0.0 0.0 0.0 0.0 0.0 0.0 0.0 0.0 0.0 0.0 0.0 0.0 0.0 0.0 0.0 0.0 0.0 0.0 0.0 0.0 0.0 0.0 0.0 0.0 0.0
nan 0.4 0.9 0.6 0.1 0.0 0.0 0.0 0.0 0.0 2.0 1.2 0.7 0.0 0.0 0.0 0.0 0.0 0.0 0.0 0.0 0.0 0.0 0.0 0.0 0.0 0.0 0.0 0.0 0.0 0.0 0.0 0.0 0.0 0.0 0.0 0.0 0.0 0.0 0.0 0.0 0.0 0.0 0.0
0.0 2.8 0.3 0.1 0.0 0.0 0.0 0.0 0.0 0.0 0.0 0.2 0.0 0.0 0.0 0.0 0.0 0.0 0.0 0.0 0.0 0.0 0.0 0.0 0.0 0.0 0.0 0.0 0.0 0.0 0.0 0.0 0.0 0.0 0.0 0.0 0.0 0.0 0.2 0.8 1.0 0.9 0.8 0.0
0.0 3.5 0.8 2.8 0.0 0.0 0.0 0.0 0.0 0.0 0.0 0.0 0.0 0.0 0.0 0.0 0.0 0.0 0.0 0.0 0.0 0.0 0.0 0.0 0.0 0.0 0.0 0.0 0.0 0.0 0.0 0.0 0.0 0.0 0.0 0.0 1.5 1.8 1.9 1.8 1.3 0.9 0.8 0.8
0.5 2.5 8.3 13.3 0.7 0.6 6.2 1.0 0.0 0.0 0.0 0.0 0.0 0.0 0.0 0.0 0.0 0.0 0.0 0.0 0.0 0.0 0.0 0.0 0.0 0.0 0.0 0.0 0.0 0.0 0.0 0.6 1.8 2.1 3.0 2.6 2.2 2.0 1.7 1.4 1.2 1.0 1.0 1.0
0.2 3.6 7.0 17.3 9.3 21.9 2.2 0.0 0.0 0.0 0.0 0.0 0.0 0.2 0.3 0.0 0.0 0.0 0.0 0.0 0.0 0.0 0.0 0.0 0.0 0.0 0.0 0.0 0.0 0.0 0.7 1.3 1.5 2.5 3.4 2.5 1.6 2.8 1.6 1.4 1.4 1.1 1.0 1.2
0.1 0.0 10.3 18.7 18.4 1.0 0.1 0.0 0.0 0.0 0.0 0.1 0.7 0.5 0.2 0.0 0.0 0.0 0.0 0.0 0.0 0.0 0.0 0.0 0.0 0.0 0.0 0.0 0.0 0.8 0.8 0.8 0.9 1.0 1.5 1.6 2.2 3.2 1.8 3.9 1.9 1.5 2.5 1.9
0.0 0.0 0.4 11.8 19.4 15.2 0.2 0.0 0.0 0.0 0.9 1.7 2.7 1.7 1.1 0.3 0.6 0.2 0.0 0.0 0.0 0.0 0.0 0.0 0.0 0.0 0.0 0.0 0.0 0.8 0.8 1.2 1.1 0.9 0.9 1.1 2.1 4.5 3.7 2.2 3.3 3.8 3.6 3.4
6.0 10.4 13.0 14.2 17.7 5.9 1.1 0.7 0.0 6.7 5.3 1.8 1.4 1.1 0.9 1.1 0.3 0.1 0.0 0.0 0.0 0.0 0.0 0.0 0.0 0.0 0.0 0.4 0.9 0.8 0.8 1.1 1.4 1.6 1.7 2.0 2.2 4.8 3.1 3.6 3.1 4.3 4.8 2.7
1.4 9.0 20.0 13.3 13.4 15.7 0.2 0.1 1.5 1.7 0.6 1.1 0.4 0.1 0.2 0.1 0.0 0.0 0.0 0.0 0.0 0.0 0.0 0.0 0.0 0.0 0.0 1.0 1.3 1.1 0.9 1.3 1.8 2.2 2.5 3.2 5.2 5.0 5.1 8.7 5.5 7.3 6.5 6.3
5.2 1.8 9.1 3.8 4.8 0.1 0.1 0.5 0.1 0.2 1.4 0.8 0.3 0.2 0.1 0.1 0.0 0.0 0.0 0.0 0.0 0.0 0.0 0.0 1.7 1.5 0.0 2.1 2.3 2.7 1.9 2.2 2.9 5.4 7.5 7.5 6.7 6.7 6.8 9.6 6.2 8.7 7.4 8.6
0.6 0.0 1.6 2.4 0.1 0.1 0.1 0.0 0.0 0.1 0.3 0.1 0.2 0.2 0.1 0.1 0.1 0.0 0.0 0.1 0.0 1.2 1.6 1.8 2.4 2.9 2.7 2.6 3.1 3.5 3.0 3.2 10.0 10.1 5.4 4.4 5.6 4.2 5.5 7.6 8.7 12.1 9.1 7.1
0.5 0.4 1.0 1.5 0.0 0.0 0.0 0.0 0.0 0.0 0.0 0.0 0.0 0.0 0.1 0.0 0.0 0.0 1.0 1.2 0.8 1.4 1.6 2.3 2.9 2.9 2.7 2.3 2.8 4.0 4.0 4.7 6.9 7.2 4.0 5.6 7.8 8.6 5.0 4.2 7.1 5.8 3.6 8.4
0.0 0.0 0.2 2.3 0.0 0.0 0.0 0.0 0.0 0.0 0.0 0.3 0.3 0.4 0.5 0.5 0.5 0.6 1.0 0.7 0.9 1.4 1.7 2.3 2.6 2.4 2.9 3.7 4.1 5.3 6.9 6.6 6.6 4.1 6.0 5.9 5.8 5.0 4.4 4.4 4.3 nan nan nan

GFSCGP_prec_sndepth_009.txt.gz
Snowfall_Accumulation
0.0 0.0 0.0 0.0 0.0 0.0 0.0 0.0 0.0 0.0 0.0 0.0 0.0 0.0 0.0 0.0 0.0 0.0 0.0 0.0 0.0 0.0 0.0 0.0 0.0 0.0 0.0 0.0 0.0 0.0 0.0 0.0 0.0 0.0 0.0 0.0 0.0 0.0 0.0 0.0 0.0 0.0 0.0 0.0
0.0 0.0 0.0 0.0 0.0 0.0 0.0 0.0 0.0 0.0 0.0 0.0 0.0 0.0 0.0 0.0 0.0 0.0 0.0 0.0 0.0 0.0 0.0 0.0 0.0 0.0 0.0 0.0 0.0 0.0 0.0 0.0 0.0 0.0 0.0 0.0 0.0 0.0 0.0 0.0 0.0 0.0 0.0 0.0
0.0 0.0 0.0 0.0 0.0 0.0 0.0 0.0 0.0 0.0 0.0 0.0 0.0 0.0 0.0 0.0 0.0 0.0 0.0 0.0 0.0 0.0 0.0 0.0 0.0 0.0 0.0 0.0 0.0 0.0 0.0 0.0 0.0 0.0 0.0 0.0 0.0 0.0 0.0 0.0 0.0 0.0 0.0 0.0
0.0 0.0 0.0 0.0 0.0 0.0 0.0 0.0 0.0 0.0 0.0 0.0 0.0 0.0 0.0 0.0 0.0 0.0 0.0 0.0 0.0 0.0 0.0 0.0 0.0 0.0 0.0 0.0 0.0 0.0 0.0 0.0 0.0 0.0 0.0 0.0 0.0 0.0 0.0 0.0 0.0 0.0 0.0 0.0
0.0 0.0 0.0 0.0 0.0 0.0 0.0 0.0 0.0 0.0 0.0 0.0 0.0 0.0 0.0 0.0 0.0 0.0 0.0 0.0 0.0 0.0 0.0 0.0 0.0 0.0 0.0 0.0 0.0 0.0 0.0 0.0 0.0 0.0 0.0 0.0 0.0 0.0 0.0 0.0 0.0 0.0 0.0 0.0
0.0 0.0 0.0 0.0 0.0 0.0 0.0 0.0 0.0 0.0 0.0 0.5 0.0 0.0 0.0 0.0 0.0 0.0 0.0 0.0 0.0 0.0 0.0 0.0 0.0 0.0 0.0 0.0 0.0 0.0 0.0 0.0 0.0 0.0 0.0 0.0 0.0 0.0 0.0 0.0 0.0 0.0 0.0 0.0
0.0 0.0 0.0 0.0 0.0 0.0 0.0 0.0 0.6 1.2 3.2 1.7 0.0 0.2 0.0 0.0 0.0 0.0 0.0 0.0 0.0 0.0 0.0 0.0 0.0 0.0 0.0 0.0 0.0 0.0 0.0 0.0 0.0 0.0 0.0 0.0 0.0 0.0 0.0 0.0 0.0 0.0 0.0 0.0
0.0 0.0 0.0 0.0 0.0 0.0 0.0 0.0 1.2 2.9 2.4 1.2 0.7 0.5 0.0 0.0 0.0 0.0 0.0 0.0 0.0 0.0 0.0 0.0 0.0 0.0 0.0 0.0 0.0 0.0 0.0 0.0 0.0 0.0 0.0 0.0 0.0 0.0 0.0 0.0 0.0 0.0 0.0 0.0
0.0 0.0 0.0 0.0 0.0 0.0 0.0 0.0 0.0 0.8 5.0 3.6 0.0 0.0 0.0 0.0 0.0 0.0 0.0 0.0 0.0 0.0 0.0 0.0 0.0 0.0 0.0 0.0 0.0 0.0 0.0 0.0 0.0 0.0 0.0 0.0 0.0 0.0 0.0 0.0 0.0 0.0 0.0 0.0
0.0 0.1 0.0 0.0 0.0 0.0 0.0 0.0 0.5 0.5 5.3 4.2 0.0 0.0 0.0 0.0 0.0 0.0 0.0 0.0 0.0 0.0 0.0 0.0 0.0 0.0 0.0 0.0 0.0 0.0 0.0 0.0 0.0 0.0 0.0 0.0 0.0 0.0 0.0 0.0 0.0 0.0 0.0 0.0
0.0 0.0 0.0 0.0 0.0 0.0 0.0 0.0 0.0 0.0 0.6 3.1 2.4 0.1 0.0 0.0 0.0 0.0 0.0 0.0 0.0 0.0 0.0 0.0 0.0 0.0 0.0 0.0 0.0 0.0 0.0 0.0 0.0 0.0 0.0 0.0 0.0 0.0 0.0 0.0 0.0 0.0 0.0 0.0
0.0 0.0 2.2 0.0 0.0 0.0 0.0 0.0 0.0 1.0 0.8 0.8 1.5 1.0 0.0 0.0 0.0 0.0 0.0 0.0 0.0 0.0 0.0 0.0 0.0 0.0 0.0 0.0 0.0 0.0 0.0 0.0 0.0 0.0 0.0 0.0 0.0 0.0 0.0 0.0 0.0 0.0 0.0 0.0
0.0 0.9 5.1 2.0 0.0 0.0 0.0 0.0 0.0 0.0 0.5 1.3 5.5 1.2 0.0 0.0 0.0 0.0 0.0 0.0 0.0 0.0 0.0 0.0 0.0 0.0 0.0 0.0 0.0 0.0 0.0 0.0 0.0 0.0 0.0 0.0 0.0 0.0 0.0 0.0 0.0 0.0 0.0 0.0
nan 0.3 1.0 1.4 0.2 0.0 0.0 0.0 0.0 0.0 2.0 1.1 0.7 0.0 0.0 0.0 0.0 0.0 0.0 0.0 0.0 0.0 0.0 0.0 0.0 0.0 0.0 0.0 0.0 0.0 0.0 0.0 0.0 0.0 0.0 0.0 0.0 0.0 0.0 0.0 0.0 0.0 0.0 0.0
0.0 2.8 0.3 0.1 0.0 0.0 0.0 0.0 0.0 0.0 0.0 0.2 0.0 0.0 0.0 0.0 0.0 0.0 0.0 0.0 0.0 0.0 0.0 0.0 0.0 0.0 0.0 0.0 0.0 0.0 0.0 0.0 0.0 0.0 0.0 0.0 0.0 0.0 0.2 0.7 1.0 0.8 0.8 0.0
0.0 3.8 0.9 3.2 0.1 0.2 0.7 0.2 0.3 0.3 0.3 0.2 0.0 0.0 0.0 0.0 0.0 0.0 0.0 0.0 0.0 0.0 0.0 0.0 0.0 0.0 0.0 0.0 0.0 0.0 0.0 0.0 0.0 0.0 0.0 0.0 1.5 1.7 1.9 1.7 1.3 0.9 0.8 0.8
0.5 2.5 8.3 13.6 0.8 0.7 6.9 1.0 0.0 0.0 0.0 0.0 0.4 0.8 1.1 0.6 0.2 0.2 0.1 0.0 0.0 0.0 0.0 0.0 0.0 0.0 0.0 0.0 0.0 0.0 0.0 0.5 1.7 2.0 2.9 2.6 2.2 2.0 1.6 1.3 1.2 1.0 0.9 1.0
0.2 3.6 7.0 17.3 9.3 22.2 2.2 0.0 0.0 0.2 0.5 0.8 1.2 1.9 1.4 0.5 0.0 0.0 0.0 0.0 0.0 0.0 0.0 0.0 0.0 0.0 0.0 0.0 0.0 0.0 0.6 1.1 1.4 2.3 3.3 2.5 1.6 2.8 1.6 1.4 1.4 1.0 1.0 1.1
0.1 0.0 10.3 18.6 18.3 1.0 0.1 0.0 0.1 0.2 0.3 1.0 1.3 0.8 0.3 0.0 0.0 0.0 0.0 0.0 0.0 0.0 0.0 0.0 0.0 0.0 0.0 0.0 0.0 0.7 0.8 0.8 0.9 1.0 1.5 1.5 2.2 3.2 1.7 3.8 1.9 1.4 2.4 1.8
0.0 0.0 0.4 11.8 19.3 15.5 0.3 0.0 0.0 0.0 2.7 1.9 3.0 2.0 1.3 0.3 0.7 0.2 0.0 0.0 0.0 0.0 0.0 0.0 0.0 0.0 0.0 0.0 0.0 0.8 0.8 1.2 1.1 0.9 0.9 1.1 2.1 4.5 3.6 2.2 3.2 3.7 3.5 3.3
6.0 10.4 12.9 14.1 17.6 5.9 1.1 0.7 0.0 6.8 5.6 1.8 1.6 1.5 1.1 1.2 0.4 0.2 0.0 0.0 0.0 0.1 0.1 0.0 0.0 0.0 0.0 0.4 0.9 0.8 0.8 1.1 1.4 1.6 1.7 2.0 2.2 4.8 3.1 3.6 3.1 4.3 4.8 2.7
1.4 9.0 20.0 13.3 13.5 15.7 0.2 0.1 1.5 1.7 0.6 1.1 0.4 0.1 0.2 0.1 0.0 0.0 0.0 0.0 0.0 0.0 0.0 0.0 0.0 0.0 0.0 0.9 1.3 1.3 0.9 1.3 1.8 2.3 2.5 3.2 5.2 4.9 5.0 8.7 5.5 7.3 6.4 6.3
5.2 1.8 9.0 3.8 4.8 0.1 0.1 0.5 0.1 0.2 1.4 0.8 0.3 0.2 0.1 0.1 0.0 0.0 0.0 0.0 0.0 0.0 0.0 0.0 1.6 1.5 0.0 2.0 2.2 2.8 2.0 2.2 2.9 5.4 7.5 7.5 6.7 6.7 6.7 9.6 6.2 8.6 7.4 8.6
0.6 0.0 1.6 2.4 0.1 0.1 0.1 0.0 0.0 0.1 0.3 0.1 0.2 0.2 0.1 0.1 0.1 0.0 0.0 0.1 0.0 1.1 1.5 1.8 2.4 2.9 2.7 2.5 3.1 3.5 3.1 3.3 10.2 10.3 5.6 4.6 5.9 4.4 5.8 7.8 8.8 12.0 9.0 7.0
0.5 0.4 1.0 1.5 0.0 0.0 0.0 0.0 0.0 0.0 0.0 0.0 0.0 0.0 0.1 0.0 0.0 0.0 0.9 1.2 0.8 1.4 1.6 2.2 2.8 2.8 2.6 2.3 2.7 3.9 4.0 4.8 7.1 7.3 4.2 5.8 8.0 8.9 5.5 5.0 8.1 6.6 4.2 8.8
0.0 0.0 0.2 2.3 0.0 0.0 0.0 0.0 0.0 0.0 0.0 0.3 0.3 0.4 0.5 0.5 0.5 0.6 1.0 0.7 0.9 1.4 1.7 2.2 2.6 2.4 2.9 3.6 4.1 5.3 6.9 6.6 6.7 4.3 6.2 6.0 5.9 5.1 4.5 4.6 4.6 nan nan nan

GFSCGP_prec_sndepth_012.txt.gz
Snowfall_Accumulation
0.0 0.0 0.0 0.0 0.0 0.0 0.0 0.0 0.0 0.0 0.0 0.0 0.0 0.0 0.0 0.0 0.0 0.0 0.0 0.0 0.0 0.0 0.0 0.0 0.0 0.0 0.0 0.0 0.0 0.0 0.0 0.0 0.0 0.0 0.0 0.0 0.0 0.0 0.0 0.0 0.0 0.0 0.0 0.0
0.0 0.0 0.0 0.0 0.0 0.0 0.0 0.0 0.0 0.0 0.0 0.0 0.0 0.0 0.0 0.0 0.0 0.0 0.0 0.0 0.0 0.0 0.0 0.0 0.0 0.0 0.0 0.0 0.0 0.0 0.0 0.0 0.0 0.0 0.0 0.0 0.0 0.0 0.0 0.0 0.0 0.0 0.0 0.0
0.0 0.0 0.0 0.0 0.0 0.0 0.0 0.0 0.0 0.0 0.0 0.0 0.0 0.0 0.0 0.0 0.0 0.0 0.0 0.0 0.0 0.0 0.0 0.0 0.0 0.0 0.0 0.0 0.0 0.0 0.0 0.0 0.0 0.0 0.0 0.0 0.0 0.0 0.0 0.0 0.0 0.0 0.0 0.0
0.0 0.0 0.0 0.0 0.0 0.0 0.0 0.0 0.0 0.0 0.0 0.0 0.0 0.0 0.0 0.0 0.0 0.0 0.0 0.0 0.0 0.0 0.0 0.0 0.0 0.0 0.0 0.0 0.0 0.0 0.0 0.0 0.0 0.0 0.0 0.0 0.0 0.0 0.0 0.0 0.0 0.0 0.0 0.0
0.0 0.0 0.0 0.0 0.0 0.0 0.0 0.0 0.0 0.0 0.0 0.0 0.0 0.0 0.0 0.0 0.0 0.0 0.0 0.0 0.0 0.0 0.0 0.0 0.0 0.0 0.0 0.0 0.0 0.0 0.0 0.0 0.0 0.0 0.0 0.0 0.0 0.0 0.0 0.0 0.0 0.0 0.0 0.0
0.0 0.0 0.0 0.0 0.0 0.0 0.0 0.0 0.0 0.0 0.0 0.5 0.0 0.0 0.0 0.0 0.0 0.0 0.0 0.0 0.0 0.0 0.0 0.0 0.0 0.0 0.0 0.0 0.0 0.0 0.0 0.0 0.0 0.0 0.0 0.0 0.0 0.0 0.0 0.0 0.0 0.0 0.0 0.0
0.0 0.0 0.0 0.0 0.0 0.0 0.0 0.0 0.6 1.2 3.2 1.7 0.0 0.2 0.0 0.0 0.0 0.0 0.0 0.0 0.0 0.0 0.0 0.0 0.0 0.0 0.0 0.0 0.0 0.0 0.0 0.0 0.0 0.0 0.0 0.0 0.0 0.0 0.0 0.0 0.0 0.0 0.0 0.0
0.0 0.0 0.0 0.0 0.0 0.0 0.0 0.0 1.2 2.9 2.4 1.1 0.7 0.5 0.0 0.0 0.0 0.0 0.0 0.0 0.0 0.0 0.0 0.0 0.0 0.0 0.0 0.0 0.0 0.0 0.0 0.0 0.0 0.0 0.0 0.0 0.0 0.0 0.0 0.0 0.0 0.0 0.0 0.0
0.0 0.0 0.0 0.0 0.0 0.0 0.0 0.0 0.0 0.8 5.0 3.6 0.0 0.0 0.0 0.0 0.0 0.0 0.0 0.0 0.0 0.0 0.0 0.0 0.0 0.0 0.0 0.0 0.0 0.0 0.0 0.0 0.0 0.0 0.0 0.0 0.0 0.0 0.0 0.0 0.0 0.0 0.0 0.0
0.0 0.1 0.0 0.0 0.0 0.0 0.0 0.0 0.5 0.5 5.3 4.2 0.0 0.0 0.0 0.0 0.0 0.0 0.0 0.0 0.0 0.0 0.0 0.0 0.0 0.0 0.0 0.0 0.0 0.0 0.0 0.0 0.0 0.0 0.0 0.0 0.0 0.0 0.0 0.0 0.0 0.0 0.0 0.0
0.0 0.0 0.0 0.0 0.0 0.0 0.0 0.0 0.0 0.0 0.6 3.1 2.4 0.1 0.0 0.0 0.0 0.0 0.0 0.0 0.0 0.0 0.0 0.0 0.0 0.0 0.0 0.0 0.0 0.0 0.0 0.0 0.0 0.0 0.0 0.0 0.0 0.0 0.0 0.0 0.0 0.0 0.0 0.0
0.0 0.0 2.9 0.0 0.0 0.0 0.0 0.0 0.0 0.9 0.8 0.8 1.5 1.2 0.0 0.0 0.0 0.0 0.0 0.0 0.0 0.0 0.0 0.0 0.0 0.0 0.0 0.0 0.0 0.0 0.0 0.0 0.0 0.0 0.0 0.0 0.0 0.0 0.0 0.0 0.0 0.0 0.0 0.0
0.0 0.9 6.1 2.4 0.0 0.0 0.0 0.0 0.0 0.0 0.4 1.9 5.6 1.2 0.0 0.0 0.0 0.0 0.0 0.0 0.0 0.0 0.0 0.0 0.0 0.0 0.0 0.0 0.0 0.0 0.0 0.0 0.0 0.0 0.0 0.0 0.0 0.0 0.0 0.0 0.0 0.0 0.0 0.0
nan 0.4 1.0 1.6 0.4 0.0 0.0 0.0 0.0 0.1 2.7 1.3 0.9 0.1 0.0 0.0 0.0 0.0 0.0 0.0 0.0 0.0 0.0 0.0 0.0 0.0 0.0 0.0 0.0 0.0 0.0 0.0 0.0 0.0 0.0 0.0 0.0 0.0 0.0 0.0 0.0 0.0 0.0 0.0
0.0 3.1 0.2 0.1 0.1 0.2 0.3 0.1 0.0 0.0 0.0 0.7 0.3 0.6 0.1 0.0 0.4 0.1 0.0 0.0 0.0 0.0 0.0 0.0 0.0 0.0 0.0 0.0 0.0 0.0 0.0 0.0 0.0 0.0 0.0 0.0 0.0 0.0 0.2 0.7 0.9 0.8 0.7 0.0
0.0 4.4 0.9 3.3 0.1 0.2 0.7 0.2 0.3 0.3 0.3 0.2 0.0 0.0 0.0 0.0 0.0 0.1 0.0 0.0 0.0 0.0 0.0 0.0 0.0 0.0 0.0 0.0 0.0 0.0 0.0 0.0 0.0 0.0 0.0 0.0 1.4 1.7 1.8 1.7 1.3 0.9 0.8 0.8
0.5 2.5 8.4 13.8 0.8 0.7 6.9 1.0 0.0 0.0 0.0 0.0 0.5 1.2 1.3 0.7 0.3 0.4 0.3 0.2 0.1 0.1 0.0 0.0 0.0 0.0 0.0 0.0 0.0 0.0 0.0 0.4 1.6 1.9 2.7 2.5 2.2 2.0 1.6 1.3 1.2 0.9 0.9 1.0
0.2 3.6 7.0 17.4 9.3 22.3 2.2 0.0 0.0 0.2 0.8 1.1 1.5 2.2 1.5 0.5 0.1 0.1 0.1 0.0 0.0 0.0 0.0 0.0 0.0 0.0 0.0 0.0 0.0 0.0 0.5 1.1 1.4 2.3 3.2 2.4 1.6 2.8 1.6 1.3 1.4 1.0 0.9 1.1
0.1 0.0 10.3 18.6 18.3 1.0 0.1 0.0 0.1 0.2 0.3 1.0 1.3 0.8 0.3 0.0 0.0 0.0 0.0 0.0 0.0 0.0 0.0 0.0 0.0 0.0 0.0 0.0 0.0 0.8 0.8 0.8 0.9 1.0 1.5 1.5 2.2 3.1 1.7 3.8 1.8 1.4 2.3 1.8
0.0 0.0 0.4 11.9 19.4 15.5 0.3 0.0 0.0 0.0 2.7 1.9 3.0 2.0 1.3 0.3 0.7 0.2 0.0 0.0 0.0 0.0 0.0 0.0 0.0 0.0 0.0 0.0 0.0 0.8 0.8 1.2 1.1 0.9 0.9 1.1 2.1 4.5 3.6 2.2 3.2 3.7 3.5 3.3
6.0 10.4 13.0 14.1 17.6 5.9 1.1 0.7 0.0 6.8 5.6 1.8 1.6 1.5 1.1 1.2 0.4 0.2 0.0 0.0 0.0 0.1 0.1 0.1 0.1 0.1 0.0 0.4 0.9 0.9 0.8 1.1 1.4 1.6 1.7 2.0 2.2 4.8 3.1 3.6 3.0 4.3 4.7 2.6
1.4 9.0 19.9 13.3 13.4 15.7 0.2 0.1 1.5 1.7 0.6 1.1 0.4 0.1 0.2 0.1 0.0 0.0 0.0 0.0 0.0 0.0 0.0 0.0 0.0 0.0 0.0 0.9 1.3 1.3 1.0 1.3 1.9 2.4 2.6 3.3 5.2 4.9 5.0 8.6 5.5 7.3 6.4 6.2
5.2 1.8 9.0 3.8 4.8 0.1 0.1 0.5 0.1 0.2 1.4 0.8 0.3 0.2 0.1 0.1 0.0 0.0 0.0 0.0 0.0 0.0 0.0 0.0 1.6 1.5 0.0 1.9 2.2 2.7 1.9 2.2 2.9 5.4 7.5 7.5 6.7 6.7 6.7 9.6 6.2 8.7 7.3 8.5
0.6 0.0 1.6 2.3 0.1 0.1 0.1 0.0 0.0 0.1 0.2 0.1 0.2 0.2 0.1 0.1 0.1 0.0 0.0 0.1 0.0 1.1 1.5 1.8 2.4 2.8 2.6 2.5 3.0 3.5 3.1 3.3 10.2 10.2 5.6 4.6 5.9 4.4 5.9 7.9 9.0 12.6 9.7 7.7
0.5 0.4 1.0 1.5 0.0 0.0 0.0 0.0 0.0 0.0 0.0 0.0 0.0 0.0 0.1 0.0 0.0 0.0 0.9 1.2 0.8 1.4 1.5 2.2 2.8 2.8 2.6 2.2 2.7 3.9 3.9 4.7 7.0 7.3 4.2 5.8 8.1 9.0 5.6 5.2 8.3 7.1 4.6 9.8
0.0 0.0 0.2 2.3 0.0 0.0 0.0 0.0 0.0 0.0 0.0 0.3 0.3 0.4 0.5 0.5 0.5 0.6 1.0 0.7 0.9 1.3 1.6 2.2 2.5 2.4 2.9 3.6 4.0 5.2 6.9 6.6 6.7 4.2 6.1 6.0 5.9 5.2 4.6 4.8 4.7 nan nan nan

GFSCGP_prec_sndepth_015.txt.gz
Snowfall_Accumulation
0.0 0.0 0.0 0.0 0.0 0.0 0.0 0.0 0.0 0.0 0.0 0.0 0.0 0.0 0.0 0.0 0.0 0.0 0.0 0.0 0.0 0.0 0.0 0.0 0.0 0.0 0.0 0.0 0.0 0.0 0.0 0.0 0.0 0.0 0.0 0.0 0.0 0.0 0.0 0.0 0.0 0.0 0.0 0.0
0.0 0.0 0.0 0.0 0.0 0.0 0.0 0.0 0.0 0.0 0.0 0.0 0.0 0.0 0.0 0.0 0.0 0.0 0.0 0.0 0.0 0.0 0.0 0.0 0.0 0.0 0.0 0.0 0.0 0.0 0.0 0.0 0.0 0.0 0.0 0.0 0.0 0.0 0.0 0.0 0.0 0.0 0.0 0.0
0.0 0.0 0.0 0.0 0.0 0.0 0.0 0.0 0.0 0.0 0.0 0.0 0.0 0.0 0.0 0.0 0.0 0.0 0.0 0.0 0.0 0.0 0.0 0.0 0.0 0.0 0.0 0.0 0.0 0.0 0.0 0.0 0.0 0.0 0.0 0.0 0.0 0.0 0.0 0.0 0.0 0.0 0.0 0.0
0.0 0.0 0.0 0.0 0.0 0.0 0.0 0.0 0.0 0.0 0.0 0.0 0.0 0.0 0.0 0.0 0.0 0.0 0.0 0.0 0.0 0.0 0.0 0.0 0.0 0.0 0.0 0.0 0.0 0.0 0.0 0.0 0.0 0.0 0.0 0.0 0.0 0.0 0.0 0.0 0.0 0.0 0.0 0.0
0.0 0.0 0.0 0.0 0.0 0.0 0.0 0.0 0.0 0.0 0.0 0.0 0.0 0.0 0.0 0.0 0.0 0.0 0.0 0.0 0.0 0.0 0.0 0.0 0.0 0.0 0.0 0.0 0.0 0.0 0.0 0.0 0.0 0.0 0.0 0.0 0.0 0.0 0.0 0.0 0.0 0.0 0.0 0.0
0.0 0.0 0.0 0.0 0.0 0.0 0.0 0.0 0.0 0.0 0.0 0.5 0.0 0.0 0.0 0.0 0.0 0.0 0.0 0.0 0.0 0.0 0.0 0.0 0.0 0.0 0.0 0.0 0.0 0.0 0.0 0.0 0.0 0.0 0.0 0.0 0.0 0.0 0.0 0.0 0.0 0.0 0.0 0.0
0.0 0.0 0.0 0.0 0.0 0.0 0.0 0.0 0.6 1.2 3.2 1.7 0.0 0.2 0.0 0.0 0.0 0.0 0.0 0.0 0.0 0.0 0.0 0.0 0.0 0.0 0.0 0.0 0.0 0.0 0.0 0.0 0.0 0.0 0.0 0.0 0.0 0.0 0.0 0.0 0.0 0.0 0.0 0.0
0.0 0.0 0.0 0.0 0.0 0.0 0.0 0.0 1.2 3.0 2.4 1.1 0.7 0.5 0.0 0.0 0.0 0.0 0.0 0.0 0.0 0.0 0.0 0.0 0.0 0.0 0.0 0.0 0.0 0.0 0.0 0.0 0.0 0.0 0.0 0.0 0.0 0.0 0.0 0.0 0.0 0.0 0.0 0.0
0.0 0.0 0.0 0.0 0.0 0.0 0.0 0.0 0.0 0.8 5.0 3.7 0.0 0.0 0.0 0.0 0.0 0.0 0.0 0.0 0.0 0.0 0.0 0.0 0.0 0.0 0.0 0.0 0.0 0.0 0.0 0.0 0.0 0.0 0.0 0.0 0.0 0.0 0.0 0.0 0.0 0.0 0.0 0.0
0.0 0.2 0.0 0.0 0.0 0.0 0.0 0.0 0.5 0.5 5.3 4.3 0.0 0.0 0.0 0.0 0.0 0.0 0.0 0.0 0.0 0.0 0.0 0.0 0.0 0.0 0.0 0.0 0.0 0.0 0.0 0.0 0.0 0.0 0.0 0.0 0.0 0.0 0.0 0.0 0.0 0.0 0.0 0.0
0.0 0.0 0.0 0.0 0.0 0.0 0.0 0.0 0.0 0.0 0.7 3.8 2.8 0.1 0.0 0.0 0.0 0.0 0.0 0.0 0.0 0.0 0.0 0.0 0.0 0.0 0.0 0.0 0.0 0.0 0.0 0.0 0.0 0.0 0.0 0.0 0.0 0.0 0.0 0.0 0.0 0.0 0.0 0.0
0.0 0.0 3.4 0.0 0.0 0.0 0.0 0.0 0.0 1.2 1.0 0.8 1.5 1.6 0.0 0.0 0.0 0.0 0.0 0.0 0.0 0.0 0.0 0.0 0.0 0.0 0.0 0.0 0.0 0.0 0.0 0.0 0.0 0.0 0.0 0.0 0.0 0.0 0.0 0.0 0.0 0.0 0.0 0.0
0.0 0.9 6.6 2.6 0.0 0.0 0.0 0.0 0.0 0.0 0.6 2.8 5.9 1.5 0.0 0.0 0.0 0.0 0.0 0.0 0.0 0.0 0.0 0.0 0.0 0.0 0.0 0.0 0.0 0.0 0.0 0.0 0.0 0.0 0.0 0.0 0.0 0.0 0.0 0.0 0.0 0.0 0.0 0.0
nan 0.6 1.6 2.4 0.5 0.0 0.6 0.1 0.0 0.3 3.7 1.7 1.6 0.6 0.0 0.0 0.0 0.0 0.0 0.0 0.0 0.0 0.0 0.0 0.0 0.0 0.0 0.0 0.0 0.0 0.0 0.0 0.0 0.0 0.0 0.0 0.0 0.0 0.0 0.0 0.0 0.0 0.0 0.0
0.0 3.7 0.3 0.1 0.1 0.3 0.7 0.4 0.1 0.0 0.0 1.1 0.3 0.6 0.1 0.0 0.3 0.1 0.0 0.0 0.0 0.0 0.0 0.0 0.0 0.0 0.0 0.0 0.0 0.0 0.0 0.0 0.0 0.0 0.0 0.0 0.0 0.0 0.2 0.6 0.8 0.8 0.7 0.0
0.1 4.7 0.9 3.4 0.1 0.1 0.7 0.2 0.2 0.3 0.3 0.2 0.0 0.0 0.0 0.0 0.0 0.1 0.0 0.0 0.0 0.0 0.0 0.0 0.0 0.0 0.0 0.0 0.0 0.0 0.0 0.0 0.0 0.0 0.0 0.0 1.4 1.7 1.8 1.7 1.2 0.9 0.8 0.8
0.6 2.6 8.6 14.0 0.8 0.7 7.0 1.0 0.0 0.0 0.0 0.0 0.5 1.2 1.3 0.7 0.3 0.4 0.3 0.2 0.1 0.1 0.0 0.0 0.0 0.0 0.0 0.0 0.0 0.0 0.0 0.4 1.5 1.9 2.7 2.5 2.2 1.9 1.6 1.3 1.2 0.9 0.9 0.9
0.7 3.7 7.2 17.7 9.3 22.7 2.1 0.0 0.0 0.2 0.8 1.2 1.5 2.2 1.5 0.5 0.1 0.1 0.1 0.0 0.0 0.0 0.0 0.0 0.0 0.0 0.0 0.0 0.0 0.0 0.5 1.1 1.4 2.3 3.2 2.4 1.6 2.7 1.5 1.3 1.4 1.0 0.9 1.1
0.1 0.0 10.3 18.7 18.2 1.0 0.1 0.0 0.1 0.2 0.3 1.0 1.3 0.8 0.3 0.0 0.0 0.0 0.0 0.0 0.0 0.0 0.0 0.0 0.0 0.0 0.0 0.0 0.0 0.7 0.8 0.8 0.8 1.0 1.5 1.5 2.2 3.1 1.7 3.7 1.8 1.4 2.3 1.7
0.0 0.0 0.5 12.3 19.6 15.5 0.3 0.0 0.0 0.0 2.7 1.9 3.0 2.0 1.3 0.3 0.7 0.2 0.0 0.0 0.0 0.0 0.0 0.0 0.0 0.0 0.0 0.0 0.0 0.8 0.8 1.2 1.1 0.9 0.9 1.1 2.1 4.5 3.6 2.2 3.2 3.6 3.5 3.2
6.0 10.4 13.0 14.1 17.8 5.9 1.1 0.7 0.0 6.8 5.6 1.8 1.6 1.5 1.1 1.2 0.4 0.2 0.0 0.0 0.0 0.1 0.1 0.1 0.1 0.1 0.0 0.4 0.9 0.8 0.8 1.1 1.4 1.6 1.6 1.9 2.2 4.7 3.1 3.6 3.0 4.2 4.7 2.6
1.4 9.0 19.9 13.3 13.4 15.7 0.2 0.1 1.5 1.7 0.6 1.0 0.4 0.1 0.2 0.1 0.0 0.0 0.0 0.0 0.0 0.0 0.0 0.0 0.0 0.0 0.0 0.9 1.3 1.3 1.0 1.2 1.9 2.4 2.6 3.2 5.2 4.9 5.0 8.6 5.4 7.3 6.4 6.2
5.2 1.8 9.0 3.8 4.8 0.1 0.1 0.4 0.1 0.2 1.3 0.8 0.3 0.2 0.1 0.1 0.0 0.0 0.0 0.0 0.0 0.0 0.0 0.0 1.6 1.4 0.0 1.9 2.2 2.7 1.9 2.2 2.9 5.4 7.4 7.4 6.7 6.7 6.7 9.6 6.2 8.7 7.3 8.5
0.6 0.0 1.6 2.3 0.1 0.1 0.1 0.0 0.0 0.1 0.2 0.1 0.2 0.2 0.1 0.1 0.1 0.0 0.0 0.1 0.0 1.1 1.5 1.7 2.4 2.8 2.6 2.4 3.0 3.5 3.0 3.3 10.2 10.2 5.6 4.6 5.8 4.4 5.8 7.8 8.9 12.6 9.7 7.7
0.5 0.4 1.0 1.5 0.0 0.0 0.0 0.0 0.0 0.0 0.0 0.0 0.0 0.0 0.0 0.0 0.0 0.0 0.9 1.1 0.8 1.3 1.5 2.1 2.8 2.7 2.5 2.2 2.6 3.8 3.9 4.7 7.0 7.3 4.2 5.8 8.0 8.9 5.5 5.2 8.3 7.0 4.6 9.8
0.0 0.0 0.2 2.2 0.0 0.0 0.0 0.0 0.0 0.0 0.0 0.3 0.3 0.4 0.5 0.5 0.5 0.6 0.9 0.7 0.8 1.3 1.6 2.1 2.5 2.3 2.8 3.6 4.0 5.2 6.8 6.6 6.6 4.2 6.1 5.9 5.9 5.1 4.6 4.7 4.7 nan nan nan

GFSCGP_prec_sndepth_018.txt.gz
Snowfall_Accumulation
0.0 0.0 0.0 0.0 0.0 0.0 0.0 0.0 0.0 0.0 0.0 0.0 0.0 0.0 0.0 0.0 0.0 0.0 0.0 0.0 0.0 0.0 0.0 0.0 0.0 0.0 0.0 0.0 0.0 0.0 0.0 0.0 0.0 0.0 0.0 0.0 0.0 0.0 0.0 0.0 0.0 0.0 0.0 0.0
0.0 0.0 0.0 0.0 0.0 0.0 0.0 0.0 0.0 0.0 0.0 0.0 0.0 0.0 0.0 0.0 0.0 0.0 0.0 0.0 0.0 0.0 0.0 0.0 0.0 0.0 0.0 0.0 0.0 0.0 0.0 0.0 0.0 0.0 0.0 0.0 0.0 0.0 0.0 0.0 0.0 0.0 0.0 0.0
0.0 0.0 0.0 0.0 0.0 0.0 0.0 0.0 0.0 0.0 0.0 0.0 0.0 0.0 0.0 0.0 0.0 0.0 0.0 0.0 0.0 0.0 0.0 0.0 0.0 0.0 0.0 0.0 0.0 0.0 0.0 0.0 0.0 0.0 0.0 0.0 0.0 0.0 0.0 0.0 0.0 0.0 0.0 0.0
0.0 0.0 0.0 0.0 0.0 0.0 0.0 0.0 0.0 0.0 0.0 0.0 0.0 0.0 0.0 0.0 0.0 0.0 0.0 0.0 0.0 0.0 0.0 0.0 0.0 0.0 0.0 0.0 0.0 0.0 0.0 0.0 0.0 0.0 0.0 0.0 0.0 0.0 0.0 0.0 0.0 0.0 0.0 0.0
0.0 0.0 0.0 0.0 0.0 0.0 0.0 0.0 0.0 0.0 0.0 0.0 0.0 0.0 0.0 0.0 0.0 0.0 0.0 0.0 0.0 0.0 0.0 0.0 0.0 0.0 0.0 0.0 0.0 0.0 0.0 0.0 0.0 0.0 0.0 0.0 0.0 0.0 0.0 0.0 0.0 0.0 0.0 0.0
0.0 0.0 0.0 0.0 0.0 0.0 0.0 0.0 0.0 0.0 0.0 0.4 0.0 0.0 0.0 0.0 0.0 0.0 0.0 0.0 0.0 0.0 0.0 0.0 0.0 0.0 0.0 0.0 0.0 0.0 0.0 0.0 0.0 0.0 0.0 0.0 0.0 0.0 0.0 0.0 0.0 0.0 0.0 0.0
0.0 0.0 0.0 0.0 0.0 0.0 0.0 0.0 0.5 1.0 2.9 1.4 0.0 0.2 0.0 0.0 0.0 0.0 0.0 0.0 0.0 0.0 0.0 0.0 0.0 0.0 0.0 0.0 0.0 0.0 0.0 0.0 0.0 0.0 0.0 0.0 0.0 0.0 0.0 0.0 0.0 0.0 0.0 0.0
0.0 0.0 0.0 0.0 0.0 0.0 0.0 0.0 1.1 3.9 2.3 0.9 0.6 0.4 0.0 0.0 0.0 0.0 0.0 0.0 0.0 0.0 0.0 0.0 0.0 0.0 0.0 0.0 0.0 0.0 0.0 0.0 0.0 0.0 0.0 0.0 0.0 0.0 0.0 0.0 0.0 0.0 0.0 0.0
0.0 0.0 0.0 0.0 0.0 0.0 0.0 0.0 0.0 0.7 4.5 3.3 0.0 0.0 0.0 0.0 0.0 0.0 0.0 0.0 0.0 0.0 0.0 0.0 0.0 0.0 0.0 0.0 0.0 0.0 0.0 0.0 0.0 0.0 0.0 0.0 0.0 0.0 0.0 0.0 0.0 0.0 0.0 0.0
0.0 0.2 0.0 0.0 0.0 0.0 0.0 0.0 0.5 0.5 5.3 4.6 0.0 0.0 0.0 0.0 0.0 0.0 0.0 0.0 0.0 0.0 0.0 0.0 0.0 0.0 0.0 0.0 0.0 0.0 0.0 0.0 0.0 0.0 0.0 0.0 0.0 0.0 0.0 0.0 0.0 0.0 0.0 0.0
0.0 0.1 0.0 0.0 0.0 0.0 0.0 0.0 0.0 0.0 0.7 4.4 2.9 0.1 0.0 0.0 0.0 0.0 0.0 0.0 0.0 0.0 0.0 0.0 0.0 0.0 0.0 0.0 0.0 0.0 0.0 0.0 0.0 0.0 0.0 0.0 0.0 0.0 0.0 0.0 0.0 0.0 0.0 0.0
0.0 0.0 3.2 0.0 0.0 0.0 0.0 0.0 0.0 1.1 1.0 0.9 1.5 1.8 0.0 0.0 0.0 0.0 0.0 0.0 0.0 0.0 0.0 0.0 0.0 0.0 0.0 0.0 0.0 0.0 0.0 0.0 0.0 0.0 0.0 0.0 0.0 0.0 0.0 0.0 0.0 0.0 0.0 0.0
0.0 1.0 7.0 2.4 0.0 0.0 0.0 0.0 0.0 0.0 1.1 3.4 6.9 2.3 0.0 0.0 0.0 0.0 0.0 0.0 0.0 0.0 0.0 0.0 0.0 0.0 0.0 0.0 0.0 0.0 0.0 0.0 0.0 0.0 0.0 0.0 0.0 0.0 0.0 0.0 0.0 0.0 0.0 0.0
nan 0.6 1.5 2.5 0.4 0.0 0.6 0.2 0.2 0.6 5.0 2.2 2.1 0.7 0.0 0.0 0.0 0.0 0.0 0.0 0.0 0.0 0.0 0.0 0.0 0.0 0.0 0.0 0.0 0.0 0.0 0.0 0.0 0.0 0.0 0.0 0.0 0.0 0.0 0.0 0.0 0.0 0.0 0.0
0.0 3.9 0.2 0.1 0.1 0.3 0.6 0.4 0.0 0.0 0.1 1.7 0.3 0.5 0.0 0.0 0.3 0.1 0.0 0.0 0.0 0.0 0.0 0.0 0.0 0.0 0.0 0.0 0.0 0.0 0.0 0.0 0.0 0.0 0.0 0.0 0.0 0.0 0.1 0.5 0.6 0.5 0.5 0.0
0.1 4.8 0.9 3.6 0.1 0.1 0.7 0.2 0.2 0.2 0.2 0.2 0.0 0.0 0.0 0.0 0.0 0.0 0.0 0.0 0.0 0.0 0.0 0.0 0.0 0.0 0.0 0.0 0.0 0.0 0.0 0.0 0.0 0.0 0.0 0.0 1.0 1.4 1.5 1.3 1.0 0.7 0.6 0.6
0.6 2.6 8.6 14.1 0.8 0.7 7.1 1.0 0.0 0.0 0.0 0.0 0.4 1.0 1.2 0.6 0.2 0.3 0.2 0.1 0.1 0.0 0.0 0.0 0.0 0.0 0.0 0.0 0.0 0.0 0.0 0.3 1.4 1.8 2.6 2.4 1.9 1.9 1.5 1.2 1.0 0.8 0.8 0.8
0.8 3.9 7.3 17.9 9.3 23.4 2.1 0.0 0.0 0.2 0.7 1.1 1.5 2.2 1.3 0.5 0.1 0.1 0.1 0.0 0.0 0.0 0.0 0.0 0.0 0.0 0.0 0.0 0.0 0.0 0.4 0.9 1.3 2.2 3.2 2.4 1.5 2.7 1.5 1.3 1.3 0.9 0.8 0.9
0.1 0.0 10.3 18.8 18.1 1.0 0.1 0.0 0.1 0.2 0.3 0.9 1.3 0.7 0.2 0.0 0.0 0.0 0.0 0.0 0.0 0.0 0.0 0.0 0.0 0.0 0.0 0.0 0.0 0.6 0.7 0.7 0.8 0.9 1.4 1.4 2.1 3.1 1.7 3.7 1.8 1.3 2.2 1.5
0.0 0.0 0.6 12.3 19.8 15.5 0.3 0.0 0.0 0.0 2.6 1.9 3.0 2.0 1.2 0.2 0.7 0.2 0.0 0.0 0.0 0.0 0.0 0.0 0.0 0.0 0.0 0.0 0.0 0.7 0.8 1.1 1.0 0.8 0.8 1.0 2.0 4.4 3.5 2.1 3.1 3.5 3.3 3.1
5.9 10.4 13.0 14.1 17.9 5.9 1.1 0.6 0.0 6.7 5.5 1.7 1.6 1.4 1.0 1.1 0.3 0.1 0.0 0.0 0.0 0.1 0.1 0.1 0.0 0.1 0.0 0.3 0.8 0.8 0.8 1.1 1.3 1.6 1.6 1.9 2.1 4.7 3.0 3.5 2.9 4.1 4.6 2.5
1.4 8.9 19.8 13.2 13.5 15.8 0.2 0.1 1.4 1.6 0.5 1.0 0.4 0.1 0.2 0.1 0.0 0.0 0.0 0.0 0.0 0.0 0.0 0.0 0.0 0.0 0.0 0.9 1.3 1.2 0.9 1.2 1.8 2.3 2.5 3.2 5.1 4.8 4.9 8.5 5.3 7.1 6.3 6.1
5.2 1.8 8.9 3.7 4.7 0.1 0.1 0.4 0.1 0.2 1.3 0.7 0.3 0.1 0.1 0.1 0.0 0.0 0.0 0.0 0.0 0.0 0.0 0.0 1.6 1.4 0.0 1.9 2.1 2.7 1.8 2.1 2.8 5.4 7.4 7.4 6.6 6.6 6.6 9.5 6.1 8.6 7.2 8.4
0.6 0.0 1.6 2.3 0.1 0.1 0.1 0.0 0.0 0.1 0.2 0.1 0.1 0.2 0.1 0.1 0.1 0.0 0.0 0.1 0.0 1.0 1.4 1.7 2.3 2.8 2.6 2.4 2.9 3.4 3.0 3.2 10.1 10.1 5.5 4.5 5.8 4.3 5.7 7.7 8.8 12.4 9.6 7.6
0.5 0.4 1.0 1.4 0.0 0.0 0.0 0.0 0.0 0.0 0.0 0.0 0.0 0.0 0.0 0.0 0.0 0.0 0.9 1.1 0.7 1.3 1.5 2.1 2.7 2.7 2.5 2.1 2.6 3.8 3.8 4.7 6.9 7.2 4.1 5.7 7.9 8.9 5.5 5.1 8.2 6.9 4.5 9.7
0.0 0.0 0.2 2.2 0.0 0.0 0.0 0.0 0.0 0.0 0.0 0.3 0.3 0.4 0.5 0.5 0.5 0.6 0.9 0.6 0.8 1.2 1.5 2.1 2.4 2.3 2.8 3.5 3.9 5.1 6.8 6.5 6.6 4.2 6.0 5.9 5.9 5.1 4.6 4.7 4.7 nan nan nan

GFSCGP_prec_sndepth_021.txt.gz
Snowfall_Accumulation
0.0 0.0 0.0 0.0 0.0 0.0 0.0 0.0 0.0 0.0 0.0 0.0 0.0 0.0 0.0 0.0 0.0 0.0 0.0 0.0 0.0 0.0 0.0 0.0 0.0 0.0 0.0 0.0 0.0 0.0 0.0 0.0 0.0 0.0 0.0 0.0 0.0 0.0 0.0 0.0 0.0 0.0 0.0 0.0
0.0 0.0 0.0 0.0 0.0 0.0 0.0 0.0 0.0 0.0 0.0 0.0 0.0 0.0 0.0 0.0 0.0 0.0 0.0 0.0 0.0 0.0 0.0 0.0 0.0 0.0 0.0 0.0 0.0 0.0 0.0 0.0 0.0 0.0 0.0 0.0 0.0 0.0 0.0 0.0 0.0 0.0 0.0 0.0
0.0 0.0 0.0 0.0 0.0 0.0 0.0 0.0 0.0 0.0 0.0 0.0 0.0 0.0 0.0 0.0 0.0 0.0 0.0 0.0 0.0 0.0 0.0 0.0 0.0 0.0 0.0 0.0 0.0 0.0 0.0 0.0 0.0 0.0 0.0 0.0 0.0 0.0 0.0 0.0 0.0 0.0 0.0 0.0
0.0 0.0 0.0 0.0 0.0 0.0 0.0 0.0 0.0 0.0 0.0 0.0 0.0 0.0 0.0 0.0 0.0 0.0 0.0 0.0 0.0 0.0 0.0 0.0 0.0 0.0 0.0 0.0 0.0 0.0 0.0 0.0 0.0 0.0 0.0 0.0 0.0 0.0 0.0 0.0 0.0 0.0 0.0 0.0
0.0 0.0 0.0 0.0 0.0 0.0 0.0 0.0 0.0 0.0 0.0 0.0 0.0 0.0 0.0 0.0 0.0 0.0 0.0 0.0 0.0 0.0 0.0 0.0 0.0 0.0 0.0 0.0 0.0 0.0 0.0 0.0 0.0 0.0 0.0 0.0 0.0 0.0 0.0 0.0 0.0 0.0 0.0 0.0
0.0 0.0 0.0 0.0 0.0 0.0 0.0 0.0 0.0 0.0 0.0 0.3 0.0 0.0 0.0 0.0 0.0 0.0 0.0 0.0 0.0 0.0 0.0 0.0 0.0 0.0 0.0 0.0 0.0 0.0 0.0 0.0 0.0 0.0 0.0 0.0 0.0 0.0 0.0 0.0 0.0 0.0 0.0 0.0
0.0 0.0 0.0 0.0 0.0 0.0 0.0 0.0 0.4 0.8 2.2 1.1 0.0 0.2 0.0 0.0 0.0 0.0 0.0 0.0 0.0 0.0 0.0 0.0 0.0 0.0 0.0 0.0 0.0 0.0 0.0 0.0 0.0 0.0 0.0 0.0 0.0 0.0 0.0 0.0 0.0 0.0 0.0 0.0
0.0 0.0 0.0 0.0 0.0 0.0 0.0 0.0 0.8 3.2 1.8 0.7 0.3 0.3 0.0 0.0 0.0 0.0 0.0 0.0 0.0 0.0 0.0 0.0 0.0 0.0 0.0 0.0 0.0 0.0 0.0 0.0 0.0 0.0 0.0 0.0 0.0 0.0 0.0 0.0 0.0 0.0 0.0 0.0
0.0 0.0 0.0 0.0 0.0 0.0 0.0 0.0 0.0 0.5 3.5 2.8 0.0 0.0 0.0 0.0 0.0 0.0 0.0 0.0 0.0 0.0 0.0 0.0 0.0 0.0 0.0 0.0 0.0 0.0 0.0 0.0 0.0 0.0 0.0 0.0 0.0 0.0 0.0 0.0 0.0 0.0 0.0 0.0
0.0 0.1 0.0 0.0 0.0 0.0 0.0 0.0 0.4 0.4 5.5 4.5 0.0 0.0 0.0 0.0 0.0 0.0 0.0 0.0 0.0 0.0 0.0 0.0 0.0 0.0 0.0 0.0 0.0 0.0 0.0 0.0 0.0 0.0 0.0 0.0 0.0 0.0 0.0 0.0 0.0 0.0 0.0 0.0
0.0 0.1 0.0 0.0 0.0 0.0 0.0 0.0 0.0 0.0 0.6 4.4 2.8 0.1 0.0 0.0 0.0 0.0 0.0 0.0 0.0 0.0 0.0 0.0 0.0 0.0 0.0 0.0 0.0 0.0 0.0 0.0 0.0 0.0 0.0 0.0 0.0 0.0 0.0 0.0 0.0 0.0 0.0 0.0
0.0 0.0 2.7 0.0 0.0 0.0 0.0 0.0 0.0 1.1 0.8 0.7 1.3 2.1 0.0 0.0 0.0 0.0 0.0 0.0 0.0 0.0 0.0 0.0 0.0 0.0 0.0 0.0 0.0 0.0 0.0 0.0 0.0 0.0 0.0 0.0 0.0 0.0 0.0 0.0 0.0 0.0 0.0 0.0
0.0 0.8 6.9 2.0 0.0 0.0 0.0 0.0 0.0 0.0 0.8 3.8 7.0 2.2 0.0 0.0 0.0 0.0 0.0 0.0 0.0 0.0 0.0 0.0 0.0 0.0 0.0 0.0 0.0 0.0 0.0 0.0 0.0 0.0 0.0 0.0 0.0 0.0 0.0 0.0 0.0 0.0 0.0 0.0
nan 0.4 1.3 2.4 0.3 0.0 0.5 0.1 0.2 0.6 6.0 2.7 2.3 0.9 0.0 0.0 0.0 0.0 0.0 0.0 0.0 0.0 0.0 0.0 0.0 0.0 0.0 0.0 0.0 0.0 0.0 0.0 0.0 0.0 0.0 0.0 0.0 0.0 0.0 0.0 0.0 0.0 0.0 0.0
0.0 3.5 0.1 0.1 0.0 0.2 0.4 0.3 0.0 0.0 0.1 1.7 0.2 0.3 0.0 0.0 0.2 0.0 0.0 0.0 0.0 0.0 0.0 0.0 0.0 0.0 0.0 0.0 0.0 0.0 0.0 0.0 0.0 0.0 0.0 0.0 0.0 0.0 0.1 0.3 0.4 0.4 0.3 0.0
0.1 4.7 0.7 3.6 0.1 0.1 0.6 0.1 0.1 0.2 0.2 0.1 0.0 0.0 0.0 0.0 0.0 0.0 0.0 0.0 0.0 0.0 0.0 0.0 0.0 0.0 0.0 0.0 0.0 0.0 0.0 0.0 0.0 0.0 0.0 0.0 0.8 1.1 1.3 1.1 0.8 0.5 0.5 0.4
0.4 2.5 8.6 14.1 0.7 0.6 7.1 0.9 0.0 0.0 0.0 0.0 0.3 0.6 0.8 0.4 0.2 0.2 0.1 0.1 0.0 0.0 0.0 0.0 0.0 0.0 0.0 0.0 0.0 0.0 0.0 0.2 1.1 1.7 2.5 2.2 1.8 1.8 1.4 1.0 0.9 0.7 0.6 0.6
0.7 3.9 7.4 17.9 9.3 24.1 2.0 0.0 0.0 0.1 0.5 0.7 1.2 1.9 1.0 0.3 0.0 0.0 0.0 0.0 0.0 0.0 0.0 0.0 0.0 0.0 0.0 0.0 0.0 0.0 0.3 0.7 1.0 2.1 3.1 2.3 1.5 2.6 1.4 1.2 1.2 0.8 0.6 0.8
0.1 0.0 10.2 19.0 18.0 0.9 0.1 0.0 0.0 0.1 0.2 0.6 1.0 0.5 0.2 0.0 0.0 0.0 0.0 0.0 0.0 0.0 0.0 0.0 0.0 0.0 0.0 0.0 0.0 0.5 0.5 0.5 0.6 0.7 1.2 1.3 2.0 3.0 1.6 3.6 1.7 1.3 2.1 1.4
0.0 0.0 0.6 12.3 19.9 15.4 0.2 0.0 0.0 0.0 2.4 1.6 3.0 1.9 1.0 0.2 0.7 0.1 0.0 0.0 0.0 0.0 0.0 0.0 0.0 0.0 0.0 0.0 0.0 0.6 0.7 1.0 0.9 0.7 0.7 0.9 1.9 4.3 3.5 2.0 3.0 3.4 3.2 3.0
5.9 10.3 13.0 13.9 17.9 5.9 0.9 0.5 0.0 6.7 5.3 1.6 1.2 1.2 0.8 1.0 0.3 0.1 0.0 0.0 0.0 0.0 0.1 0.0 0.0 0.0 0.0 0.3 0.7 0.7 0.7 1.0 1.2 1.5 1.5 1.8 2.0 4.6 2.9 3.4 2.8 4.0 4.5 2.4
1.3 8.8 19.5 13.1 13.4 15.7 0.1 0.1 1.3 1.2 0.4 0.7 0.3 0.1 0.1 0.0 0.0 0.0 0.0 0.0 0.0 0.0 0.0 0.0 0.0 0.0 0.0 0.8 1.2 1.2 0.9 1.1 1.7 2.2 2.5 3.1 5.1 4.7 4.7 8.4 5.2 7.0 6.2 6.0
5.1 1.6 8.7 3.6 4.6 0.1 0.0 0.3 0.1 0.1 1.0 0.5 0.2 0.1 0.0 0.1 0.0 0.0 0.0 0.0 0.0 0.0 0.0 0.0 1.5 1.4 0.0 1.8 2.1 2.6 1.7 2.0 2.8 5.3 7.3 7.3 6.5 6.5 6.5 9.4 6.1 8.5 7.1 8.3
0.5 0.0 1.5 2.2 0.0 0.0 0.0 0.0 0.0 0.1 0.1 0.1 0.1 0.1 0.1 0.1 0.0 0.0 0.0 0.1 0.0 1.0 1.4 1.6 2.3 2.7 2.5 2.3 2.8 3.3 2.9 3.1 10.0 10.1 5.4 4.4 5.7 4.2 5.7 7.6 8.7 12.3 9.5 7.6
0.4 0.4 0.9 1.4 0.0 0.0 0.0 0.0 0.0 0.0 0.0 0.0 0.0 0.0 0.0 0.0 0.0 0.0 0.8 1.1 0.7 1.2 1.4 2.0 2.7 2.6 2.4 2.1 2.5 3.7 3.7 4.6 6.8 7.1 4.0 5.6 7.8 8.8 5.4 5.0 8.1 6.9 4.4 9.6
0.0 0.0 0.2 2.2 0.0 0.0 0.0 0.0 0.0 0.0 0.0 0.2 0.3 0.4 0.4 0.5 0.5 0.5 0.9 0.6 0.8 1.2 1.5 2.0 2.4 2.2 2.7 3.4 3.9 5.1 6.7 6.5 6.6 4.1 6.0 5.8 5.8 5.0 4.5 4.6 4.6 nan nan nan

GFSCGP_prec_sndepth_024.txt.gz
Snowfall_Accumulation
0.0 0.0 0.0 0.0 0.0 0.0 0.0 0.0 0.0 0.0 0.0 0.0 0.0 0.0 0.0 0.0 0.0 0.0 0.0 0.0 0.0 0.0 0.0 0.0 0.0 0.0 0.0 0.0 0.0 0.0 0.0 0.0 0.0 0.0 0.0 0.0 0.0 0.0 0.0 0.0 0.0 0.0 0.0 0.0
0.0 0.0 0.0 0.0 0.0 0.0 0.0 0.0 0.0 0.0 0.0 0.0 0.0 0.0 0.0 0.0 0.0 0.0 0.0 0.0 0.0 0.0 0.0 0.0 0.0 0.0 0.0 0.0 0.0 0.0 0.0 0.0 0.0 0.0 0.0 0.0 0.0 0.0 0.0 0.0 0.0 0.0 0.0 0.0
0.0 0.0 0.0 0.0 0.0 0.0 0.0 0.0 0.0 0.0 0.0 0.0 0.0 0.0 0.0 0.0 0.0 0.0 0.0 0.0 0.0 0.0 0.0 0.0 0.0 0.0 0.0 0.0 0.0 0.0 0.0 0.0 0.0 0.0 0.0 0.0 0.0 0.0 0.0 0.0 0.0 0.0 0.0 0.0
0.0 0.0 0.0 0.0 0.0 0.0 0.0 0.0 0.0 0.0 0.0 0.0 0.0 0.0 0.0 0.0 0.0 0.0 0.0 0.0 0.0 0.0 0.0 0.0 0.0 0.0 0.0 0.0 0.0 0.0 0.0 0.0 0.0 0.0 0.0 0.0 0.0 0.0 0.0 0.0 0.0 0.0 0.0 0.0
0.0 0.0 0.0 0.0 0.0 0.0 0.0 0.0 0.0 0.0 0.0 0.0 0.0 0.0 0.0 0.0 0.0 0.0 0.0 0.0 0.0 0.0 0.0 0.0 0.0 0.0 0.0 0.0 0.0 0.0 0.0 0.0 0.0 0.0 0.0 0.0 0.0 0.0 0.0 0.0 0.0 0.0 0.0 0.0
0.0 0.0 0.0 0.0 0.0 0.0 0.0 0.0 0.0 0.0 0.0 0.3 0.0 0.0 0.0 0.0 0.0 0.0 0.0 0.0 0.0 0.0 0.0 0.0 0.0 0.0 0.0 0.0 0.0 0.0 0.0 0.0 0.0 0.0 0.0 0.0 0.0 0.0 0.0 0.0 0.0 0.0 0.0 0.0
0.0 0.0 0.0 0.0 0.0 0.0 0.0 0.0 0.4 0.7 2.0 1.0 0.0 0.2 0.0 0.0 0.0 0.0 0.0 0.0 0.0 0.0 0.0 0.0 0.0 0.0 0.0 0.0 0.0 0.0 0.0 0.0 0.0 0.0 0.0 0.0 0.0 0.0 0.0 0.0 0.0 0.0 0.0 0.0
0.0 0.0 0.0 0.0 0.0 0.0 0.0 0.0 0.8 3.2 1.7 0.7 0.3 0.3 0.0 0.0 0.0 0.0 0.0 0.0 0.0 0.0 0.0 0.0 0.0 0.0 0.0 0.0 0.0 0.0 0.0 0.0 0.0 0.0 0.0 0.0 0.0 0.0 0.0 0.0 0.0 0.0 0.0 0.0
0.0 0.0 0.0 0.0 0.0 0.0 0.0 0.0 0.0 0.4 3.3 2.6 0.0 0.0 0.0 0.0 0.0 0.0 0.0 0.0 0.0 0.0 0.0 0.0 0.0 0.0 0.0 0.0 0.0 0.0 0.0 0.0 0.0 0.0 0.0 0.0 0.0 0.0 0.0 0.0 0.0 0.0 0.0 0.0
0.0 0.1 0.0 0.0 0.0 0.0 0.0 0.0 0.3 0.4 5.8 4.5 0.0 0.0 0.0 0.0 0.0 0.0 0.0 0.0 0.0 0.0 0.0 0.0 0.0 0.0 0.0 0.0 0.0 0.0 0.0 0.0 0.0 0.0 0.0 0.0 0.0 0.0 0.0 0.0 0.0 0.0 0.0 0.0
0.0 0.1 0.0 0.0 0.0 0.0 0.0 0.0 0.0 0.0 0.5 4.4 2.8 0.1 0.0 0.0 0.0 0.0 0.0 0.0 0.0 0.0 0.0 0.0 0.0 0.0 0.0 0.0 0.0 0.0 0.0 0.0 0.0 0.0 0.0 0.0 0.0 0.0 0.0 0.0 0.0 0.0 0.0 0.0
0.0 0.0 2.5 0.0 0.0 0.0 0.0 0.0 0.0 1.0 0.7 0.7 1.2 2.2 0.0 0.0 0.0 0.0 0.0 0.0 0.0 0.0 0.0 0.0 0.0 0.0 0.0 0.0 0.0 0.0 0.0 0.0 0.0 0.0 0.0 0.0 0.0 0.0 0.0 0.0 0.0 0.0 0.0 0.0
0.0 0.8 6.8 1.9 0.0 0.0 0.0 0.0 0.0 0.0 0.7 4.5 7.8 2.4 0.0 0.0 0.0 0.0 0.0 0.0 0.0 0.0 0.0 0.0 0.0 0.0 0.0 0.0 0.0 0.0 0.0 0.0 0.0 0.0 0.0 0.0 0.0 0.0 0.0 0.0 0.0 0.0 0.0 0.0
nan 0.4 1.2 2.3 0.2 0.0 0.4 0.1 0.1 0.5 6.3 2.6 2.3 0.8 0.0 0.0 0.0 0.0 0.0 0.0 0.0 0.0 0.0 0.0 0.0 0.0 0.0 0.0 0.0 0.0 0.0 0.0 0.0 0.0 0.0 0.0 0.0 0.0 0.0 0.0 0.0 0.0 0.0 0.0
0.0 3.5 0.1 0.1 0.0 0.1 0.3 0.3 0.0 0.0 0.1 1.9 0.2 0.3 0.0 0.0 0.1 0.0 0.0 0.0 0.0 0.0 0.0 0.0 0.0 0.0 0.0 0.0 0.0 0.0 0.0 0.0 0.0 0.0 0.0 0.0 0.0 0.0 0.1 0.3 0.4 0.4 0.3 0.0
0.1 4.6 0.7 3.6 0.1 0.1 0.5 0.1 0.1 0.1 0.1 0.1 0.0 0.0 0.0 0.0 0.0 0.0 0.0 0.0 0.0 0.0 0.0 0.0 0.0 0.0 0.0 0.0 0.0 0.0 0.0 0.0 0.0 0.0 0.0 0.0 0.8 1.1 1.3 1.1 0.8 0.5 0.4 0.4
0.4 2.5 8.6 14.0 0.6 0.6 7.0 0.9 0.0 0.0 0.0 0.0 0.3 0.5 0.8 0.4 0.1 0.2 0.1 0.1 0.0 0.0 0.0 0.0 0.0 0.0 0.0 0.0 0.0 0.0 0.0 0.2 1.1 1.7 2.5 2.2 1.8 1.8 1.4 1.0 0.8 0.7 0.6 0.6
0.7 3.9 7.4 17.8 9.3 24.2 2.0 0.0 0.0 0.1 0.4 0.7 1.1 1.9 0.9 0.3 0.0 0.0 0.0 0.0 0.0 0.0 0.0 0.0 0.0 0.0 0.0 0.0 0.0 0.0 0.3 0.7 1.0 2.0 3.1 2.3 1.4 2.6 1.4 1.2 1.2 0.8 0.6 0.7
0.0 0.0 10.2 19.1 17.9 0.9 0.1 0.0 0.0 0.1 0.2 0.5 1.0 0.5 0.1 0.0 0.0 0.0 0.0 0.0 0.0 0.0 0.0 0.0 0.0 0.0 0.0 0.0 0.0 0.4 0.5 0.5 0.6 0.7 1.2 1.3 2.0 3.0 1.6 3.6 1.7 1.2 2.0 1.3
0.0 0.0 0.5 12.2 20.0 15.3 0.2 0.0 0.0 0.0 2.4 1.6 3.0 1.9 1.0 0.2 0.6 0.1 0.0 0.0 0.0 0.0 0.0 0.0 0.0 0.0 0.0 0.0 0.0 0.6 0.6 1.0 0.9 0.7 0.7 0.9 1.9 4.3 3.4 2.0 2.9 3.3 3.2 2.9
5.8 10.2 12.9 13.9 18.0 5.9 0.9 0.5 0.0 6.6 5.3 1.6 1.2 1.2 0.8 0.9 0.3 0.1 0.0 0.0 0.0 0.0 0.1 0.0 0.0 0.0 0.0 0.3 0.7 0.7 0.7 1.0 1.2 1.5 1.5 1.8 2.0 4.5 2.9 3.3 2.8 4.0 4.4 2.3
1.3 8.7 19.4 13.0 13.3 15.7 0.1 0.1 1.2 1.2 0.3 0.6 0.2 0.0 0.1 0.0 0.0 0.0 0.0 0.0 0.0 0.0 0.0 0.0 0.0 0.0 0.0 0.8 1.2 1.2 0.8 1.1 1.7 2.2 2.4 3.1 5.0 4.6 4.7 8.4 5.2 7.0 6.1 6.0
5.0 1.6 8.7 3.6 4.6 0.1 0.0 0.3 0.1 0.1 1.0 0.4 0.2 0.1 0.0 0.1 0.0 0.0 0.0 0.0 0.0 0.0 0.0 0.0 1.5 1.4 0.0 1.8 2.0 2.6 1.7 2.0 2.7 5.3 7.3 7.3 6.5 6.4 6.5 9.3 6.0 8.4 7.1 8.3
0.4 0.0 1.5 2.2 0.0 0.0 0.0 0.0 0.0 0.0 0.1 0.1 0.1 0.1 0.1 0.1 0.0 0.0 0.0 0.1 0.0 1.0 1.4 1.6 2.3 2.7 2.5 2.3 2.8 3.3 2.9 3.1 10.0 10.0 5.4 4.4 5.7 4.2 5.6 7.6 8.7 12.2 9.5 7.6
0.4 0.3 0.9 1.3 0.0 0.0 0.0 0.0 0.0 0.0 0.0 0.0 0.0 0.0 0.0 0.0 0.0 0.0 0.8 1.1 0.7 1.2 1.4 2.0 2.6 2.6 2.4 2.1 2.5 3.7 3.7 4.6 6.8 7.1 4.0 5.6 7.8 8.7 5.3 5.0 8.1 6.8 4.4 9.6
0.0 0.0 0.2 2.1 0.0 0.0 0.0 0.0 0.0 0.0 0.0 0.2 0.2 0.4 0.4 0.5 0.5 0.5 0.9 0.6 0.8 1.2 1.5 2.0 2.4 2.2 2.7 3.4 3.8 5.0 6.7 6.5 6.6 4.1 6.0 5.8 5.8 5.0 4.5 4.6 4.6 nan nan nan

GFSCGP_prec_sndepth_027.txt.gz
Snowfall_Accumulation
0.0 0.0 0.0 0.0 0.0 0.0 0.0 0.0 0.0 0.0 0.0 0.0 0.0 0.0 0.0 0.0 0.0 0.0 0.0 0.0 0.0 0.0 0.0 0.0 0.0 0.0 0.0 0.0 0.0 0.0 0.0 0.0 0.0 0.0 0.0 0.0 0.0 0.0 0.0 0.0 0.0 0.0 0.0 0.0
0.0 0.0 0.0 0.0 0.0 0.0 0.0 0.0 0.0 0.0 0.0 0.0 0.0 0.0 0.0 0.0 0.0 0.0 0.0 0.0 0.0 0.0 0.0 0.0 0.0 0.0 0.0 0.0 0.0 0.0 0.0 0.0 0.0 0.0 0.0 0.0 0.0 0.0 0.0 0.0 0.0 0.0 0.0 0.0
0.0 0.0 0.0 0.0 0.0 0.0 0.0 0.0 0.0 0.0 0.0 0.0 0.0 0.0 0.0 0.0 0.0 0.0 0.0 0.0 0.0 0.0 0.0 0.0 0.0 0.0 0.0 0.0 0.0 0.0 0.0 0.0 0.0 0.0 0.0 0.0 0.0 0.0 0.0 0.0 0.0 0.0 0.0 0.0
0.0 0.0 0.0 0.0 0.0 0.0 0.0 0.0 0.0 0.0 0.0 0.0 0.0 0.0 0.0 0.0 0.0 0.0 0.0 0.0 0.0 0.0 0.0 0.0 0.0 0.0 0.0 0.0 0.0 0.0 0.0 0.0 0.0 0.0 0.0 0.0 0.0 0.0 0.0 0.0 0.0 0.0 0.0 0.0
0.0 0.0 0.0 0.0 0.0 0.0 0.0 0.0 0.0 0.0 0.0 0.0 0.0 0.0 0.0 0.0 0.0 0.0 0.0 0.0 0.0 0.0 0.0 0.0 0.0 0.0 0.0 0.0 0.0 0.0 0.0 0.0 0.0 0.0 0.0 0.0 0.0 0.0 0.0 0.0 0.0 0.0 0.0 0.0
0.0 0.0 0.0 0.0 0.0 0.0 0.0 0.0 0.0 0.0 0.0 0.3 0.0 0.0 0.0 0.0 0.0 0.0 0.0 0.0 0.0 0.0 0.0 0.0 0.0 0.0 0.0 0.0 0.0 0.0 0.0 0.0 0.0 0.0 0.0 0.0 0.0 0.0 0.0 0.0 0.0 0.0 0.0 0.0
0.0 0.0 0.0 0.0 0.0 0.0 0.0 0.0 0.4 0.7 2.0 1.0 0.0 0.2 0.0 0.0 0.0 0.0 0.0 0.0 0.0 0.0 0.0 0.0 0.0 0.0 0.0 0.0 0.0 0.0 0.0 0.0 0.0 0.0 0.0 0.0 0.0 0.0 0.0 0.0 0.0 0.0 0.0 0.0
0.0 0.0 0.0 0.0 0.0 0.0 0.0 0.0 0.8 3.2 1.7 0.7 0.3 0.3 0.0 0.0 0.0 0.0 0.0 0.0 0.0 0.0 0.0 0.0 0.0 0.0 0.0 0.0 0.0 0.0 0.0 0.0 0.0 0.0 0.0 0.0 0.0 0.0 0.0 0.0 0.0 0.0 0.0 0.0
0.0 0.0 0.0 0.0 0.0 0.0 0.0 0.0 0.0 0.4 3.3 2.6 0.0 0.0 0.0 0.0 0.0 0.0 0.0 0.0 0.0 0.0 0.0 0.0 0.0 0.0 0.0 0.0 0.0 0.0 0.0 0.0 0.0 0.0 0.0 0.0 0.0 0.0 0.0 0.0 0.0 0.0 0.0 0.0
0.0 0.1 0.0 0.0 0.0 0.0 0.0 0.0 0.3 0.4 5.8 4.5 0.0 0.0 0.0 0.0 0.0 0.0 0.0 0.0 0.0 0.0 0.0 0.0 0.0 0.0 0.0 0.0 0.0 0.0 0.0 0.0 0.0 0.0 0.0 0.0 0.0 0.0 0.0 0.0 0.0 0.0 0.0 0.0
0.0 0.1 0.0 0.0 0.0 0.0 0.0 0.0 0.0 0.0 0.5 4.4 2.8 0.1 0.0 0.0 0.0 0.0 0.0 0.0 0.0 0.0 0.0 0.0 0.0 0.0 0.0 0.0 0.0 0.0 0.0 0.0 0.0 0.0 0.0 0.0 0.0 0.0 0.0 0.0 0.0 0.0 0.0 0.0
0.0 0.0 2.5 0.0 0.0 0.0 0.0 0.0 0.0 1.1 0.7 0.7 1.3 2.3 0.0 0.0 0.0 0.0 0.0 0.0 0.0 0.0 0.0 0.0 0.0 0.0 0.0 0.0 0.0 0.0 0.0 0.0 0.0 0.0 0.0 0.0 0.0 0.0 0.0 0.0 0.0 0.0 0.0 0.0
0.0 0.8 6.8 1.9 0.0 0.0 0.0 0.0 0.0 0.0 0.8 4.8 8.2 2.4 0.0 0.0 0.0 0.0 0.0 0.0 0.0 0.0 0.0 0.0 0.0 0.0 0.0 0.0 0.0 0.0 0.0 0.0 0.0 0.0 0.0 0.0 0.0 0.0 0.0 0.0 0.0 0.0 0.0 0.0
nan 0.4 1.2 2.3 0.2 0.0 0.4 0.1 0.1 0.5 6.4 2.6 2.3 0.8 0.0 0.0 0.0 0.0 0.0 0.0 0.0 0.0 0.0 0.0 0.0 0.0 0.0 0.0 0.0 0.0 0.0 0.0 0.0 0.0 0.0 0.0 0.0 0.0 0.0 0.0 0.0 0.0 0.0 0.0
0.0 3.5 0.1 0.1 0.0 0.1 0.3 0.3 0.0 0.0 0.1 1.9 0.2 0.3 0.0 0.0 0.1 0.0 0.0 0.0 0.0 0.0 0.0 0.0 0.0 0.0 0.0 0.0 0.0 0.0 0.0 0.0 0.0 0.0 0.0 0.0 0.0 0.0 0.1 0.3 0.4 0.4 0.3 0.0
0.1 4.6 0.7 3.6 0.1 0.1 0.5 0.1 0.1 0.1 0.1 0.1 0.0 0.0 0.0 0.0 0.0 0.0 0.0 0.0 0.0 0.0 0.0 0.0 0.0 0.0 0.0 0.0 0.0 0.0 0.0 0.0 0.0 0.0 0.0 0.0 0.7 1.1 1.3 1.1 0.8 0.5 0.4 0.4
0.4 2.5 8.6 14.0 0.6 0.6 7.0 0.9 0.0 0.0 0.0 0.0 0.3 0.5 0.8 0.4 0.1 0.2 0.1 0.1 0.0 0.0 0.0 0.0 0.0 0.0 0.0 0.0 0.0 0.0 0.0 0.2 1.1 1.7 2.5 2.2 1.7 1.8 1.4 1.0 0.8 0.6 0.6 0.6
0.7 3.9 7.4 17.8 9.3 24.1 2.0 0.0 0.0 0.1 0.4 0.7 1.1 1.9 0.9 0.3 0.0 0.0 0.0 0.0 0.0 0.0 0.0 0.0 0.0 0.0 0.0 0.0 0.0 0.0 0.3 0.7 1.0 2.0 3.1 2.3 1.4 2.6 1.4 1.2 1.2 0.7 0.6 0.7
0.0 0.0 10.2 19.0 17.8 0.9 0.1 0.0 0.0 0.1 0.2 0.5 1.0 0.5 0.1 0.0 0.0 0.0 0.0 0.0 0.0 0.0 0.0 0.0 0.0 0.0 0.0 0.0 0.0 0.4 0.5 0.5 0.6 0.7 1.2 1.3 2.0 3.0 1.6 3.5 1.6 1.2 2.0 1.3
0.0 0.0 0.5 12.2 20.0 15.3 0.2 0.0 0.0 0.0 2.4 1.6 3.0 1.9 1.0 0.2 0.6 0.1 0.0 0.0 0.0 0.0 0.0 0.0 0.0 0.0 0.0 0.0 0.0 0.6 0.6 1.0 0.9 0.7 0.7 0.9 1.9 4.3 3.4 1.9 2.9 3.3 3.1 2.9
5.8 10.2 12.9 13.8 18.0 5.9 0.9 0.5 0.0 6.6 5.3 1.6 1.2 1.2 0.8 0.9 0.3 0.1 0.0 0.0 0.0 0.0 0.1 0.0 0.0 0.0 0.0 0.3 0.7 0.7 0.7 1.0 1.2 1.4 1.5 1.7 2.0 4.5 2.8 3.3 2.7 3.9 4.4 2.3
1.3 8.7 19.3 13.0 13.3 15.8 0.1 0.1 1.2 1.2 0.3 0.6 0.2 0.0 0.1 0.0 0.0 0.0 0.0 0.0 0.0 0.0 0.0 0.0 0.0 0.0 0.0 0.8 1.2 1.1 0.8 1.1 1.7 2.2 2.4 3.0 5.0 4.6 4.6 8.3 5.1 7.0 6.1 5.9
5.0 1.6 8.6 3.6 4.6 0.1 0.0 0.3 0.1 0.1 1.0 0.4 0.2 0.1 0.0 0.1 0.0 0.0 0.0 0.0 0.0 0.0 0.0 0.0 1.5 1.4 0.0 1.8 2.0 2.6 1.7 2.0 2.7 5.2 7.3 7.2 6.4 6.4 6.4 9.3 6.0 8.4 7.0 8.3
0.4 0.0 1.5 2.2 0.0 0.0 0.0 0.0 0.0 0.0 0.1 0.1 0.1 0.1 0.1 0.1 0.0 0.0 0.0 0.1 0.0 0.9 1.4 1.6 2.3 2.7 2.5 2.3 2.8 3.3 2.9 3.1 10.0 10.0 5.4 4.4 5.6 4.2 5.6 7.6 8.6 12.2 9.5 7.6
0.4 0.3 0.9 1.3 0.0 0.0 0.0 0.0 0.0 0.0 0.0 0.0 0.0 0.0 0.0 0.0 0.0 0.0 0.8 1.1 0.7 1.2 1.4 2.0 2.6 2.6 2.4 2.0 2.5 3.7 3.7 4.6 6.8 7.1 4.0 5.6 7.8 8.7 5.3 4.9 8.1 6.8 4.4 9.6
0.0 0.0 0.2 2.1 0.0 0.0 0.0 0.0 0.0 0.0 0.0 0.2 0.2 0.4 0.4 0.5 0.5 0.5 0.9 0.6 0.8 1.2 1.5 2.0 2.4 2.2 2.7 3.4 3.8 5.0 6.7 6.5 6.6 4.1 6.0 5.8 5.8 5.0 4.5 4.6 4.6 nan nan nan

GFSCGP_prec_sndepth_033.txt.gz
Snowfall_Accumulation
0.0 0.0 0.0 0.0 0.0 0.0 0.0 0.0 0.0 0.0 0.0 0.0 0.0 0.0 0.0 0.0 0.0 0.0 0.0 0.0 0.0 0.0 0.0 0.0 0.0 0.0 0.0 0.0 0.0 0.0 0.0 0.0 0.0 0.0 0.0 0.0 0.0 0.0 0.0 0.0 0.0 0.0 0.0 0.0
0.0 0.0 0.0 0.0 0.0 0.0 0.0 0.0 0.0 0.0 0.0 0.0 0.0 0.0 0.0 0.0 0.0 0.0 0.0 0.0 0.0 0.0 0.0 0.0 0.0 0.0 0.0 0.0 0.0 0.0 0.0 0.0 0.0 0.0 0.0 0.0 0.0 0.0 0.0 0.0 0.0 0.0 0.0 0.0
0.0 0.0 0.0 0.0 0.0 0.0 0.0 0.0 0.0 0.0 0.0 0.0 0.0 0.0 0.0 0.0 0.0 0.0 0.0 0.0 0.0 0.0 0.0 0.0 0.0 0.0 0.0 0.0 0.0 0.0 0.0 0.0 0.0 0.0 0.0 0.0 0.0 0.0 0.0 0.0 0.0 0.0 0.0 0.0
0.0 0.0 0.0 0.0 0.0 0.0 0.0 0.0 0.0 0.0 0.0 0.0 0.0 0.0 0.0 0.0 0.0 0.0 0.0 0.0 0.0 0.0 0.0 0.0 0.0 0.0 0.0 0.0 0.0 0.0 0.0 0.0 0.0 0.0 0.0 0.0 0.0 0.0 0.0 0.0 0.0 0.0 0.0 0.0
0.0 0.0 0.0 0.0 0.0 0.0 0.0 0.0 0.0 0.0 0.0 0.0 0.0 0.0 0.0 0.0 0.0 0.0 0.0 0.0 0.0 0.0 0.0 0.0 0.0 0.0 0.0 0.0 0.0 0.0 0.0 0.0 0.0 0.0 0.0 0.0 0.0 0.0 0.0 0.0 0.0 0.0 0.0 0.0
0.0 0.0 0.0 0.0 0.0 0.0 0.0 0.0 0.0 0.0 0.0 0.3 0.0 0.0 0.0 0.0 0.0 0.0 0.0 0.0 0.0 0.0 0.0 0.0 0.0 0.0 0.0 0.0 0.0 0.0 0.0 0.0 0.0 0.0 0.0 0.0 0.0 0.0 0.0 0.0 0.0 0.0 0.0 0.0
0.0 0.0 0.0 0.0 0.0 0.0 0.0 0.0 0.4 0.7 2.0 1.0 0.0 0.2 0.0 0.0 0.0 0.0 0.0 0.0 0.0 0.0 0.0 0.0 0.0 0.0 0.0 0.0 0.0 0.0 0.0 0.0 0.0 0.0 0.0 0.0 0.0 0.0 0.0 0.0 0.0 0.0 0.0 0.0
0.0 0.0 0.0 0.0 0.0 0.0 0.0 0.0 0.7 3.2 1.7 0.7 0.3 0.3 0.0 0.0 0.0 0.0 0.0 0.0 0.0 0.0 0.0 0.0 0.0 0.0 0.0 0.0 0.0 0.0 0.0 0.0 0.0 0.0 0.0 0.0 0.0 0.0 0.0 0.0 0.0 0.0 0.0 0.0
0.0 0.0 0.0 0.0 0.0 0.0 0.0 0.0 0.0 0.4 3.3 2.6 0.0 0.0 0.0 0.0 0.0 0.0 0.0 0.0 0.0 0.0 0.0 0.0 0.0 0.0 0.0 0.0 0.0 0.0 0.0 0.0 0.0 0.0 0.0 0.0 0.0 0.0 0.0 0.0 0.0 0.0 0.0 0.0
0.0 0.1 0.0 0.0 0.0 0.0 0.0 0.0 0.3 0.4 5.9 4.5 0.0 0.0 0.0 0.0 0.0 0.0 0.0 0.0 0.0 0.0 0.0 0.0 0.0 0.0 0.0 0.0 0.0 0.0 0.0 0.0 0.0 0.0 0.0 0.0 0.0 0.0 0.0 0.0 0.0 0.0 0.0 0.0
0.0 0.1 0.0 0.0 0.0 0.0 0.0 0.0 0.0 0.0 0.5 4.4 2.8 0.1 0.0 0.0 0.0 0.0 0.0 0.0 0.0 0.0 0.0 0.0 0.0 0.0 0.0 0.0 0.0 0.0 0.0 0.0 0.0 0.0 0.0 0.0 0.0 0.0 0.0 0.0 0.0 0.0 0.0 0.0
0.0 0.0 2.6 0.0 0.0 0.0 0.0 0.0 0.0 1.0 0.7 0.7 1.3 2.2 0.0 0.0 0.0 0.0 0.0 0.0 0.0 0.0 0.0 0.0 0.0 0.0 0.0 0.0 0.0 0.0 0.0 0.0 0.0 0.0 0.0 0.0 0.0 0.0 0.0 0.0 0.0 0.0 0.0 0.0
0.0 0.8 6.8 1.9 0.0 0.0 0.0 0.0 0.0 0.0 0.8 4.8 8.2 2.4 0.0 0.0 0.0 0.0 0.0 0.0 0.0 0.0 0.0 0.0 0.0 0.0 0.0 0.0 0.0 0.0 0.0 0.0 0.0 0.0 0.0 0.0 0.0 0.0 0.0 0.0 0.0 0.0 0.0 0.0
nan 0.4 1.2 2.3 0.2 0.0 0.4 0.1 0.1 0.5 6.4 2.6 2.3 0.8 0.0 0.0 0.0 0.0 0.0 0.0 0.0 0.0 0.0 0.0 0.0 0.0 0.0 0.0 0.0 0.0 0.0 0.0 0.0 0.0 0.0 0.0 0.0 0.0 0.0 0.0 0.0 0.0 0.0 0.0
0.0 3.5 0.1 0.1 0.0 0.1 0.3 0.3 0.0 0.0 0.1 1.9 0.2 0.3 0.0 0.0 0.1 0.0 0.0 0.0 0.0 0.0 0.0 0.0 0.0 0.0 0.0 0.0 0.0 0.0 0.0 0.0 0.0 0.0 0.0 0.0 0.0 0.0 0.1 0.3 0.4 0.4 0.3 0.0
0.0 4.6 0.7 3.6 0.1 0.1 0.6 0.1 0.1 0.1 0.1 0.1 0.0 0.0 0.0 0.0 0.0 0.0 0.0 0.0 0.0 0.0 0.0 0.0 0.0 0.0 0.0 0.0 0.0 0.0 0.0 0.0 0.0 0.0 0.0 0.0 0.7 1.1 1.3 1.1 0.8 0.5 0.4 0.4
0.4 2.5 8.6 14.0 0.6 0.5 7.0 0.8 0.0 0.0 0.0 0.0 0.3 0.5 0.8 0.4 0.1 0.2 0.1 0.1 0.0 0.0 0.0 0.0 0.0 0.0 0.0 0.0 0.0 0.0 0.0 0.2 1.1 1.7 2.5 2.2 1.7 1.8 1.4 1.0 0.8 0.6 0.5 0.5
0.7 3.9 7.6 18.0 9.3 24.5 1.9 0.0 0.0 0.1 0.4 0.7 1.1 1.9 0.9 0.3 0.0 0.0 0.0 0.0 0.0 0.0 0.0 0.0 0.0 0.0 0.0 0.0 0.0 0.0 0.3 0.7 1.0 2.0 3.1 2.3 1.4 2.6 1.4 1.2 1.1 0.7 0.5 0.7
0.0 0.0 10.2 19.1 17.8 0.9 0.1 0.0 0.0 0.1 0.2 0.5 0.9 0.5 0.1 0.0 0.0 0.0 0.0 0.0 0.0 0.0 0.0 0.0 0.0 0.0 0.0 0.0 0.0 0.4 0.5 0.5 0.6 0.7 1.2 1.3 2.0 2.9 1.5 3.5 1.6 1.2 2.0 1.2
0.0 0.0 0.6 12.5 20.0 15.3 0.2 0.0 0.0 0.0 2.4 1.6 3.0 1.9 1.0 0.2 0.6 0.1 0.0 0.0 0.0 0.0 0.0 0.0 0.0 0.0 0.0 0.0 0.0 0.6 0.6 1.0 0.9 0.7 0.7 0.9 1.9 4.3 3.4 1.9 2.9 3.2 3.1 2.8
5.9 10.3 13.1 13.8 18.0 6.0 0.9 0.5 0.0 6.6 5.3 1.6 1.2 1.2 0.8 0.9 0.2 0.1 0.0 0.0 0.0 0.0 0.0 0.0 0.0 0.0 0.0 0.3 0.7 0.7 0.7 1.0 1.2 1.4 1.4 1.7 1.9 4.5 2.8 3.3 2.7 3.9 4.3 2.2
1.3 8.7 19.3 13.1 13.7 16.0 0.1 0.1 1.2 1.1 0.3 0.6 0.2 0.0 0.1 0.0 0.0 0.0 0.0 0.0 0.0 0.0 0.0 0.0 0.0 0.0 0.0 0.8 1.2 1.1 0.8 1.0 1.7 2.2 2.4 3.0 5.0 4.6 4.6 8.3 5.1 6.9 6.1 5.9
5.0 1.6 8.6 3.5 4.6 0.1 0.0 0.3 0.0 0.1 1.0 0.4 0.2 0.1 0.0 0.1 0.0 0.0 0.0 0.0 0.0 0.0 0.0 0.0 1.5 1.3 0.0 1.8 2.0 2.5 1.7 2.0 2.7 5.2 7.3 7.2 6.4 6.4 6.4 9.3 6.0 8.4 7.0 8.3
0.4 0.0 1.5 2.2 0.0 0.0 0.0 0.0 0.0 0.0 0.1 0.1 0.1 0.1 0.1 0.1 0.0 0.0 0.0 0.1 0.0 0.9 1.4 1.6 2.2 2.7 2.5 2.3 2.8 3.3 2.9 3.1 10.0 10.0 5.4 4.4 5.6 4.1 5.6 7.5 8.6 12.1 9.4 7.6
0.4 0.3 0.9 1.3 0.0 0.0 0.0 0.0 0.0 0.0 0.0 0.0 0.0 0.0 0.0 0.0 0.0 0.0 0.8 1.0 0.7 1.2 1.4 2.0 2.6 2.6 2.4 2.0 2.5 3.7 3.7 4.6 6.8 7.1 4.0 5.6 7.8 8.7 5.3 4.9 8.0 6.8 4.4 9.7
0.0 0.0 0.2 2.1 0.0 0.0 0.0 0.0 0.0 0.0 0.0 0.2 0.2 0.4 0.4 0.5 0.4 0.5 0.8 0.6 0.8 1.2 1.5 2.0 2.4 2.2 2.7 3.4 3.8 5.0 6.7 6.5 6.5 4.1 5.9 5.8 5.8 5.0 4.5 4.6 4.6 nan nan nan

GFSCGP_prec_sndepth_036.txt.gz
Snowfall_Accumulation
0.0 0.0 0.0 0.0 0.0 0.0 0.0 0.0 0.0 0.0 0.0 0.0 0.0 0.0 0.0 0.0 0.0 0.0 0.0 0.0 0.0 0.0 0.0 0.0 0.0 0.0 0.0 0.0 0.0 0.0 0.0 0.0 0.0 0.0 0.0 0.0 0.0 0.0 0.0 0.0 0.0 0.0 0.0 0.0
0.0 0.0 0.0 0.0 0.0 0.0 0.0 0.0 0.0 0.0 0.0 0.0 0.0 0.0 0.0 0.0 0.0 0.0 0.0 0.0 0.0 0.0 0.0 0.0 0.0 0.0 0.0 0.0 0.0 0.0 0.0 0.0 0.0 0.0 0.0 0.0 0.0 0.0 0.0 0.0 0.0 0.0 0.0 0.0
0.0 0.0 0.0 0.0 0.0 0.0 0.0 0.0 0.0 0.0 0.0 0.0 0.0 0.0 0.0 0.0 0.0 0.0 0.0 0.0 0.0 0.0 0.0 0.0 0.0 0.0 0.0 0.0 0.0 0.0 0.0 0.0 0.0 0.0 0.0 0.0 0.0 0.0 0.0 0.0 0.0 0.0 0.0 0.0
0.0 0.0 0.0 0.0 0.0 0.0 0.0 0.0 0.0 0.0 0.0 0.0 0.0 0.0 0.0 0.0 0.0 0.0 0.0 0.0 0.0 0.0 0.0 0.0 0.0 0.0 0.0 0.0 0.0 0.0 0.0 0.0 0.0 0.0 0.0 0.0 0.0 0.0 0.0 0.0 0.0 0.0 0.0 0.0
0.0 0.0 0.0 0.0 0.0 0.0 0.0 0.0 0.0 0.0 0.0 0.0 0.0 0.0 0.0 0.0 0.0 0.0 0.0 0.0 0.0 0.0 0.0 0.0 0.0 0.0 0.0 0.0 0.0 0.0 0.0 0.0 0.0 0.0 0.0 0.0 0.0 0.0 0.0 0.0 0.0 0.0 0.0 0.0
0.0 0.0 0.0 0.0 0.0 0.0 0.0 0.0 0.0 0.0 0.0 0.3 0.0 0.0 0.0 0.0 0.0 0.0 0.0 0.0 0.0 0.0 0.0 0.0 0.0 0.0 0.0 0.0 0.0 0.0 0.0 0.0 0.0 0.0 0.0 0.0 0.0 0.0 0.0 0.0 0.0 0.0 0.0 0.0
0.0 0.0 0.0 0.0 0.0 0.0 0.0 0.0 0.4 0.7 2.0 1.0 0.0 0.2 0.0 0.0 0.0 0.0 0.0 0.0 0.0 0.0 0.0 0.0 0.0 0.0 0.0 0.0 0.0 0.0 0.0 0.0 0.0 0.0 0.0 0.0 0.0 0.0 0.0 0.0 0.0 0.0 0.0 0.0
0.0 0.0 0.0 0.0 0.0 0.0 0.0 0.0 0.7 3.2 1.7 0.7 0.3 0.3 0.0 0.0 0.0 0.0 0.0 0.0 0.0 0.0 0.0 0.0 0.0 0.0 0.0 0.0 0.0 0.0 0.0 0.0 0.0 0.0 0.0 0.0 0.0 0.0 0.0 0.0 0.0 0.0 0.0 0.0
0.0 0.0 0.0 0.0 0.0 0.0 0.0 0.0 0.0 0.4 3.4 2.6 0.0 0.0 0.0 0.0 0.0 0.0 0.0 0.0 0.0 0.0 0.0 0.0 0.0 0.0 0.0 0.0 0.0 0.0 0.0 0.0 0.0 0.0 0.0 0.0 0.0 0.0 0.0 0.0 0.0 0.0 0.0 0.0
0.0 0.1 0.0 0.0 0.0 0.0 0.0 0.0 0.3 0.4 5.9 4.5 0.0 0.0 0.0 0.0 0.0 0.0 0.0 0.0 0.0 0.0 0.0 0.0 0.0 0.0 0.0 0.0 0.0 0.0 0.0 0.0 0.0 0.0 0.0 0.0 0.0 0.0 0.0 0.0 0.0 0.0 0.0 0.0
0.0 0.1 0.0 0.0 0.0 0.0 0.0 0.0 0.0 0.0 0.5 4.4 2.8 0.1 0.0 0.0 0.0 0.0 0.0 0.0 0.0 0.0 0.0 0.0 0.0 0.0 0.0 0.0 0.0 0.0 0.0 0.0 0.0 0.0 0.0 0.0 0.0 0.0 0.0 0.0 0.0 0.0 0.0 0.0
0.0 0.0 2.6 0.0 0.0 0.0 0.0 0.0 0.0 1.0 0.7 0.7 1.3 2.2 0.0 0.0 0.0 0.0 0.0 0.0 0.0 0.0 0.0 0.0 0.0 0.0 0.0 0.0 0.0 0.0 0.0 0.0 0.0 0.0 0.0 0.0 0.0 0.0 0.0 0.0 0.0 0.0 0.0 0.0
0.0 0.8 6.8 1.9 0.0 0.0 0.0 0.0 0.0 0.0 0.8 4.8 8.2 2.4 0.0 0.0 0.0 0.0 0.0 0.0 0.0 0.0 0.0 0.0 0.0 0.0 0.0 0.0 0.0 0.0 0.0 0.0 0.0 0.0 0.0 0.0 0.0 0.0 0.0 0.0 0.0 0.0 0.0 0.0
nan 0.4 1.2 2.3 0.2 0.0 0.4 0.1 0.1 0.5 6.4 2.6 2.3 0.8 0.0 0.0 0.0 0.0 0.0 0.0 0.0 0.0 0.0 0.0 0.0 0.0 0.0 0.0 0.0 0.0 0.0 0.0 0.0 0.0 0.0 0.0 0.0 0.0 0.0 0.0 0.0 0.0 0.0 0.0
0.0 3.5 0.1 0.1 0.0 0.1 0.3 0.3 0.0 0.0 0.1 1.9 0.2 0.3 0.0 0.0 0.1 0.0 0.0 0.0 0.0 0.0 0.0 0.0 0.0 0.0 0.0 0.0 0.0 0.0 0.0 0.0 0.0 0.0 0.0 0.0 0.0 0.0 0.1 0.3 0.4 0.4 0.3 0.0
0.0 4.6 0.7 3.6 0.1 0.1 0.6 0.1 0.1 0.1 0.1 0.1 0.0 0.0 0.0 0.0 0.0 0.0 0.0 0.0 0.0 0.0 0.0 0.0 0.0 0.0 0.0 0.0 0.0 0.0 0.0 0.0 0.0 0.0 0.0 0.0 0.7 1.1 1.3 1.1 0.8 0.5 0.4 0.4
0.4 2.5 8.5 14.0 0.6 0.5 7.1 0.8 0.0 0.0 0.0 0.0 0.3 0.5 0.8 0.4 0.1 0.2 0.1 0.1 0.0 0.0 0.0 0.0 0.0 0.0 0.0 0.0 0.0 0.0 0.0 0.2 1.1 1.6 2.5 2.2 1.7 1.8 1.4 1.0 0.8 0.6 0.5 0.5
0.7 4.0 7.6 18.2 9.3 25.1 1.9 0.0 0.0 0.1 0.4 0.7 1.1 1.9 0.9 0.3 0.0 0.0 0.0 0.0 0.0 0.0 0.0 0.0 0.0 0.0 0.0 0.0 0.0 0.0 0.3 0.7 1.0 2.0 3.1 2.3 1.4 2.6 1.4 1.2 1.1 0.7 0.5 0.7
0.0 0.0 10.3 19.7 18.0 0.9 0.1 0.0 0.0 0.1 0.2 0.5 0.9 0.5 0.1 0.0 0.0 0.0 0.0 0.0 0.0 0.0 0.0 0.0 0.0 0.0 0.0 0.0 0.0 0.4 0.5 0.5 0.6 0.7 1.2 1.3 2.0 2.9 1.5 3.5 1.6 1.2 1.9 1.2
0.0 0.0 0.7 13.1 20.3 15.3 0.2 0.0 0.0 0.0 2.3 1.6 3.0 1.9 1.0 0.2 0.6 0.1 0.0 0.0 0.0 0.0 0.0 0.0 0.0 0.0 0.0 0.0 0.0 0.5 0.6 1.0 0.9 0.7 0.7 0.9 1.9 4.3 3.4 1.9 2.9 3.2 3.1 2.7
5.9 10.7 13.4 13.9 18.2 6.0 0.9 0.5 0.0 6.6 5.2 1.6 1.2 1.2 0.8 0.9 0.2 0.1 0.0 0.0 0.0 0.0 0.0 0.0 0.0 0.0 0.0 0.3 0.6 0.7 0.7 0.9 1.2 1.4 1.4 1.7 1.9 4.5 2.8 3.3 2.7 3.9 4.3 2.2
1.3 8.7 19.3 13.2 13.9 16.1 0.1 0.1 1.2 1.1 0.3 0.6 0.2 0.0 0.1 0.0 0.0 0.0 0.0 0.0 0.0 0.0 0.0 0.0 0.0 0.0 0.0 0.8 1.1 1.1 0.8 1.0 1.7 2.2 2.4 3.0 5.0 4.5 4.6 8.3 5.1 6.9 6.1 5.9
5.0 1.5 8.5 3.5 4.5 0.1 0.0 0.3 0.0 0.1 1.0 0.4 0.2 0.1 0.0 0.1 0.0 0.0 0.0 0.0 0.0 0.0 0.0 0.0 1.5 1.3 0.0 1.8 2.0 2.5 1.7 2.0 2.7 5.2 7.3 7.2 6.4 6.4 6.4 9.3 6.0 8.4 7.0 8.3
0.4 0.0 1.4 2.1 0.0 0.0 0.0 0.0 0.0 0.0 0.1 0.1 0.1 0.1 0.1 0.1 0.0 0.0 0.0 0.1 0.0 0.9 1.3 1.6 2.3 2.7 2.5 2.3 2.8 3.3 2.8 3.1 10.0 10.0 5.4 4.3 5.6 4.1 5.6 7.5 8.5 12.1 9.4 7.6
0.4 0.3 0.9 1.3 0.0 0.0 0.0 0.0 0.0 0.0 0.0 0.0 0.0 0.0 0.0 0.0 0.0 0.0 0.8 1.0 0.7 1.2 1.4 2.0 2.6 2.6 2.4 2.0 2.4 3.7 3.7 4.6 6.8 7.1 4.0 5.5 7.7 8.7 5.3 4.9 8.0 6.8 4.4 9.7
0.0 0.0 0.2 2.1 0.0 0.0 0.0 0.0 0.0 0.0 0.0 0.2 0.2 0.4 0.4 0.4 0.4 0.5 0.8 0.6 0.8 1.2 1.5 2.0 2.4 2.2 2.7 3.4 3.8 5.0 6.7 6.5 6.5 4.1 5.9 5.8 5.7 5.0 4.5 4.6 4.6 nan nan nan

GFSCGP_prec_sndepth_039.txt.gz
Snowfall_Accumulation
0.0 0.0 0.0 0.0 0.0 0.0 0.0 0.0 0.0 0.0 0.0 0.0 0.0 0.0 0.0 0.0 0.0 0.0 0.0 0.0 0.0 0.0 0.0 0.0 0.0 0.0 0.0 0.0 0.0 0.0 0.0 0.0 0.0 0.0 0.0 0.0 0.0 0.0 0.0 0.0 0.0 0.0 0.0 0.0
0.0 0.0 0.0 0.0 0.0 0.0 0.0 0.0 0.0 0.0 0.0 0.0 0.0 0.0 0.0 0.0 0.0 0.0 0.0 0.0 0.0 0.0 0.0 0.0 0.0 0.0 0.0 0.0 0.0 0.0 0.0 0.0 0.0 0.0 0.0 0.0 0.0 0.0 0.0 0.0 0.0 0.0 0.0 0.0
0.0 0.0 0.0 0.0 0.0 0.0 0.0 0.0 0.0 0.0 0.0 0.0 0.0 0.0 0.0 0.0 0.0 0.0 0.0 0.0 0.0 0.0 0.0 0.0 0.0 0.0 0.0 0.0 0.0 0.0 0.0 0.0 0.0 0.0 0.0 0.0 0.0 0.0 0.0 0.0 0.0 0.0 0.0 0.0
0.0 0.0 0.0 0.0 0.0 0.0 0.0 0.0 0.0 0.0 0.0 0.0 0.0 0.0 0.0 0.0 0.0 0.0 0.0 0.0 0.0 0.0 0.0 0.0 0.0 0.0 0.0 0.0 0.0 0.0 0.0 0.0 0.0 0.0 0.0 0.0 0.0 0.0 0.0 0.0 0.0 0.0 0.0 0.0
0.0 0.0 0.0 0.0 0.0 0.0 0.0 0.0 0.0 0.0 0.0 0.0 0.0 0.0 0.0 0.0 0.0 0.0 0.0 0.0 0.0 0.0 0.0 0.0 0.0 0.0 0.0 0.0 0.0 0.0 0.0 0.0 0.0 0.0 0.0 0.0 0.0 0.0 0.0 0.0 0.0 0.0 0.0 0.0
0.0 0.0 0.0 0.0 0.0 0.0 0.0 0.0 0.0 0.0 0.0 0.3 0.0 0.0 0.0 0.0 0.0 0.0 0.0 0.0 0.0 0.0 0.0 0.0 0.0 0.0 0.0 0.0 0.0 0.0 0.0 0.0 0.0 0.0 0.0 0.0 0.0 0.0 0.0 0.0 0.0 0.0 0.0 0.0
0.0 0.0 0.0 0.0 0.0 0.0 0.0 0.0 0.4 0.7 2.0 1.0 0.0 0.2 0.0 0.0 0.0 0.0 0.0 0.0 0.0 0.0 0.0 0.0 0.0 0.0 0.0 0.0 0.0 0.0 0.0 0.0 0.0 0.0 0.0 0.0 0.0 0.0 0.0 0.0 0.0 0.0 0.0 0.0
0.0 0.0 0.0 0.0 0.0 0.0 0.0 0.0 0.7 3.2 1.7 0.7 0.3 0.3 0.0 0.0 0.0 0.0 0.0 0.0 0.0 0.0 0.0 0.0 0.0 0.0 0.0 0.0 0.0 0.0 0.0 0.0 0.0 0.0 0.0 0.0 0.0 0.0 0.0 0.0 0.0 0.0 0.0 0.0
0.0 0.0 0.0 0.0 0.0 0.0 0.0 0.0 0.0 0.4 3.4 2.6 0.0 0.0 0.0 0.0 0.0 0.0 0.0 0.0 0.0 0.0 0.0 0.0 0.0 0.0 0.0 0.0 0.0 0.0 0.0 0.0 0.0 0.0 0.0 0.0 0.0 0.0 0.0 0.0 0.0 0.0 0.0 0.0
0.0 0.1 0.0 0.0 0.0 0.0 0.0 0.0 0.3 0.4 5.9 4.5 0.0 0.0 0.0 0.0 0.0 0.0 0.0 0.0 0.0 0.0 0.0 0.0 0.0 0.0 0.0 0.0 0.0 0.0 0.0 0.0 0.0 0.0 0.0 0.0 0.0 0.0 0.0 0.0 0.0 0.0 0.0 0.0
0.0 0.1 0.0 0.0 0.0 0.0 0.0 0.0 0.0 0.0 0.5 4.4 2.8 0.1 0.0 0.0 0.0 0.0 0.0 0.0 0.0 0.0 0.0 0.0 0.0 0.0 0.0 0.0 0.0 0.0 0.0 0.0 0.0 0.0 0.0 0.0 0.0 0.0 0.0 0.0 0.0 0.0 0.0 0.0
0.0 0.0 2.6 0.0 0.0 0.0 0.0 0.0 0.0 1.0 0.7 0.7 1.3 2.2 0.0 0.0 0.0 0.0 0.0 0.0 0.0 0.0 0.0 0.0 0.0 0.0 0.0 0.0 0.0 0.0 0.0 0.0 0.0 0.0 0.0 0.0 0.0 0.0 0.0 0.0 0.0 0.0 0.0 0.0
0.0 0.8 6.8 1.9 0.0 0.0 0.0 0.0 0.0 0.0 0.8 4.8 8.2 2.4 0.0 0.0 0.0 0.0 0.0 0.0 0.0 0.0 0.0 0.0 0.0 0.0 0.0 0.0 0.0 0.0 0.0 0.0 0.0 0.0 0.0 0.0 0.0 0.0 0.0 0.0 0.0 0.0 0.0 0.0
nan 0.3 1.2 2.2 0.2 0.0 0.4 0.1 0.1 0.5 6.4 2.6 2.2 0.8 0.0 0.0 0.0 0.0 0.0 0.0 0.0 0.0 0.0 0.0 0.0 0.0 0.0 0.0 0.0 0.0 0.0 0.0 0.0 0.0 0.0 0.0 0.0 0.0 0.0 0.0 0.0 0.0 0.0 0.0
0.0 3.4 0.1 0.1 0.0 0.1 0.3 0.3 0.0 0.0 0.1 1.9 0.2 0.3 0.0 0.0 0.1 0.0 0.0 0.0 0.0 0.0 0.0 0.0 0.0 0.0 0.0 0.0 0.0 0.0 0.0 0.0 0.0 0.0 0.0 0.0 0.0 0.0 0.1 0.3 0.4 0.3 0.3 0.0
0.0 5.1 0.7 3.6 0.1 0.1 0.6 0.1 0.1 0.1 0.1 0.1 0.0 0.0 0.0 0.0 0.0 0.0 0.0 0.0 0.0 0.0 0.0 0.0 0.0 0.0 0.0 0.0 0.0 0.0 0.0 0.0 0.0 0.0 0.0 0.0 0.7 1.1 1.3 1.1 0.8 0.5 0.4 0.4
0.5 3.5 9.1 14.7 0.7 0.6 7.3 0.8 0.0 0.0 0.0 0.0 0.3 0.4 0.8 0.4 0.1 0.2 0.1 0.1 0.0 0.0 0.0 0.0 0.0 0.0 0.0 0.0 0.0 0.0 0.0 0.2 1.1 1.6 2.5 2.2 1.7 1.7 1.4 0.9 0.8 0.6 0.5 0.5
2.2 5.0 8.2 19.6 9.7 26.4 2.0 0.0 0.0 0.1 0.4 0.7 1.1 1.9 0.9 0.3 0.0 0.0 0.0 0.0 0.0 0.0 0.0 0.0 0.0 0.0 0.0 0.0 0.0 0.0 0.3 0.6 1.0 2.0 3.1 2.3 1.4 2.5 1.3 1.1 1.1 0.7 0.5 0.6
0.3 0.4 11.5 21.1 18.6 0.9 0.1 0.0 0.0 0.1 0.2 0.5 0.9 0.5 0.1 0.0 0.0 0.0 0.0 0.0 0.0 0.0 0.0 0.0 0.0 0.0 0.0 0.0 0.0 0.4 0.5 0.5 0.6 0.7 1.2 1.3 2.0 2.9 1.5 3.5 1.6 1.2 1.9 1.2
0.3 0.3 1.2 14.8 21.4 16.1 0.2 0.0 0.0 0.0 2.3 1.6 3.0 1.9 1.0 0.1 0.6 0.1 0.0 0.0 0.0 0.0 0.0 0.0 0.0 0.0 0.0 0.0 0.0 0.5 0.6 1.0 0.9 0.7 0.7 0.9 1.9 4.3 3.4 1.9 2.9 3.2 3.1 2.7
6.2 11.6 14.8 15.3 19.4 6.7 0.9 0.5 0.0 6.5 5.2 1.6 1.2 1.2 0.8 0.9 0.2 0.1 0.0 0.0 0.0 0.0 0.0 0.0 0.0 0.0 0.0 0.3 0.6 0.7 0.7 0.9 1.2 1.4 1.4 1.7 1.9 4.5 2.8 3.3 2.7 3.9 4.3 2.2
1.4 8.7 19.5 13.7 15.0 17.0 0.1 0.1 1.2 1.1 0.3 0.6 0.2 0.0 0.1 0.0 0.0 0.0 0.0 0.0 0.0 0.0 0.0 0.0 0.0 0.0 0.0 0.8 1.1 1.1 0.8 1.0 1.7 2.2 2.4 3.0 5.0 4.5 4.6 8.3 5.1 6.9 6.1 5.9
5.0 1.5 8.5 3.5 4.5 0.1 0.0 0.3 0.1 0.1 0.9 0.4 0.1 0.1 0.0 0.1 0.0 0.0 0.0 0.0 0.0 0.0 0.0 0.0 1.5 1.3 0.0 1.8 2.0 2.5 1.7 1.9 2.7 5.2 7.3 7.2 6.4 6.4 6.4 9.3 6.0 8.4 7.0 8.2
0.4 0.0 1.4 2.1 0.0 0.0 0.0 0.0 0.0 0.0 0.1 0.1 0.1 0.1 0.1 0.1 0.0 0.0 0.0 0.1 0.0 0.9 1.3 1.6 2.3 2.7 2.5 2.3 2.8 3.3 2.8 3.1 9.9 10.0 5.4 4.3 5.6 4.1 5.6 7.5 8.5 12.1 9.4 7.6
0.4 0.3 0.9 1.3 0.0 0.0 0.0 0.0 0.0 0.0 0.0 0.0 0.0 0.0 0.0 0.0 0.0 0.0 0.8 1.0 0.7 1.2 1.4 2.0 2.6 2.6 2.4 2.0 2.4 3.7 3.7 4.6 6.8 7.1 3.9 5.5 7.7 8.7 5.3 4.9 8.0 6.7 4.4 9.7
0.0 0.0 0.2 2.1 0.0 0.0 0.0 0.0 0.0 0.0 0.0 0.2 0.2 0.4 0.4 0.4 0.4 0.5 0.8 0.6 0.8 1.2 1.5 2.0 2.4 2.2 2.7 3.4 3.8 5.0 6.7 6.4 6.5 4.1 5.9 5.8 5.7 5.0 4.5 4.6 4.6 nan nan nan

GFSCGP_prec_sndepth_042.txt.gz
Snowfall_Accumulation
0.0 0.0 0.0 0.0 0.0 0.0 0.0 0.0 0.0 0.0 0.0 0.0 0.0 0.0 0.0 0.0 0.0 0.0 0.0 0.0 0.0 0.0 0.0 0.0 0.0 0.0 0.0 0.0 0.0 0.0 0.0 0.0 0.0 0.0 0.0 0.0 0.0 0.0 0.0 0.0 0.0 0.0 0.0 0.0
0.0 0.0 0.0 0.0 0.0 0.0 0.0 0.0 0.0 0.0 0.0 0.0 0.0 0.0 0.0 0.0 0.0 0.0 0.0 0.0 0.0 0.0 0.0 0.0 0.0 0.0 0.0 0.0 0.0 0.0 0.0 0.0 0.0 0.0 0.0 0.0 0.0 0.0 0.0 0.0 0.0 0.0 0.0 0.0
0.0 0.0 0.0 0.0 0.0 0.0 0.0 0.0 0.0 0.0 0.0 0.0 0.0 0.0 0.0 0.0 0.0 0.0 0.0 0.0 0.0 0.0 0.0 0.0 0.0 0.0 0.0 0.0 0.0 0.0 0.0 0.0 0.0 0.0 0.0 0.0 0.0 0.0 0.0 0.0 0.0 0.0 0.0 0.0
0.0 0.0 0.0 0.0 0.0 0.0 0.0 0.0 0.0 0.0 0.0 0.0 0.0 0.0 0.0 0.0 0.0 0.0 0.0 0.0 0.0 0.0 0.0 0.0 0.0 0.0 0.0 0.0 0.0 0.0 0.0 0.0 0.0 0.0 0.0 0.0 0.0 0.0 0.0 0.0 0.0 0.0 0.0 0.0
0.0 0.0 0.0 0.0 0.0 0.0 0.0 0.0 0.0 0.0 0.0 0.0 0.0 0.0 0.0 0.0 0.0 0.0 0.0 0.0 0.0 0.0 0.0 0.0 0.0 0.0 0.0 0.0 0.0 0.0 0.0 0.0 0.0 0.0 0.0 0.0 0.0 0.0 0.0 0.0 0.0 0.0 0.0 0.0
0.0 0.0 0.0 0.0 0.0 0.0 0.0 0.0 0.0 0.0 0.0 0.2 0.0 0.0 0.0 0.0 0.0 0.0 0.0 0.0 0.0 0.0 0.0 0.0 0.0 0.0 0.0 0.0 0.0 0.0 0.0 0.0 0.0 0.0 0.0 0.0 0.0 0.0 0.0 0.0 0.0 0.0 0.0 0.0
0.0 0.0 0.0 0.0 0.0 0.0 0.0 0.0 0.3 0.6 1.9 0.9 0.0 0.1 0.0 0.0 0.0 0.0 0.0 0.0 0.0 0.0 0.0 0.0 0.0 0.0 0.0 0.0 0.0 0.0 0.0 0.0 0.0 0.0 0.0 0.0 0.0 0.0 0.0 0.0 0.0 0.0 0.0 0.0
0.0 0.0 0.0 0.0 0.0 0.0 0.0 0.0 0.7 2.9 1.6 0.6 0.2 0.3 0.0 0.0 0.0 0.0 0.0 0.0 0.0 0.0 0.0 0.0 0.0 0.0 0.0 0.0 0.0 0.0 0.0 0.0 0.0 0.0 0.0 0.0 0.0 0.0 0.0 0.0 0.0 0.0 0.0 0.0
0.0 0.0 0.0 0.0 0.0 0.0 0.0 0.0 0.0 0.3 3.3 2.4 0.0 0.0 0.0 0.0 0.0 0.0 0.0 0.0 0.0 0.0 0.0 0.0 0.0 0.0 0.0 0.0 0.0 0.0 0.0 0.0 0.0 0.0 0.0 0.0 0.0 0.0 0.0 0.0 0.0 0.0 0.0 0.0
0.0 0.1 0.0 0.0 0.0 0.0 0.0 0.0 0.3 0.3 5.6 4.2 0.0 0.0 0.0 0.0 0.0 0.0 0.0 0.0 0.0 0.0 0.0 0.0 0.0 0.0 0.0 0.0 0.0 0.0 0.0 0.0 0.0 0.0 0.0 0.0 0.0 0.0 0.0 0.0 0.0 0.0 0.0 0.0
0.0 0.1 0.0 0.0 0.0 0.0 0.0 0.0 0.0 0.0 0.5 4.1 2.6 0.1 0.0 0.0 0.0 0.0 0.0 0.0 0.0 0.0 0.0 0.0 0.0 0.0 0.0 0.0 0.0 0.0 0.0 0.0 0.0 0.0 0.0 0.0 0.0 0.0 0.0 0.0 0.0 0.0 0.0 0.0
0.0 0.0 2.4 0.0 0.0 0.0 0.0 0.0 0.0 0.9 0.7 0.7 1.2 2.0 0.0 0.0 0.0 0.0 0.0 0.0 0.0 0.0 0.0 0.0 0.0 0.0 0.0 0.0 0.0 0.0 0.0 0.0 0.0 0.0 0.0 0.0 0.0 0.0 0.0 0.0 0.0 0.0 0.0 0.0
0.0 0.7 6.3 1.7 0.0 0.0 0.0 0.0 0.0 0.0 0.7 4.5 7.5 2.1 0.0 0.0 0.0 0.0 0.0 0.0 0.0 0.0 0.0 0.0 0.0 0.0 0.0 0.0 0.0 0.0 0.0 0.0 0.0 0.0 0.0 0.0 0.0 0.0 0.0 0.0 0.0 0.0 0.0 0.0
nan 0.3 1.0 1.9 0.2 0.0 0.3 0.1 0.1 0.3 5.7 2.2 1.9 0.6 0.0 0.0 0.0 0.0 0.0 0.0 0.0 0.0 0.0 0.0 0.0 0.0 0.0 0.0 0.0 0.0 0.0 0.0 0.0 0.0 0.0 0.0 0.0 0.0 0.0 0.0 0.0 0.0 0.0 0.0
0.0 3.0 0.1 0.1 0.0 0.1 0.3 0.2 0.0 0.0 0.0 1.5 0.1 0.2 0.0 0.0 0.1 0.0 0.0 0.0 0.0 0.0 0.0 0.0 0.0 0.0 0.0 0.0 0.0 0.0 0.0 0.0 0.0 0.0 0.0 0.0 0.0 0.0 0.1 0.3 0.3 0.3 0.3 0.0
0.0 4.5 0.6 3.3 0.1 0.1 0.5 0.1 0.1 0.1 0.1 0.1 0.0 0.0 0.0 0.0 0.0 0.0 0.0 0.0 0.0 0.0 0.0 0.0 0.0 0.0 0.0 0.0 0.0 0.0 0.0 0.0 0.0 0.0 0.0 0.0 0.6 1.0 1.2 1.0 0.7 0.5 0.4 0.3
0.5 3.3 9.6 15.3 0.8 0.6 7.9 0.8 0.0 0.0 0.0 0.0 0.3 0.3 0.6 0.3 0.1 0.1 0.1 0.0 0.0 0.0 0.0 0.0 0.0 0.0 0.0 0.0 0.0 0.0 0.0 0.1 0.9 1.5 2.4 2.1 1.6 1.7 1.3 0.9 0.7 0.6 0.5 0.5
2.9 5.5 8.7 20.7 11.1 29.1 2.0 0.0 0.0 0.1 0.3 0.5 1.0 1.7 0.7 0.2 0.0 0.0 0.0 0.0 0.0 0.0 0.0 0.0 0.0 0.0 0.0 0.0 0.0 0.0 0.2 0.5 0.9 1.9 3.0 2.2 1.4 2.5 1.3 1.1 1.1 0.7 0.5 0.6
0.4 1.3 13.3 22.7 19.4 0.9 0.1 0.0 0.0 0.1 0.2 0.4 0.7 0.4 0.1 0.0 0.0 0.0 0.0 0.0 0.0 0.0 0.0 0.0 0.0 0.0 0.0 0.0 0.0 0.4 0.5 0.5 0.5 0.6 1.1 1.2 1.9 2.9 1.5 3.4 1.5 1.1 1.9 1.2
0.7 0.6 1.5 16.8 22.3 16.8 0.2 0.0 0.0 0.0 2.1 1.4 2.5 1.6 0.9 0.1 0.6 0.1 0.0 0.0 0.0 0.0 0.0 0.0 0.0 0.0 0.0 0.0 0.0 0.5 0.6 1.0 0.9 0.6 0.6 0.8 1.8 4.2 3.3 1.8 2.8 3.2 3.0 2.7
6.6 12.7 16.0 16.2 20.0 7.2 0.8 0.5 0.0 6.5 4.7 1.5 1.0 1.1 0.8 0.9 0.2 0.1 0.0 0.0 0.0 0.0 0.0 0.0 0.0 0.0 0.0 0.2 0.6 0.7 0.7 0.9 1.1 1.4 1.4 1.7 1.9 4.4 2.8 3.2 2.6 3.8 4.2 2.1
1.4 9.0 20.2 15.1 16.4 18.3 0.1 0.1 1.1 1.0 0.3 0.6 0.2 0.0 0.1 0.0 0.0 0.0 0.0 0.0 0.0 0.0 0.0 0.0 0.0 0.0 0.0 0.7 1.1 1.1 0.8 1.0 1.7 2.2 2.4 3.0 4.9 4.5 4.5 8.3 5.0 6.9 6.0 5.9
4.9 1.5 8.4 3.3 4.6 0.1 0.0 0.3 0.1 0.1 0.9 0.4 0.1 0.1 0.0 0.0 0.0 0.0 0.0 0.0 0.0 0.0 0.0 0.0 1.5 1.3 0.0 1.7 2.0 2.5 1.6 1.9 2.7 5.2 7.2 7.2 6.4 6.3 6.3 9.2 5.9 8.3 7.0 8.2
0.4 0.0 1.4 2.1 0.0 0.0 0.1 0.1 0.0 0.0 0.1 0.0 0.1 0.1 0.1 0.1 0.0 0.0 0.0 0.1 0.0 0.9 1.3 1.6 2.2 2.7 2.4 2.2 2.7 3.3 2.8 3.0 9.9 9.9 5.3 4.3 5.6 4.1 5.5 7.4 8.5 12.0 9.3 7.5
0.4 0.3 0.9 1.3 0.0 0.0 0.1 0.1 0.1 0.0 0.0 0.0 0.0 0.0 0.0 0.0 0.0 0.0 0.8 1.0 0.6 1.2 1.4 2.0 2.6 2.5 2.3 2.0 2.4 3.7 3.6 4.5 6.7 7.0 3.9 5.5 7.7 8.6 5.2 4.8 7.9 6.7 4.3 9.6
0.0 0.0 0.2 2.0 0.0 0.0 0.0 0.0 0.0 0.0 0.0 0.2 0.2 0.3 0.4 0.4 0.4 0.5 0.8 0.6 0.7 1.2 1.5 2.0 2.4 2.2 2.7 3.4 3.8 5.0 6.7 6.4 6.5 4.1 5.9 5.7 5.7 4.9 4.4 4.5 4.5 nan nan nan

GFSCGP_prec_sndepth_045.txt.gz
Snowfall_Accumulation
0.0 0.0 0.0 0.0 0.0 0.0 0.0 0.0 0.0 0.0 0.0 0.0 0.0 0.0 0.0 0.0 0.0 0.0 0.0 0.0 0.0 0.0 0.0 0.0 0.0 0.0 0.0 0.0 0.0 0.0 0.0 0.0 0.0 0.0 0.0 0.0 0.0 0.0 0.0 0.0 0.0 0.0 0.0 0.0
0.0 0.0 0.0 0.0 0.0 0.0 0.0 0.0 0.0 0.0 0.0 0.0 0.0 0.0 0.0 0.0 0.0 0.0 0.0 0.0 0.0 0.0 0.0 0.0 0.0 0.0 0.0 0.0 0.0 0.0 0.0 0.0 0.0 0.0 0.0 0.0 0.0 0.0 0.0 0.0 0.0 0.0 0.0 0.0
0.0 0.0 0.0 0.0 0.0 0.0 0.0 0.0 0.0 0.0 0.0 0.0 0.0 0.0 0.0 0.0 0.0 0.0 0.0 0.0 0.0 0.0 0.0 0.0 0.0 0.0 0.0 0.0 0.0 0.0 0.0 0.0 0.0 0.0 0.0 0.0 0.0 0.0 0.0 0.0 0.0 0.0 0.0 0.0
0.0 0.0 0.0 0.0 0.0 0.0 0.0 0.0 0.0 0.0 0.0 0.0 0.0 0.0 0.0 0.0 0.0 0.0 0.0 0.0 0.0 0.0 0.0 0.0 0.0 0.0 0.0 0.0 0.0 0.0 0.0 0.0 0.0 0.0 0.0 0.0 0.0 0.0 0.0 0.0 0.0 0.0 0.0 0.0
0.0 0.0 0.0 0.0 0.0 0.0 0.0 0.0 0.0 0.0 0.0 0.0 0.0 0.0 0.0 0.0 0.0 0.0 0.0 0.0 0.0 0.0 0.0 0.0 0.0 0.0 0.0 0.0 0.0 0.0 0.0 0.0 0.0 0.0 0.0 0.0 0.0 0.0 0.0 0.0 0.0 0.0 0.0 0.0
0.0 0.0 0.0 0.0 0.0 0.0 0.0 0.0 0.0 0.0 0.0 0.2 0.0 0.0 0.0 0.0 0.0 0.0 0.0 0.0 0.0 0.0 0.0 0.0 0.0 0.0 0.0 0.0 0.0 0.0 0.0 0.0 0.0 0.0 0.0 0.0 0.0 0.0 0.0 0.0 0.0 0.0 0.0 0.0
0.0 0.0 0.0 0.0 0.0 0.0 0.0 0.0 0.3 0.5 1.6 0.7 0.0 0.1 0.0 0.0 0.0 0.0 0.0 0.0 0.0 0.0 0.0 0.0 0.0 0.0 0.0 0.0 0.0 0.0 0.0 0.0 0.0 0.0 0.0 0.0 0.0 0.0 0.0 0.0 0.0 0.0 0.0 0.0
0.0 0.0 0.0 0.0 0.0 0.0 0.0 0.0 0.5 2.2 1.4 0.5 0.1 0.2 0.0 0.0 0.0 0.0 0.0 0.0 0.0 0.0 0.0 0.0 0.0 0.0 0.0 0.0 0.0 0.0 0.0 0.0 0.0 0.0 0.0 0.0 0.0 0.0 0.0 0.0 0.0 0.0 0.0 0.0
0.0 0.0 0.0 0.0 0.0 0.0 0.0 0.0 0.0 0.2 3.0 2.0 0.0 0.0 0.0 0.0 0.0 0.0 0.0 0.0 0.0 0.0 0.0 0.0 0.0 0.0 0.0 0.0 0.0 0.0 0.0 0.0 0.0 0.0 0.0 0.0 0.0 0.0 0.0 0.0 0.0 0.0 0.0 0.0
0.0 0.1 0.0 0.0 0.0 0.0 0.0 0.0 0.3 0.3 4.6 3.3 0.0 0.0 0.0 0.0 0.0 0.0 0.0 0.0 0.0 0.0 0.0 0.0 0.0 0.0 0.0 0.0 0.0 0.0 0.0 0.0 0.0 0.0 0.0 0.0 0.0 0.0 0.0 0.0 0.0 0.0 0.0 0.0
0.0 0.1 0.0 0.0 0.0 0.0 0.0 0.0 0.0 0.0 0.4 3.3 2.2 0.1 0.0 0.0 0.0 0.0 0.0 0.0 0.0 0.0 0.0 0.0 0.0 0.0 0.0 0.0 0.0 0.0 0.0 0.0 0.0 0.0 0.0 0.0 0.0 0.0 0.0 0.0 0.0 0.0 0.0 0.0
0.0 0.0 1.9 0.0 0.0 0.0 0.0 0.0 0.0 0.8 0.6 0.6 1.0 1.6 0.0 0.0 0.0 0.0 0.0 0.0 0.0 0.0 0.0 0.0 0.0 0.0 0.0 0.0 0.0 0.0 0.0 0.0 0.0 0.0 0.0 0.0 0.0 0.0 0.0 0.0 0.0 0.0 0.0 0.0
0.0 0.6 5.3 1.3 0.0 0.0 0.0 0.0 0.0 0.0 0.5 3.5 6.1 1.7 0.0 0.0 0.0 0.0 0.0 0.0 0.0 0.0 0.0 0.0 0.0 0.0 0.0 0.0 0.0 0.0 0.0 0.0 0.0 0.0 0.0 0.0 0.0 0.0 0.0 0.0 0.0 0.0 0.0 0.0
nan 0.2 0.6 1.5 0.1 0.0 0.2 0.1 0.1 0.2 4.6 1.6 1.4 0.4 0.0 0.0 0.0 0.0 0.0 0.0 0.0 0.0 0.0 0.0 0.0 0.0 0.0 0.0 0.0 0.0 0.0 0.0 0.0 0.0 0.0 0.0 0.0 0.0 0.0 0.0 0.0 0.0 0.0 0.0
0.0 2.4 0.1 0.0 0.0 0.1 0.2 0.1 0.0 0.0 0.0 1.1 0.1 0.1 0.0 0.0 0.0 0.0 0.0 0.0 0.0 0.0 0.0 0.0 0.0 0.0 0.0 0.0 0.0 0.0 0.0 0.0 0.0 0.0 0.0 0.0 0.0 0.0 0.0 0.2 0.2 0.2 0.2 0.0
0.0 3.9 0.4 2.7 0.0 0.0 0.3 0.1 0.1 0.1 0.1 0.0 0.0 0.0 0.0 0.0 0.0 0.0 0.0 0.0 0.0 0.0 0.0 0.0 0.0 0.0 0.0 0.0 0.0 0.0 0.0 0.0 0.0 0.0 0.0 0.0 0.4 0.7 1.0 0.9 0.6 0.4 0.3 0.3
0.4 2.9 8.8 14.2 0.5 0.5 8.5 0.5 0.0 0.0 0.0 0.0 0.2 0.1 0.4 0.2 0.1 0.1 0.0 0.0 0.0 0.0 0.0 0.0 0.0 0.0 0.0 0.0 0.0 0.0 0.0 0.1 0.6 1.1 1.9 1.7 1.3 1.6 1.2 0.8 0.7 0.5 0.5 0.4
2.5 5.0 7.9 19.0 10.9 30.8 1.8 0.0 0.0 0.1 0.2 0.3 0.6 1.3 0.5 0.1 0.0 0.0 0.0 0.0 0.0 0.0 0.0 0.0 0.0 0.0 0.0 0.0 0.0 0.0 0.1 0.3 0.7 1.4 2.6 2.0 1.2 2.5 1.3 1.1 1.0 0.6 0.5 0.6
0.3 1.2 14.0 23.8 19.3 0.7 0.0 0.0 0.0 0.1 0.1 0.3 0.5 0.3 0.1 0.0 0.0 0.0 0.0 0.0 0.0 0.0 0.0 0.0 0.0 0.0 0.0 0.0 0.0 0.3 0.4 0.3 0.4 0.5 0.9 1.1 1.9 2.8 1.4 3.4 1.5 1.1 1.8 1.1
1.0 0.6 1.9 18.4 20.7 17.4 0.1 0.0 0.0 0.0 1.8 1.0 1.8 1.2 0.7 0.1 0.5 0.1 0.0 0.0 0.0 0.0 0.0 0.0 0.0 0.0 0.0 0.0 0.0 0.4 0.5 0.9 0.8 0.5 0.5 0.7 1.8 4.2 3.3 1.8 2.7 3.1 2.9 2.6
6.7 13.5 17.1 16.9 19.9 6.8 0.6 0.4 0.0 6.2 3.6 1.2 0.7 0.8 0.6 0.8 0.2 0.0 0.0 0.0 0.0 0.0 0.0 0.0 0.0 0.0 0.0 0.2 0.6 0.6 0.6 0.9 0.9 1.3 1.3 1.6 1.8 4.4 2.7 3.1 2.5 3.7 4.2 2.1
1.3 9.0 20.4 15.3 17.3 19.4 0.1 0.1 0.8 0.8 0.3 0.4 0.2 0.0 0.1 0.0 0.0 0.0 0.0 0.0 0.0 0.0 0.0 0.0 0.0 0.0 0.0 0.7 1.1 1.1 0.8 0.9 1.6 2.1 2.3 2.9 4.9 4.4 4.4 8.2 5.0 6.8 6.0 5.8
4.9 1.3 7.5 2.7 4.2 0.1 0.0 0.3 0.1 0.1 0.7 0.3 0.1 0.1 0.0 0.0 0.0 0.0 0.0 0.0 0.0 0.0 0.0 0.0 1.4 1.3 0.0 1.7 2.0 2.4 1.5 1.9 2.6 5.2 7.2 7.1 6.3 6.3 6.3 9.1 5.9 8.2 6.9 8.1
0.4 0.0 1.3 2.0 0.3 0.1 0.2 0.1 0.1 0.0 0.1 0.0 0.1 0.1 0.1 0.0 0.0 0.0 0.0 0.1 0.0 0.8 1.3 1.6 2.2 2.6 2.4 2.2 2.7 3.2 2.8 3.0 9.8 9.9 5.3 4.3 5.5 4.0 5.5 7.3 8.4 11.8 9.2 7.4
0.4 0.3 0.9 1.3 0.1 0.1 0.3 0.2 0.1 0.0 0.0 0.0 0.0 0.0 0.0 0.0 0.0 0.0 0.8 1.0 0.6 1.1 1.3 2.0 2.6 2.5 2.3 2.0 2.4 3.6 3.6 4.5 6.6 7.0 3.9 5.4 7.6 8.5 5.2 4.7 7.8 6.6 4.3 9.5
0.0 0.0 0.2 2.0 0.1 0.1 0.0 0.0 0.0 0.0 0.0 0.2 0.2 0.3 0.4 0.4 0.4 0.5 0.8 0.5 0.7 1.1 1.4 2.0 2.3 2.2 2.6 3.4 3.8 5.0 6.6 6.4 6.5 4.0 5.8 5.6 5.6 4.9 4.4 4.5 4.5 nan nan nan

GFSCGP_prec_sndepth_048.txt.gz
Snowfall_Accumulation
0.0 0.0 0.0 0.0 0.0 0.0 0.0 0.0 0.0 0.0 0.0 0.0 0.0 0.0 0.0 0.0 0.0 0.0 0.0 0.0 0.0 0.0 0.0 0.0 0.0 0.0 0.0 0.0 0.0 0.0 0.0 0.0 0.0 0.0 0.0 0.0 0.0 0.0 0.0 0.0 0.0 0.0 0.0 0.0
0.0 0.0 0.0 0.0 0.0 0.0 0.0 0.0 0.0 0.0 0.0 0.0 0.0 0.0 0.0 0.0 0.0 0.0 0.0 0.0 0.0 0.0 0.0 0.0 0.0 0.0 0.0 0.0 0.0 0.0 0.0 0.0 0.0 0.0 0.0 0.0 0.0 0.0 0.0 0.0 0.0 0.0 0.0 0.0
0.0 0.0 0.0 0.0 0.0 0.0 0.0 0.0 0.0 0.0 0.0 0.0 0.0 0.0 0.0 0.0 0.0 0.0 0.0 0.0 0.0 0.0 0.0 0.0 0.0 0.0 0.0 0.0 0.0 0.0 0.0 0.0 0.0 0.0 0.0 0.0 0.0 0.0 0.0 0.0 0.0 0.0 0.0 0.0
0.0 0.0 0.0 0.0 0.0 0.0 0.0 0.0 0.0 0.0 0.0 0.0 0.0 0.0 0.0 0.0 0.0 0.0 0.0 0.0 0.0 0.0 0.0 0.0 0.0 0.0 0.0 0.0 0.0 0.0 0.0 0.0 0.0 0.0 0.0 0.0 0.0 0.0 0.0 0.0 0.0 0.0 0.0 0.0
0.0 0.0 0.0 0.0 0.0 0.0 0.0 0.0 0.0 0.0 0.0 0.0 0.0 0.0 0.0 0.0 0.0 0.0 0.0 0.0 0.0 0.0 0.0 0.0 0.0 0.0 0.0 0.0 0.0 0.0 0.0 0.0 0.0 0.0 0.0 0.0 0.0 0.0 0.0 0.0 0.0 0.0 0.0 0.0
0.0 0.0 0.0 0.0 0.0 0.0 0.0 0.0 0.0 0.0 0.0 0.2 0.0 0.0 0.0 0.0 0.0 0.0 0.0 0.0 0.0 0.0 0.0 0.0 0.0 0.0 0.0 0.0 0.0 0.0 0.0 0.0 0.0 0.0 0.0 0.0 0.0 0.0 0.0 0.0 0.0 0.0 0.0 0.0
0.0 0.0 0.0 0.0 0.0 0.0 0.0 0.0 0.2 0.5 1.5 0.7 0.0 0.1 0.0 0.0 0.0 0.0 0.0 0.0 0.0 0.0 0.0 0.0 0.0 0.0 0.0 0.0 0.0 0.0 0.0 0.0 0.0 0.0 0.0 0.0 0.0 0.0 0.0 0.0 0.0 0.0 0.0 0.0
0.0 0.0 0.0 0.0 0.0 0.0 0.0 0.0 0.5 2.1 1.3 0.5 0.1 0.2 0.0 0.0 0.0 0.0 0.0 0.0 0.0 0.0 0.0 0.0 0.0 0.0 0.0 0.0 0.0 0.0 0.0 0.0 0.0 0.0 0.0 0.0 0.0 0.0 0.0 0.0 0.0 0.0 0.0 0.0
0.0 0.0 0.0 0.0 0.0 0.0 0.0 0.0 0.0 0.2 2.9 1.8 0.0 0.0 0.0 0.0 0.0 0.0 0.0 0.0 0.0 0.0 0.0 0.0 0.0 0.0 0.0 0.0 0.0 0.0 0.0 0.0 0.0 0.0 0.0 0.0 0.0 0.0 0.0 0.0 0.0 0.0 0.0 0.0
0.0 0.1 0.0 0.0 0.0 0.0 0.0 0.0 0.2 0.3 4.5 3.2 0.0 0.0 0.0 0.0 0.0 0.0 0.0 0.0 0.0 0.0 0.0 0.0 0.0 0.0 0.0 0.0 0.0 0.0 0.0 0.0 0.0 0.0 0.0 0.0 0.0 0.0 0.0 0.0 0.0 0.0 0.0 0.0
0.0 0.1 0.0 0.0 0.0 0.0 0.0 0.0 0.0 0.0 0.3 3.1 2.1 0.1 0.0 0.0 0.0 0.0 0.0 0.0 0.0 0.0 0.0 0.0 0.0 0.0 0.0 0.0 0.0 0.0 0.0 0.0 0.0 0.0 0.0 0.0 0.0 0.0 0.0 0.0 0.0 0.0 0.0 0.0
0.0 0.0 1.7 0.0 0.0 0.0 0.0 0.0 0.0 0.7 0.5 0.5 1.0 1.5 0.0 0.0 0.0 0.0 0.0 0.0 0.0 0.0 0.0 0.0 0.0 0.0 0.0 0.0 0.0 0.0 0.0 0.0 0.0 0.0 0.0 0.0 0.0 0.0 0.0 0.0 0.0 0.0 0.0 0.0
0.0 0.5 4.8 1.1 0.0 0.0 0.0 0.0 0.0 0.0 0.5 3.2 5.7 1.5 0.0 0.0 0.0 0.0 0.0 0.0 0.0 0.0 0.0 0.0 0.0 0.0 0.0 0.0 0.0 0.0 0.0 0.0 0.0 0.0 0.0 0.0 0.0 0.0 0.0 0.0 0.0 0.0 0.0 0.0
nan 0.2 0.5 1.3 0.1 0.0 0.2 0.1 0.1 0.1 4.1 1.5 1.1 0.3 0.0 0.0 0.0 0.0 0.0 0.0 0.0 0.0 0.0 0.0 0.0 0.0 0.0 0.0 0.0 0.0 0.0 0.0 0.0 0.0 0.0 0.0 0.0 0.0 0.0 0.0 0.0 0.0 0.0 0.0
0.0 2.0 0.1 0.0 0.0 0.1 0.2 0.1 0.0 0.0 0.0 0.9 0.0 0.1 0.0 0.0 0.0 0.0 0.0 0.0 0.0 0.0 0.0 0.0 0.0 0.0 0.0 0.0 0.0 0.0 0.0 0.0 0.0 0.0 0.0 0.0 0.0 0.0 0.0 0.2 0.2 0.2 0.2 0.0
0.0 3.6 0.3 2.3 0.0 0.0 0.3 0.0 0.1 0.1 0.0 0.0 0.0 0.0 0.0 0.0 0.0 0.0 0.0 0.0 0.0 0.0 0.0 0.0 0.0 0.0 0.0 0.0 0.0 0.0 0.0 0.0 0.0 0.0 0.0 0.0 0.3 0.7 0.9 0.9 0.6 0.4 0.3 0.3
0.3 2.7 8.2 14.1 0.5 0.4 9.0 0.4 0.0 0.0 0.0 0.0 0.2 0.1 0.3 0.2 0.1 0.1 0.0 0.0 0.0 0.0 0.0 0.0 0.0 0.0 0.0 0.0 0.0 0.0 0.0 0.1 0.5 1.0 1.9 1.6 1.3 1.6 1.2 0.8 0.7 0.5 0.5 0.4
2.2 4.7 7.2 18.1 9.9 32.0 1.7 0.0 0.0 0.0 0.1 0.2 0.4 1.1 0.4 0.1 0.0 0.0 0.0 0.0 0.0 0.0 0.0 0.0 0.0 0.0 0.0 0.0 0.0 0.0 0.1 0.3 0.6 1.4 2.6 2.0 1.2 2.4 1.3 1.1 1.0 0.6 0.4 0.6
0.3 1.1 13.0 24.9 19.4 0.7 0.0 0.0 0.0 0.1 0.1 0.2 0.3 0.2 0.1 0.0 0.0 0.0 0.0 0.0 0.0 0.0 0.0 0.0 0.0 0.0 0.0 0.0 0.0 0.3 0.3 0.3 0.4 0.5 0.9 1.1 1.9 2.8 1.4 3.4 1.5 1.0 1.8 1.1
1.1 0.6 2.1 20.3 21.7 18.4 0.1 0.0 0.0 0.0 1.6 0.8 1.4 0.9 0.6 0.1 0.4 0.1 0.0 0.0 0.0 0.0 0.0 0.0 0.0 0.0 0.0 0.0 0.0 0.4 0.5 0.9 0.8 0.5 0.5 0.7 1.7 4.1 3.3 1.8 2.7 3.0 2.9 2.5
6.8 14.2 18.6 17.5 20.4 6.8 0.6 0.3 0.0 6.2 3.3 1.2 0.7 0.7 0.5 0.7 0.2 0.0 0.0 0.0 0.0 0.0 0.0 0.0 0.0 0.0 0.0 0.2 0.6 0.6 0.6 0.9 0.9 1.3 1.3 1.6 1.8 4.4 2.7 3.1 2.5 3.7 4.2 2.1
1.3 9.2 21.0 15.8 18.6 20.6 0.1 0.1 0.8 0.8 0.2 0.4 0.2 0.0 0.1 0.0 0.0 0.0 0.0 0.0 0.0 0.0 0.0 0.0 0.0 0.0 0.0 0.7 1.1 1.1 0.8 0.9 1.6 2.1 2.3 2.9 4.9 4.4 4.4 8.2 5.0 6.8 5.9 5.8
4.9 1.2 6.9 2.4 4.0 0.1 0.0 0.2 0.1 0.1 0.6 0.3 0.1 0.1 0.0 0.0 0.0 0.0 0.0 0.0 0.0 0.0 0.0 0.0 1.4 1.3 0.0 1.7 1.9 2.4 1.5 1.9 2.6 5.2 7.2 7.1 6.3 6.2 6.3 9.1 5.9 8.2 6.9 8.1
0.4 0.0 1.3 2.0 0.5 0.1 0.3 0.1 0.1 0.0 0.1 0.0 0.1 0.1 0.0 0.0 0.0 0.0 0.0 0.1 0.0 0.8 1.3 1.6 2.2 2.6 2.4 2.2 2.7 3.2 2.8 3.0 9.8 9.8 5.3 4.3 5.5 4.0 5.5 7.3 8.3 11.8 9.2 7.4
0.4 0.3 0.8 1.4 0.1 0.2 0.5 0.2 0.1 0.0 0.0 0.0 0.0 0.0 0.0 0.0 0.0 0.0 0.8 1.0 0.6 1.1 1.3 2.0 2.5 2.5 2.3 2.0 2.4 3.6 3.6 4.5 6.6 7.0 3.9 5.4 7.6 8.5 5.2 4.7 7.8 6.6 4.2 9.5
0.0 0.0 0.2 2.1 0.1 0.1 0.0 0.0 0.0 0.0 0.0 0.2 0.2 0.3 0.4 0.4 0.4 0.5 0.8 0.5 0.7 1.1 1.4 2.0 2.3 2.2 2.6 3.4 3.8 5.0 6.6 6.4 6.5 4.0 5.8 5.6 5.6 4.9 4.4 4.5 4.5 nan nan nan

GFSCGP_prec_sndepth_051.txt.gz
Snowfall_Accumulation
0.0 0.0 0.0 0.0 0.0 0.0 0.0 0.0 0.0 0.0 0.0 0.0 0.0 0.0 0.0 0.0 0.0 0.0 0.0 0.0 0.0 0.0 0.0 0.0 0.0 0.0 0.0 0.0 0.0 0.0 0.0 0.0 0.0 0.0 0.0 0.0 0.0 0.0 0.0 0.0 0.0 0.0 0.0 0.0
0.0 0.0 0.0 0.0 0.0 0.0 0.0 0.0 0.0 0.0 0.0 0.0 0.0 0.0 0.0 0.0 0.0 0.0 0.0 0.0 0.0 0.0 0.0 0.0 0.0 0.0 0.0 0.0 0.0 0.0 0.0 0.0 0.0 0.0 0.0 0.0 0.0 0.0 0.0 0.0 0.0 0.0 0.0 0.0
0.0 0.0 0.0 0.0 0.0 0.0 0.0 0.0 0.0 0.0 0.0 0.0 0.0 0.0 0.0 0.0 0.0 0.0 0.0 0.0 0.0 0.0 0.0 0.0 0.0 0.0 0.0 0.0 0.0 0.0 0.0 0.0 0.0 0.0 0.0 0.0 0.0 0.0 0.0 0.0 0.0 0.0 0.0 0.0
0.0 0.0 0.0 0.0 0.0 0.0 0.0 0.0 0.0 0.0 0.0 0.0 0.0 0.0 0.0 0.0 0.0 0.0 0.0 0.0 0.0 0.0 0.0 0.0 0.0 0.0 0.0 0.0 0.0 0.0 0.0 0.0 0.0 0.0 0.0 0.0 0.0 0.0 0.0 0.0 0.0 0.0 0.0 0.0
0.0 0.0 0.0 0.0 0.0 0.0 0.0 0.0 0.0 0.0 0.0 0.0 0.0 0.0 0.0 0.0 0.0 0.0 0.0 0.0 0.0 0.0 0.0 0.0 0.0 0.0 0.0 0.0 0.0 0.0 0.0 0.0 0.0 0.0 0.0 0.0 0.0 0.0 0.0 0.0 0.0 0.0 0.0 0.0
0.0 0.0 0.0 0.0 0.0 0.0 0.0 0.0 0.0 0.0 0.0 0.2 0.0 0.0 0.0 0.0 0.0 0.0 0.0 0.0 0.0 0.0 0.0 0.0 0.0 0.0 0.0 0.0 0.0 0.0 0.0 0.0 0.0 0.0 0.0 0.0 0.0 0.0 0.0 0.0 0.0 0.0 0.0 0.0
0.0 0.0 0.0 0.0 0.0 0.0 0.0 0.0 0.2 0.5 1.5 0.7 0.0 0.1 0.0 0.0 0.0 0.0 0.0 0.0 0.0 0.0 0.0 0.0 0.0 0.0 0.0 0.0 0.0 0.0 0.0 0.0 0.0 0.0 0.0 0.0 0.0 0.0 0.0 0.0 0.0 0.0 0.0 0.0
0.0 0.0 0.0 0.0 0.0 0.0 0.0 0.0 0.5 2.1 1.3 0.5 0.1 0.2 0.0 0.0 0.0 0.0 0.0 0.0 0.0 0.0 0.0 0.0 0.0 0.0 0.0 0.0 0.0 0.0 0.0 0.0 0.0 0.0 0.0 0.0 0.0 0.0 0.0 0.0 0.0 0.0 0.0 0.0
0.0 0.0 0.0 0.0 0.0 0.0 0.0 0.0 0.0 0.2 2.9 1.9 0.0 0.0 0.0 0.0 0.0 0.0 0.0 0.0 0.0 0.0 0.0 0.0 0.0 0.0 0.0 0.0 0.0 0.0 0.0 0.0 0.0 0.0 0.0 0.0 0.0 0.0 0.0 0.0 0.0 0.0 0.0 0.0
0.0 0.1 0.0 0.0 0.0 0.0 0.0 0.0 0.2 0.3 4.5 3.2 0.0 0.0 0.0 0.0 0.0 0.0 0.0 0.0 0.0 0.0 0.0 0.0 0.0 0.0 0.0 0.0 0.0 0.0 0.0 0.0 0.0 0.0 0.0 0.0 0.0 0.0 0.0 0.0 0.0 0.0 0.0 0.0
0.0 0.1 0.0 0.0 0.0 0.0 0.0 0.0 0.0 0.0 0.3 3.1 2.1 0.1 0.0 0.0 0.0 0.0 0.0 0.0 0.0 0.0 0.0 0.0 0.0 0.0 0.0 0.0 0.0 0.0 0.0 0.0 0.0 0.0 0.0 0.0 0.0 0.0 0.0 0.0 0.0 0.0 0.0 0.0
0.0 0.0 1.7 0.0 0.0 0.0 0.0 0.0 0.0 0.7 0.5 0.5 1.0 1.4 0.0 0.0 0.0 0.0 0.0 0.0 0.0 0.0 0.0 0.0 0.0 0.0 0.0 0.0 0.0 0.0 0.0 0.0 0.0 0.0 0.0 0.0 0.0 0.0 0.0 0.0 0.0 0.0 0.0 0.0
0.0 0.5 4.8 1.1 0.0 0.0 0.0 0.0 0.0 0.0 0.5 3.2 5.7 1.4 0.0 0.0 0.0 0.0 0.0 0.0 0.0 0.0 0.0 0.0 0.0 0.0 0.0 0.0 0.0 0.0 0.0 0.0 0.0 0.0 0.0 0.0 0.0 0.0 0.0 0.0 0.0 0.0 0.0 0.0
nan 0.1 0.5 1.2 0.1 0.0 0.2 0.1 0.1 0.1 4.1 1.4 1.0 0.3 0.0 0.0 0.0 0.0 0.0 0.0 0.0 0.0 0.0 0.0 0.0 0.0 0.0 0.0 0.0 0.0 0.0 0.0 0.0 0.0 0.0 0.0 0.0 0.0 0.0 0.0 0.0 0.0 0.0 0.0
0.0 1.9 0.1 0.0 0.0 0.1 0.1 0.1 0.0 0.0 0.0 0.9 0.0 0.1 0.0 0.0 0.0 0.0 0.0 0.0 0.0 0.0 0.0 0.0 0.0 0.0 0.0 0.0 0.0 0.0 0.0 0.0 0.0 0.0 0.0 0.0 0.0 0.0 0.0 0.2 0.2 0.2 0.2 0.0
0.0 3.3 0.3 2.2 0.0 0.0 0.2 0.0 0.1 0.1 0.0 0.0 0.0 0.0 0.0 0.0 0.0 0.0 0.0 0.0 0.0 0.0 0.0 0.0 0.0 0.0 0.0 0.0 0.0 0.0 0.0 0.0 0.0 0.0 0.0 0.0 0.3 0.7 0.9 0.8 0.6 0.4 0.3 0.3
0.3 2.5 7.6 14.2 0.5 0.4 9.5 0.4 0.0 0.0 0.0 0.0 0.2 0.1 0.3 0.1 0.0 0.1 0.0 0.0 0.0 0.0 0.0 0.0 0.0 0.0 0.0 0.0 0.0 0.0 0.0 0.1 0.5 0.9 1.8 1.6 1.2 1.5 1.2 0.8 0.7 0.5 0.4 0.4
1.9 4.2 6.6 17.4 9.3 33.3 1.8 0.0 0.0 0.0 0.1 0.2 0.2 0.7 0.4 0.1 0.0 0.0 0.0 0.0 0.0 0.0 0.0 0.0 0.0 0.0 0.0 0.0 0.0 0.0 0.1 0.3 0.6 1.4 2.5 2.0 1.2 2.4 1.2 1.0 1.0 0.6 0.4 0.6
0.2 0.9 11.7 25.8 19.7 0.7 0.0 0.0 0.0 0.1 0.1 0.1 0.2 0.2 0.1 0.0 0.0 0.0 0.0 0.0 0.0 0.0 0.0 0.0 0.0 0.0 0.0 0.0 0.0 0.2 0.3 0.3 0.4 0.5 0.9 1.1 1.8 2.8 1.4 3.4 1.5 1.0 1.7 1.1
1.0 0.4 2.0 22.1 22.9 19.5 0.1 0.0 0.0 0.0 1.5 0.7 0.9 0.6 0.5 0.1 0.4 0.0 0.0 0.0 0.0 0.0 0.0 0.0 0.0 0.0 0.0 0.0 0.0 0.4 0.5 0.9 0.7 0.5 0.5 0.7 1.7 4.1 3.2 1.7 2.7 3.0 2.9 2.5
7.1 15.7 20.1 18.2 21.6 7.3 0.6 0.3 0.0 6.1 3.4 1.2 0.7 0.7 0.5 0.7 0.2 0.0 0.0 0.0 0.0 0.0 0.0 0.0 0.0 0.0 0.0 0.2 0.5 0.6 0.6 0.8 0.9 1.3 1.3 1.6 1.8 4.3 2.7 3.1 2.5 3.7 4.2 2.1
1.4 9.3 21.5 16.5 20.2 22.2 0.1 0.1 0.8 0.8 0.2 0.4 0.2 0.0 0.1 0.0 0.0 0.0 0.0 0.0 0.0 0.0 0.0 0.0 0.0 0.0 0.0 0.7 1.1 1.1 0.8 0.8 1.6 2.1 2.3 2.9 4.9 4.4 4.4 8.1 5.0 6.8 5.9 5.8
5.0 1.2 7.0 2.4 4.1 0.1 0.0 0.2 0.1 0.1 0.6 0.3 0.1 0.1 0.0 0.0 0.0 0.0 0.0 0.0 0.0 0.0 0.0 0.0 1.4 1.3 0.0 1.7 1.9 2.4 1.5 1.9 2.6 5.2 7.2 7.1 6.3 6.2 6.3 9.1 5.9 8.2 6.9 8.1
0.4 0.0 1.5 2.2 0.5 0.1 0.3 0.1 0.1 0.0 0.1 0.0 0.1 0.1 0.0 0.0 0.0 0.0 0.0 0.1 0.0 0.8 1.3 1.6 2.2 2.6 2.4 2.2 2.7 3.2 2.8 3.0 9.8 9.8 5.3 4.3 5.5 4.0 5.5 7.3 8.3 11.8 9.2 7.4
0.5 0.5 1.4 1.6 0.1 0.2 0.5 0.2 0.1 0.0 0.0 0.0 0.0 0.0 0.0 0.0 0.0 0.0 0.8 1.0 0.6 1.1 1.3 2.0 2.5 2.5 2.3 2.0 2.4 3.7 3.6 4.5 6.6 7.0 3.9 5.4 7.6 8.5 5.2 4.7 7.8 6.6 4.2 9.4
0.0 0.0 0.2 2.1 0.1 0.1 0.0 0.0 0.0 0.0 0.0 0.2 0.2 0.3 0.4 0.4 0.3 0.5 0.8 0.5 0.7 1.1 1.4 2.0 2.3 2.2 2.7 3.4 3.8 5.0 6.6 6.4 6.5 4.0 5.8 5.6 5.6 4.9 4.4 4.5 4.5 nan nan nan

GFSCGP_prec_sndepth_054.txt.gz
Snowfall_Accumulation
0.0 0.0 0.0 0.0 0.0 0.0 0.0 0.0 0.0 0.0 0.0 0.0 0.0 0.0 0.0 0.0 0.0 0.0 0.0 0.0 0.0 0.0 0.0 0.0 0.0 0.0 0.0 0.0 0.0 0.0 0.0 0.0 0.0 0.0 0.0 0.0 0.0 0.0 0.0 0.0 0.0 0.0 0.0 0.0
0.0 0.0 0.0 0.0 0.0 0.0 0.0 0.0 0.0 0.0 0.0 0.0 0.0 0.0 0.0 0.0 0.0 0.0 0.0 0.0 0.0 0.0 0.0 0.0 0.0 0.0 0.0 0.0 0.0 0.0 0.0 0.0 0.0 0.0 0.0 0.0 0.0 0.0 0.0 0.0 0.0 0.0 0.0 0.0
0.0 0.0 0.0 0.0 0.0 0.0 0.0 0.0 0.0 0.0 0.0 0.0 0.0 0.0 0.0 0.0 0.0 0.0 0.0 0.0 0.0 0.0 0.0 0.0 0.0 0.0 0.0 0.0 0.0 0.0 0.0 0.0 0.0 0.0 0.0 0.0 0.0 0.0 0.0 0.0 0.0 0.0 0.0 0.0
0.0 0.0 0.0 0.0 0.0 0.0 0.0 0.0 0.0 0.0 0.0 0.0 0.0 0.0 0.0 0.0 0.0 0.0 0.0 0.0 0.0 0.0 0.0 0.0 0.0 0.0 0.0 0.0 0.0 0.0 0.0 0.0 0.0 0.0 0.0 0.0 0.0 0.0 0.0 0.0 0.0 0.0 0.0 0.0
0.0 0.0 0.0 0.0 0.0 0.0 0.0 0.0 0.0 0.0 0.0 0.0 0.0 0.0 0.0 0.0 0.0 0.0 0.0 0.0 0.0 0.0 0.0 0.0 0.0 0.0 0.0 0.0 0.0 0.0 0.0 0.0 0.0 0.0 0.0 0.0 0.0 0.0 0.0 0.0 0.0 0.0 0.0 0.0
0.0 0.0 0.0 0.0 0.0 0.0 0.0 0.0 0.0 0.0 0.0 0.2 0.0 0.0 0.0 0.0 0.0 0.0 0.0 0.0 0.0 0.0 0.0 0.0 0.0 0.0 0.0 0.0 0.0 0.0 0.0 0.0 0.0 0.0 0.0 0.0 0.0 0.0 0.0 0.0 0.0 0.0 0.0 0.0
0.0 0.0 0.0 0.0 0.0 0.0 0.0 0.0 0.2 0.5 1.5 0.7 0.0 0.1 0.0 0.0 0.0 0.0 0.0 0.0 0.0 0.0 0.0 0.0 0.0 0.0 0.0 0.0 0.0 0.0 0.0 0.0 0.0 0.0 0.0 0.0 0.0 0.0 0.0 0.0 0.0 0.0 0.0 0.0
0.0 0.0 0.0 0.0 0.0 0.0 0.0 0.0 0.5 2.1 1.3 0.5 0.1 0.2 0.0 0.0 0.0 0.0 0.0 0.0 0.0 0.0 0.0 0.0 0.0 0.0 0.0 0.0 0.0 0.0 0.0 0.0 0.0 0.0 0.0 0.0 0.0 0.0 0.0 0.0 0.0 0.0 0.0 0.0
0.0 0.0 0.0 0.0 0.0 0.0 0.0 0.0 0.0 0.2 2.9 1.9 0.0 0.0 0.0 0.0 0.0 0.0 0.0 0.0 0.0 0.0 0.0 0.0 0.0 0.0 0.0 0.0 0.0 0.0 0.0 0.0 0.0 0.0 0.0 0.0 0.0 0.0 0.0 0.0 0.0 0.0 0.0 0.0
0.0 0.1 0.0 0.0 0.0 0.0 0.0 0.0 0.2 0.3 4.5 3.2 0.0 0.0 0.0 0.0 0.0 0.0 0.0 0.0 0.0 0.0 0.0 0.0 0.0 0.0 0.0 0.0 0.0 0.0 0.0 0.0 0.0 0.0 0.0 0.0 0.0 0.0 0.0 0.0 0.0 0.0 0.0 0.0
0.0 0.1 0.0 0.0 0.0 0.0 0.0 0.0 0.0 0.0 0.3 3.1 2.1 0.1 0.0 0.0 0.0 0.0 0.0 0.0 0.0 0.0 0.0 0.0 0.0 0.0 0.0 0.0 0.0 0.0 0.0 0.0 0.0 0.0 0.0 0.0 0.0 0.0 0.0 0.0 0.0 0.0 0.0 0.0
0.0 0.0 1.7 0.0 0.0 0.0 0.0 0.0 0.0 0.7 0.5 0.5 1.0 1.4 0.0 0.0 0.0 0.0 0.0 0.0 0.0 0.0 0.0 0.0 0.0 0.0 0.0 0.0 0.0 0.0 0.0 0.0 0.0 0.0 0.0 0.0 0.0 0.0 0.0 0.0 0.0 0.0 0.0 0.0
0.0 0.5 4.8 1.1 0.0 0.0 0.0 0.0 0.0 0.0 0.5 3.2 5.7 1.4 0.0 0.0 0.0 0.0 0.0 0.0 0.0 0.0 0.0 0.0 0.0 0.0 0.0 0.0 0.0 0.0 0.0 0.0 0.0 0.0 0.0 0.0 0.0 0.0 0.0 0.0 0.0 0.0 0.0 0.0
nan 0.1 0.5 1.1 0.1 0.0 0.2 0.1 0.0 0.1 4.0 1.4 0.9 0.2 0.0 0.0 0.0 0.0 0.0 0.0 0.0 0.0 0.0 0.0 0.0 0.0 0.0 0.0 0.0 0.0 0.0 0.0 0.0 0.0 0.0 0.0 0.0 0.0 0.0 0.0 0.0 0.0 0.0 0.0
0.0 1.8 0.1 0.0 0.0 0.1 0.1 0.1 0.0 0.0 0.0 0.8 0.0 0.1 0.0 0.0 0.0 0.0 0.0 0.0 0.0 0.0 0.0 0.0 0.0 0.0 0.0 0.0 0.0 0.0 0.0 0.0 0.0 0.0 0.0 0.0 0.0 0.0 0.0 0.2 0.2 0.2 0.2 0.0
0.0 3.0 0.2 2.0 0.0 0.0 0.2 0.0 0.1 0.1 0.0 0.0 0.0 0.0 0.0 0.0 0.0 0.0 0.0 0.0 0.0 0.0 0.0 0.0 0.0 0.0 0.0 0.0 0.0 0.0 0.0 0.0 0.0 0.0 0.0 0.0 0.3 0.7 0.9 0.8 0.6 0.4 0.3 0.3
0.2 2.1 7.1 14.4 0.4 0.3 9.8 0.4 0.0 0.0 0.0 0.0 0.2 0.0 0.3 0.1 0.0 0.1 0.0 0.0 0.0 0.0 0.0 0.0 0.0 0.0 0.0 0.0 0.0 0.0 0.0 0.1 0.5 0.9 1.8 1.6 1.2 1.5 1.1 0.8 0.7 0.5 0.4 0.4
1.7 3.6 5.8 16.2 8.8 34.0 1.9 0.0 0.0 0.0 0.1 0.1 0.2 0.4 0.3 0.1 0.0 0.0 0.0 0.0 0.0 0.0 0.0 0.0 0.0 0.0 0.0 0.0 0.0 0.0 0.1 0.3 0.5 1.3 2.5 1.9 1.2 2.3 1.2 1.0 1.0 0.6 0.4 0.5
0.1 0.7 11.2 26.8 20.0 0.7 0.0 0.0 0.0 0.1 0.1 0.1 0.2 0.1 0.1 0.0 0.0 0.0 0.0 0.0 0.0 0.0 0.0 0.0 0.0 0.0 0.0 0.0 0.0 0.2 0.3 0.3 0.3 0.5 0.9 1.0 1.8 2.7 1.4 3.3 1.5 1.0 1.8 1.1
0.8 0.3 1.8 24.0 24.4 20.9 0.1 0.0 0.0 0.0 1.4 0.6 0.6 0.3 0.3 0.1 0.4 0.0 0.0 0.0 0.0 0.0 0.0 0.0 0.0 0.0 0.0 0.0 0.0 0.3 0.5 0.8 0.7 0.4 0.5 0.7 1.7 4.1 3.2 1.7 2.7 3.1 2.9 2.5
7.2 15.4 21.6 19.3 23.1 8.2 0.6 0.3 0.0 6.1 3.4 1.2 0.7 0.7 0.5 0.6 0.1 0.0 0.0 0.0 0.0 0.0 0.0 0.0 0.0 0.0 0.0 0.2 0.4 0.6 0.6 0.8 0.8 1.3 1.3 1.6 1.8 4.3 2.6 3.1 2.5 3.7 4.1 2.0
1.7 9.9 22.3 17.2 21.9 24.4 0.1 0.1 0.8 0.8 0.2 0.4 0.2 0.0 0.1 0.0 0.0 0.0 0.0 0.0 0.0 0.0 0.0 0.0 0.0 0.0 0.0 0.7 0.9 1.0 0.7 0.8 1.6 2.1 2.3 2.9 4.8 4.3 4.4 8.1 5.0 6.8 5.9 5.8
5.3 1.2 7.0 2.4 4.2 0.1 0.0 0.2 0.1 0.1 0.6 0.3 0.1 0.1 0.0 0.0 0.0 0.0 0.0 0.0 0.0 0.0 0.0 0.0 1.4 1.3 0.0 1.7 1.9 2.4 1.5 1.9 2.6 5.1 7.2 7.1 6.3 6.2 6.2 9.0 5.9 8.2 6.9 8.0
0.4 0.0 1.6 2.2 0.5 0.1 0.3 0.1 0.1 0.0 0.1 0.0 0.1 0.1 0.0 0.0 0.0 0.0 0.0 0.1 0.0 0.8 1.3 1.6 2.2 2.6 2.4 2.2 2.7 3.2 2.8 3.0 9.8 9.8 5.3 4.3 5.5 4.0 5.5 7.3 8.3 11.7 9.2 7.4
0.5 0.5 1.6 2.0 0.1 0.2 0.5 0.2 0.1 0.0 0.0 0.0 0.0 0.0 0.0 0.0 0.0 0.0 0.7 1.0 0.6 1.1 1.3 2.0 2.5 2.5 2.3 2.0 2.4 3.7 3.6 4.5 6.6 7.0 3.9 5.4 7.6 8.5 5.2 4.7 7.8 6.6 4.2 9.4
0.0 0.0 0.2 2.1 0.1 0.1 0.0 0.0 0.0 0.0 0.0 0.2 0.2 0.3 0.4 0.4 0.3 0.5 0.8 0.5 0.7 1.1 1.4 2.0 2.3 2.2 2.7 3.4 3.8 5.0 6.6 6.4 6.5 4.0 5.8 5.6 5.6 4.9 4.4 4.5 4.5 nan nan nan

GFSCGP_prec_sndepth_060.txt.gz
Snowfall_Accumulation
0.0 0.0 0.0 0.0 0.0 0.0 0.0 0.0 0.0 0.0 0.0 0.0 0.0 0.0 0.0 0.0 0.0 0.0 0.0 0.0 0.0 0.0 0.0 0.0 0.0 0.0 0.0 0.0 0.0 0.0 0.0 0.0 0.0 0.0 0.0 0.0 0.0 0.0 0.0 0.0 0.0 0.0 0.0 0.0
0.0 0.0 0.0 0.0 0.0 0.0 0.0 0.0 0.0 0.0 0.0 0.0 0.0 0.0 0.0 0.0 0.0 0.0 0.0 0.0 0.0 0.0 0.0 0.0 0.0 0.0 0.0 0.0 0.0 0.0 0.0 0.0 0.0 0.0 0.0 0.0 0.0 0.0 0.0 0.0 0.0 0.0 0.0 0.0
0.0 0.0 0.0 0.0 0.0 0.0 0.0 0.0 0.0 0.0 0.0 0.0 0.0 0.0 0.0 0.0 0.0 0.0 0.0 0.0 0.0 0.0 0.0 0.0 0.0 0.0 0.0 0.0 0.0 0.0 0.0 0.0 0.0 0.0 0.0 0.0 0.0 0.0 0.0 0.0 0.0 0.0 0.0 0.0
0.0 0.0 0.0 0.0 0.0 0.0 0.0 0.0 0.0 0.0 0.0 0.0 0.0 0.0 0.0 0.0 0.0 0.0 0.0 0.0 0.0 0.0 0.0 0.0 0.0 0.0 0.0 0.0 0.0 0.0 0.0 0.0 0.0 0.0 0.0 0.0 0.0 0.0 0.0 0.0 0.0 0.0 0.0 0.0
0.0 0.0 0.0 0.0 0.0 0.0 0.0 0.0 0.0 0.0 0.0 0.0 0.0 0.0 0.0 0.0 0.0 0.0 0.0 0.0 0.0 0.0 0.0 0.0 0.0 0.0 0.0 0.0 0.0 0.0 0.0 0.0 0.0 0.0 0.0 0.0 0.0 0.0 0.0 0.0 0.0 0.0 0.0 0.0
0.0 0.0 0.0 0.0 0.0 0.0 0.0 0.0 0.0 0.0 0.0 0.2 0.0 0.0 0.0 0.0 0.0 0.0 0.0 0.0 0.0 0.0 0.0 0.0 0.0 0.0 0.0 0.0 0.0 0.0 0.0 0.0 0.0 0.0 0.0 0.0 0.0 0.0 0.0 0.0 0.0 0.0 0.0 0.0
0.0 0.0 0.0 0.0 0.0 0.0 0.0 0.0 0.2 0.5 1.5 0.7 0.0 0.1 0.0 0.0 0.0 0.0 0.0 0.0 0.0 0.0 0.0 0.0 0.0 0.0 0.0 0.0 0.0 0.0 0.0 0.0 0.0 0.0 0.0 0.0 0.0 0.0 0.0 0.0 0.0 0.0 0.0 0.0
0.0 0.0 0.0 0.0 0.0 0.0 0.0 0.0 0.5 2.1 1.3 0.5 0.1 0.2 0.0 0.0 0.0 0.0 0.0 0.0 0.0 0.0 0.0 0.0 0.0 0.0 0.0 0.0 0.0 0.0 0.0 0.0 0.0 0.0 0.0 0.0 0.0 0.0 0.0 0.0 0.0 0.0 0.0 0.0
0.0 0.0 0.0 0.0 0.0 0.0 0.0 0.0 0.0 0.2 2.9 1.9 0.0 0.0 0.0 0.0 0.0 0.0 0.0 0.0 0.0 0.0 0.0 0.0 0.0 0.0 0.0 0.0 0.0 0.0 0.0 0.0 0.0 0.0 0.0 0.0 0.0 0.0 0.0 0.0 0.0 0.0 0.0 0.0
0.0 0.1 0.0 0.0 0.0 0.0 0.0 0.0 0.2 0.3 4.5 3.2 0.0 0.0 0.0 0.0 0.0 0.0 0.0 0.0 0.0 0.0 0.0 0.0 0.0 0.0 0.0 0.0 0.0 0.0 0.0 0.0 0.0 0.0 0.0 0.0 0.0 0.0 0.0 0.0 0.0 0.0 0.0 0.0
0.0 0.1 0.0 0.0 0.0 0.0 0.0 0.0 0.0 0.0 0.3 3.1 2.1 0.1 0.0 0.0 0.0 0.0 0.0 0.0 0.0 0.0 0.0 0.0 0.0 0.0 0.0 0.0 0.0 0.0 0.0 0.0 0.0 0.0 0.0 0.0 0.0 0.0 0.0 0.0 0.0 0.0 0.0 0.0
0.0 0.0 1.7 0.0 0.0 0.0 0.0 0.0 0.0 0.7 0.5 0.5 1.0 1.3 0.0 0.0 0.0 0.0 0.0 0.0 0.0 0.0 0.0 0.0 0.0 0.0 0.0 0.0 0.0 0.0 0.0 0.0 0.0 0.0 0.0 0.0 0.0 0.0 0.0 0.0 0.0 0.0 0.0 0.0
0.0 0.5 4.8 1.1 0.0 0.0 0.0 0.0 0.0 0.0 0.5 3.2 5.7 1.2 0.0 0.0 0.0 0.0 0.0 0.0 0.0 0.0 0.0 0.0 0.0 0.0 0.0 0.0 0.0 0.0 0.0 0.0 0.0 0.0 0.0 0.0 0.0 0.0 0.0 0.0 0.0 0.0 0.0 0.0
nan 0.1 0.5 1.1 0.1 0.0 0.2 0.1 0.0 0.1 4.0 1.2 0.9 0.2 0.0 0.0 0.0 0.0 0.0 0.0 0.0 0.0 0.0 0.0 0.0 0.0 0.0 0.0 0.0 0.0 0.0 0.0 0.0 0.0 0.0 0.0 0.0 0.0 0.0 0.0 0.0 0.0 0.0 0.0
0.0 2.1 0.1 0.0 0.0 0.1 0.1 0.1 0.0 0.0 0.0 0.8 0.0 0.1 0.0 0.0 0.0 0.0 0.0 0.0 0.0 0.0 0.0 0.0 0.0 0.0 0.0 0.0 0.0 0.0 0.0 0.0 0.0 0.0 0.0 0.0 0.0 0.0 0.0 0.1 0.2 0.2 0.2 0.0
0.0 2.7 0.2 2.0 0.0 0.0 0.2 0.0 0.0 0.0 0.0 0.0 0.0 0.0 0.0 0.0 0.0 0.0 0.0 0.0 0.0 0.0 0.0 0.0 0.0 0.0 0.0 0.0 0.0 0.0 0.0 0.0 0.0 0.0 0.0 0.0 0.3 0.7 0.9 0.8 0.5 0.3 0.3 0.2
0.2 1.7 6.2 15.0 0.4 0.3 10.1 0.3 0.0 0.0 0.0 0.0 0.1 0.0 0.2 0.1 0.0 0.0 0.0 0.0 0.0 0.0 0.0 0.0 0.0 0.0 0.0 0.0 0.0 0.0 0.0 0.1 0.5 0.9 1.7 1.5 1.1 1.4 1.1 0.8 0.6 0.5 0.4 0.4
1.3 2.7 4.8 14.4 8.2 34.7 2.0 0.0 0.0 0.0 0.1 0.1 0.1 0.2 0.2 0.0 0.0 0.0 0.0 0.0 0.0 0.0 0.0 0.0 0.0 0.0 0.0 0.0 0.0 0.0 0.1 0.2 0.5 1.2 2.4 1.8 1.1 2.2 1.2 1.0 1.0 0.6 0.5 0.6
0.1 0.6 10.5 28.0 20.1 0.7 0.1 0.0 0.0 0.1 0.1 0.1 0.1 0.1 0.0 0.0 0.0 0.0 0.0 0.0 0.0 0.0 0.0 0.0 0.0 0.0 0.0 0.0 0.0 0.2 0.3 0.3 0.3 0.4 0.8 1.0 1.7 2.6 1.4 3.3 1.5 1.1 1.9 1.4
0.5 0.2 1.6 27.0 27.2 23.4 0.1 0.0 0.0 0.0 1.2 0.3 0.3 0.2 0.2 0.1 0.4 0.0 0.0 0.0 0.0 0.0 0.0 0.0 0.0 0.0 0.0 0.0 0.0 0.3 0.4 0.8 0.6 0.4 0.4 0.6 1.6 3.9 3.1 1.7 2.7 3.2 3.1 2.7
7.2 13.4 22.7 20.5 24.6 9.1 0.6 0.3 0.0 6.1 3.2 1.2 0.7 0.3 0.4 0.6 0.1 0.0 0.0 0.0 0.0 0.0 0.0 0.0 0.0 0.0 0.0 0.2 0.4 0.5 0.5 0.8 0.8 1.2 1.3 1.6 1.8 4.2 2.6 3.1 2.8 4.0 4.5 2.4
1.8 10.3 23.0 17.2 24.0 27.6 0.1 0.1 0.8 0.7 0.2 0.4 0.2 0.0 0.1 0.0 0.0 0.0 0.0 0.0 0.0 0.0 0.0 0.0 0.0 0.0 0.0 0.6 0.9 1.0 0.7 0.8 1.6 2.1 2.3 2.9 4.9 4.5 4.6 8.5 5.5 7.4 6.6 6.4
5.4 1.2 6.9 2.1 4.2 0.1 0.0 0.2 0.0 0.1 0.6 0.3 0.1 0.1 0.0 0.0 0.0 0.0 0.0 0.0 0.0 0.0 0.0 0.0 1.4 1.3 0.0 1.7 1.9 2.4 1.5 1.9 2.6 5.1 7.1 7.1 6.5 6.7 6.8 9.6 6.5 8.8 7.5 8.5
0.5 0.0 1.7 2.4 0.6 0.2 0.3 0.0 0.1 0.0 0.1 0.0 0.1 0.1 0.0 0.0 0.0 0.0 0.0 0.1 0.0 0.8 1.3 1.6 2.2 2.6 2.4 2.2 2.7 3.2 2.8 3.0 9.6 9.7 5.3 4.4 5.7 4.4 5.8 7.6 8.6 12.0 9.5 7.7
0.6 0.5 1.6 2.0 0.1 0.2 0.5 0.2 0.1 0.0 0.0 0.0 0.0 0.0 0.0 0.0 0.0 0.0 0.7 1.0 0.6 1.1 1.3 2.0 2.5 2.5 2.3 2.0 2.4 3.7 3.6 4.5 6.6 6.9 3.9 5.4 7.5 8.4 5.2 4.7 7.8 6.6 4.2 9.3
0.1 0.0 0.2 2.1 0.1 0.1 0.1 0.0 0.0 0.0 0.0 0.1 0.2 0.3 0.4 0.4 0.3 0.5 0.8 0.5 0.7 1.1 1.4 2.0 2.3 2.2 2.7 3.4 3.8 5.0 6.6 6.4 6.4 4.0 5.8 5.6 5.6 4.9 4.4 4.5 4.5 nan nan nan

GFSCGP_prec_sndepth_063.txt.gz
Snowfall_Accumulation
0.0 0.0 0.0 0.0 0.0 0.0 0.0 0.0 0.0 0.0 0.0 0.0 0.0 0.0 0.0 0.0 0.0 0.0 0.0 0.0 0.0 0.0 0.0 0.0 0.0 0.0 0.0 0.0 0.0 0.0 0.0 0.0 0.0 0.0 0.0 0.0 0.0 0.0 0.0 0.0 0.0 0.0 0.0 0.0
0.0 0.0 0.0 0.0 0.0 0.0 0.0 0.0 0.0 0.0 0.0 0.0 0.0 0.0 0.0 0.0 0.0 0.0 0.0 0.0 0.0 0.0 0.0 0.0 0.0 0.0 0.0 0.0 0.0 0.0 0.0 0.0 0.0 0.0 0.0 0.0 0.0 0.0 0.0 0.0 0.0 0.0 0.0 0.0
0.0 0.0 0.0 0.0 0.0 0.0 0.0 0.0 0.0 0.0 0.0 0.0 0.0 0.0 0.0 0.0 0.0 0.0 0.0 0.0 0.0 0.0 0.0 0.0 0.0 0.0 0.0 0.0 0.0 0.0 0.0 0.0 0.0 0.0 0.0 0.0 0.0 0.0 0.0 0.0 0.0 0.0 0.0 0.0
0.0 0.0 0.0 0.0 0.0 0.0 0.0 0.0 0.0 0.0 0.0 0.0 0.0 0.0 0.0 0.0 0.0 0.0 0.0 0.0 0.0 0.0 0.0 0.0 0.0 0.0 0.0 0.0 0.0 0.0 0.0 0.0 0.0 0.0 0.0 0.0 0.0 0.0 0.0 0.0 0.0 0.0 0.0 0.0
0.0 0.0 0.0 0.0 0.0 0.0 0.0 0.0 0.0 0.0 0.0 0.0 0.0 0.0 0.0 0.0 0.0 0.0 0.0 0.0 0.0 0.0 0.0 0.0 0.0 0.0 0.0 0.0 0.0 0.0 0.0 0.0 0.0 0.0 0.0 0.0 0.0 0.0 0.0 0.0 0.0 0.0 0.0 0.0
0.0 0.0 0.0 0.0 0.0 0.0 0.0 0.0 0.0 0.0 0.0 0.2 0.0 0.0 0.0 0.0 0.0 0.0 0.0 0.0 0.0 0.0 0.0 0.0 0.0 0.0 0.0 0.0 0.0 0.0 0.0 0.0 0.0 0.0 0.0 0.0 0.0 0.0 0.0 0.0 0.0 0.0 0.0 0.0
0.0 0.0 0.0 0.0 0.0 0.0 0.0 0.0 0.2 0.5 1.5 0.7 0.0 0.1 0.0 0.0 0.0 0.0 0.0 0.0 0.0 0.0 0.0 0.0 0.0 0.0 0.0 0.0 0.0 0.0 0.0 0.0 0.0 0.0 0.0 0.0 0.0 0.0 0.0 0.0 0.0 0.0 0.0 0.0
0.0 0.0 0.0 0.0 0.0 0.0 0.0 0.0 0.5 2.1 1.3 0.5 0.1 0.2 0.0 0.0 0.0 0.0 0.0 0.0 0.0 0.0 0.0 0.0 0.0 0.0 0.0 0.0 0.0 0.0 0.0 0.0 0.0 0.0 0.0 0.0 0.0 0.0 0.0 0.0 0.0 0.0 0.0 0.0
0.0 0.0 0.0 0.0 0.0 0.0 0.0 0.0 0.0 0.2 2.9 1.9 0.0 0.0 0.0 0.0 0.0 0.0 0.0 0.0 0.0 0.0 0.0 0.0 0.0 0.0 0.0 0.0 0.0 0.0 0.0 0.0 0.0 0.0 0.0 0.0 0.0 0.0 0.0 0.0 0.0 0.0 0.0 0.0
0.0 0.1 0.0 0.0 0.0 0.0 0.0 0.0 0.2 0.3 4.5 3.2 0.0 0.0 0.0 0.0 0.0 0.0 0.0 0.0 0.0 0.0 0.0 0.0 0.0 0.0 0.0 0.0 0.0 0.0 0.0 0.0 0.0 0.0 0.0 0.0 0.0 0.0 0.0 0.0 0.0 0.0 0.0 0.0
0.0 0.1 0.0 0.0 0.0 0.0 0.0 0.0 0.0 0.0 0.3 3.1 2.1 0.1 0.0 0.0 0.0 0.0 0.0 0.0 0.0 0.0 0.0 0.0 0.0 0.0 0.0 0.0 0.0 0.0 0.0 0.0 0.0 0.0 0.0 0.0 0.0 0.0 0.0 0.0 0.0 0.0 0.0 0.0
0.0 0.0 1.7 0.0 0.0 0.0 0.0 0.0 0.0 0.7 0.5 0.5 1.0 1.2 0.0 0.0 0.0 0.0 0.0 0.0 0.0 0.0 0.0 0.0 0.0 0.0 0.0 0.0 0.0 0.0 0.0 0.0 0.0 0.0 0.0 0.0 0.0 0.0 0.0 0.0 0.0 0.0 0.0 0.0
0.0 0.4 4.8 1.1 0.0 0.0 0.0 0.0 0.0 0.0 0.5 3.2 5.7 1.2 0.0 0.0 0.0 0.0 0.0 0.0 0.0 0.0 0.0 0.0 0.0 0.0 0.0 0.0 0.0 0.0 0.0 0.0 0.0 0.0 0.0 0.0 0.0 0.0 0.0 0.0 0.0 0.0 0.0 0.0
nan 0.1 0.4 1.0 0.1 0.0 0.2 0.1 0.0 0.1 3.9 1.2 0.9 0.2 0.0 0.0 0.0 0.0 0.0 0.0 0.0 0.0 0.0 0.0 0.0 0.0 0.0 0.0 0.0 0.0 0.0 0.0 0.0 0.0 0.0 0.0 0.0 0.0 0.0 0.0 0.0 0.0 0.0 0.0
0.0 2.4 0.1 0.0 0.0 0.1 0.1 0.1 0.0 0.0 0.0 0.7 0.0 0.0 0.0 0.0 0.0 0.0 0.0 0.0 0.0 0.0 0.0 0.0 0.0 0.0 0.0 0.0 0.0 0.0 0.0 0.0 0.0 0.0 0.0 0.0 0.0 0.0 0.0 0.1 0.2 0.2 0.2 0.0
0.0 2.6 0.2 1.8 0.0 0.0 0.2 0.0 0.0 0.0 0.0 0.0 0.0 0.0 0.0 0.0 0.0 0.0 0.0 0.0 0.0 0.0 0.0 0.0 0.0 0.0 0.0 0.0 0.0 0.0 0.0 0.0 0.0 0.0 0.0 0.0 0.2 0.6 0.8 0.7 0.5 0.3 0.3 0.2
0.1 1.5 5.9 15.1 0.4 0.3 10.2 0.3 0.0 0.0 0.0 0.0 0.1 0.0 0.2 0.1 0.0 0.0 0.0 0.0 0.0 0.0 0.0 0.0 0.0 0.0 0.0 0.0 0.0 0.0 0.0 0.0 0.4 0.8 1.7 1.5 1.1 1.4 1.0 0.7 0.6 0.4 0.4 0.4
1.8 3.1 4.7 13.9 8.1 34.9 2.0 0.0 0.0 0.0 0.1 0.1 0.1 0.1 0.1 0.0 0.0 0.0 0.0 0.0 0.0 0.0 0.0 0.0 0.0 0.0 0.0 0.0 0.0 0.0 0.1 0.2 0.5 1.2 2.3 1.8 1.1 2.2 1.1 0.9 0.9 0.6 0.5 0.6
0.1 0.8 12.4 30.4 21.4 0.7 0.1 0.0 0.0 0.1 0.1 0.1 0.1 0.1 0.0 0.0 0.0 0.0 0.0 0.0 0.0 0.0 0.0 0.0 0.0 0.0 0.0 0.0 0.0 0.1 0.3 0.2 0.3 0.4 0.8 1.0 1.7 2.6 1.3 3.2 1.4 1.0 1.8 1.4
0.4 0.1 1.7 27.4 28.2 24.6 0.2 0.0 0.0 0.0 1.2 0.2 0.2 0.1 0.1 0.1 0.4 0.0 0.0 0.0 0.0 0.0 0.0 0.0 0.0 0.0 0.0 0.0 0.0 0.3 0.4 0.8 0.6 0.4 0.4 0.6 1.6 3.9 3.1 1.6 2.6 3.1 3.1 2.7
7.2 13.8 23.8 21.9 25.9 9.7 0.6 0.3 0.0 6.1 3.2 1.2 0.7 0.3 0.4 0.5 0.1 0.0 0.0 0.0 0.0 0.0 0.0 0.0 0.0 0.0 0.0 0.1 0.4 0.5 0.5 0.8 0.7 1.2 1.3 1.6 1.7 4.2 2.5 3.1 2.7 4.1 4.8 3.1
2.2 10.5 22.9 17.2 24.9 29.3 0.1 0.1 0.8 0.7 0.2 0.4 0.2 0.0 0.1 0.0 0.0 0.0 0.0 0.0 0.0 0.0 0.0 0.0 0.0 0.0 0.0 0.6 0.9 1.0 0.7 0.8 1.6 2.0 2.3 2.9 4.8 4.4 4.5 8.4 5.6 7.6 7.0 7.0
5.4 1.2 7.0 2.2 4.7 0.1 0.0 0.2 0.1 0.1 0.5 0.3 0.1 0.1 0.0 0.0 0.0 0.0 0.0 0.0 0.0 0.0 0.0 0.0 1.4 1.3 0.0 1.7 1.9 2.4 1.5 1.9 2.6 5.1 7.1 7.1 6.5 6.7 6.8 9.7 6.7 9.2 7.8 8.7
0.5 0.0 1.8 2.4 0.6 0.2 0.3 0.0 0.1 0.0 0.1 0.0 0.1 0.1 0.0 0.0 0.0 0.0 0.0 0.1 0.0 0.8 1.3 1.6 2.2 2.6 2.4 2.2 2.7 3.2 2.8 3.0 9.5 9.6 5.3 4.3 5.7 4.5 5.9 7.7 8.6 12.0 9.6 7.8
0.7 0.6 2.2 2.9 0.2 0.2 0.4 0.2 0.1 0.0 0.0 0.0 0.0 0.0 0.0 0.0 0.0 0.0 0.7 1.0 0.6 1.1 1.3 2.0 2.5 2.5 2.3 2.0 2.4 3.7 3.6 4.5 6.6 6.9 3.9 5.4 7.6 8.5 5.3 4.9 7.9 6.6 4.3 9.3
0.5 0.2 0.5 2.3 0.1 0.1 0.1 0.0 0.0 0.0 0.0 0.1 0.2 0.3 0.4 0.4 0.3 0.5 0.8 0.5 0.7 1.1 1.4 2.0 2.3 2.2 2.7 3.4 3.8 5.0 6.6 6.3 6.4 4.0 5.8 5.6 5.6 4.9 4.4 4.5 4.5 nan nan nan

GFSCGP_prec_sndepth_066.txt.gz
Snowfall_Accumulation
0.0 0.0 0.0 0.0 0.0 0.0 0.0 0.0 0.0 0.0 0.0 0.0 0.0 0.0 0.0 0.0 0.0 0.0 0.0 0.0 0.0 0.0 0.0 0.0 0.0 0.0 0.0 0.0 0.0 0.0 0.0 0.0 0.0 0.0 0.0 0.0 0.0 0.0 0.0 0.0 0.0 0.0 0.0 0.0
0.0 0.0 0.0 0.0 0.0 0.0 0.0 0.0 0.0 0.0 0.0 0.0 0.0 0.0 0.0 0.0 0.0 0.0 0.0 0.0 0.0 0.0 0.0 0.0 0.0 0.0 0.0 0.0 0.0 0.0 0.0 0.0 0.0 0.0 0.0 0.0 0.0 0.0 0.0 0.0 0.0 0.0 0.0 0.0
0.0 0.0 0.0 0.0 0.0 0.0 0.0 0.0 0.0 0.0 0.0 0.0 0.0 0.0 0.0 0.0 0.0 0.0 0.0 0.0 0.0 0.0 0.0 0.0 0.0 0.0 0.0 0.0 0.0 0.0 0.0 0.0 0.0 0.0 0.0 0.0 0.0 0.0 0.0 0.0 0.0 0.0 0.0 0.0
0.0 0.0 0.0 0.0 0.0 0.0 0.0 0.0 0.0 0.0 0.0 0.0 0.0 0.0 0.0 0.0 0.0 0.0 0.0 0.0 0.0 0.0 0.0 0.0 0.0 0.0 0.0 0.0 0.0 0.0 0.0 0.0 0.0 0.0 0.0 0.0 0.0 0.0 0.0 0.0 0.0 0.0 0.0 0.0
0.0 0.0 0.0 0.0 0.0 0.0 0.0 0.0 0.0 0.0 0.0 0.0 0.0 0.0 0.0 0.0 0.0 0.0 0.0 0.0 0.0 0.0 0.0 0.0 0.0 0.0 0.0 0.0 0.0 0.0 0.0 0.0 0.0 0.0 0.0 0.0 0.0 0.0 0.0 0.0 0.0 0.0 0.0 0.0
0.0 0.0 0.0 0.0 0.0 0.0 0.0 0.0 0.0 0.0 0.0 0.2 0.0 0.0 0.0 0.0 0.0 0.0 0.0 0.0 0.0 0.0 0.0 0.0 0.0 0.0 0.0 0.0 0.0 0.0 0.0 0.0 0.0 0.0 0.0 0.0 0.0 0.0 0.0 0.0 0.0 0.0 0.0 0.0
0.0 0.0 0.0 0.0 0.0 0.0 0.0 0.0 0.2 0.4 1.4 0.6 0.0 0.1 0.0 0.0 0.0 0.0 0.0 0.0 0.0 0.0 0.0 0.0 0.0 0.0 0.0 0.0 0.0 0.0 0.0 0.0 0.0 0.0 0.0 0.0 0.0 0.0 0.0 0.0 0.0 0.0 0.0 0.0
0.0 0.0 0.0 0.0 0.0 0.0 0.0 0.0 0.4 1.9 1.2 0.4 0.1 0.2 0.0 0.0 0.0 0.0 0.0 0.0 0.0 0.0 0.0 0.0 0.0 0.0 0.0 0.0 0.0 0.0 0.0 0.0 0.0 0.0 0.0 0.0 0.0 0.0 0.0 0.0 0.0 0.0 0.0 0.0
0.0 0.0 0.0 0.0 0.0 0.0 0.0 0.0 0.0 0.2 2.9 1.7 0.0 0.0 0.0 0.0 0.0 0.0 0.0 0.0 0.0 0.0 0.0 0.0 0.0 0.0 0.0 0.0 0.0 0.0 0.0 0.0 0.0 0.0 0.0 0.0 0.0 0.0 0.0 0.0 0.0 0.0 0.0 0.0
0.0 0.0 0.0 0.0 0.0 0.0 0.0 0.0 0.2 0.2 4.3 3.1 0.0 0.0 0.0 0.0 0.0 0.0 0.0 0.0 0.0 0.0 0.0 0.0 0.0 0.0 0.0 0.0 0.0 0.0 0.0 0.0 0.0 0.0 0.0 0.0 0.0 0.0 0.0 0.0 0.0 0.0 0.0 0.0
0.0 0.1 0.0 0.0 0.0 0.0 0.0 0.0 0.0 0.0 0.3 2.8 1.9 0.1 0.0 0.0 0.0 0.0 0.0 0.0 0.0 0.0 0.0 0.0 0.0 0.0 0.0 0.0 0.0 0.0 0.0 0.0 0.0 0.0 0.0 0.0 0.0 0.0 0.0 0.0 0.0 0.0 0.0 0.0
0.0 0.0 1.5 0.0 0.0 0.0 0.0 0.0 0.0 0.6 0.5 0.5 0.9 1.1 0.0 0.0 0.0 0.0 0.0 0.0 0.0 0.0 0.0 0.0 0.0 0.0 0.0 0.0 0.0 0.0 0.0 0.0 0.0 0.0 0.0 0.0 0.0 0.0 0.0 0.0 0.0 0.0 0.0 0.0
0.0 0.5 4.6 1.0 0.0 0.0 0.0 0.0 0.0 0.0 0.4 2.8 5.1 1.0 0.0 0.0 0.0 0.0 0.0 0.0 0.0 0.0 0.0 0.0 0.0 0.0 0.0 0.0 0.0 0.0 0.0 0.0 0.0 0.0 0.0 0.0 0.0 0.0 0.0 0.0 0.0 0.0 0.0 0.0
nan 0.1 0.4 0.9 0.1 0.0 0.2 0.0 0.0 0.0 3.5 1.0 0.7 0.1 0.0 0.0 0.0 0.0 0.0 0.0 0.0 0.0 0.0 0.0 0.0 0.0 0.0 0.0 0.0 0.0 0.0 0.0 0.0 0.0 0.0 0.0 0.0 0.0 0.0 0.0 0.0 0.0 0.0 0.0
0.0 2.6 0.1 0.0 0.0 0.0 0.1 0.1 0.0 0.0 0.0 0.6 0.0 0.0 0.0 0.0 0.0 0.0 0.0 0.0 0.0 0.0 0.0 0.0 0.0 0.0 0.0 0.0 0.0 0.0 0.0 0.0 0.0 0.0 0.0 0.0 0.0 0.0 0.0 0.1 0.1 0.1 0.1 0.0
0.0 2.4 0.2 1.6 0.0 0.0 0.2 0.0 0.0 0.0 0.0 0.0 0.0 0.0 0.0 0.0 0.0 0.0 0.0 0.0 0.0 0.0 0.0 0.0 0.0 0.0 0.0 0.0 0.0 0.0 0.0 0.0 0.0 0.0 0.0 0.0 0.2 0.4 0.5 0.6 0.4 0.3 0.2 0.2
0.6 2.3 5.9 15.4 0.3 0.2 10.1 0.3 0.0 0.0 0.0 0.0 0.1 0.0 0.1 0.0 0.0 0.0 0.0 0.0 0.0 0.0 0.0 0.0 0.0 0.0 0.0 0.0 0.0 0.0 0.0 0.0 0.3 0.5 1.1 1.0 0.7 0.9 0.7 0.5 0.5 0.4 0.3 0.3
1.8 3.2 5.1 16.0 8.0 35.8 2.0 0.0 0.0 0.0 0.0 0.1 0.1 0.1 0.1 0.0 0.0 0.0 0.0 0.0 0.0 0.0 0.0 0.0 0.0 0.0 0.0 0.0 0.0 0.0 0.1 0.2 0.3 0.8 1.7 1.3 0.8 1.7 0.8 0.7 0.8 0.5 0.4 0.6
0.1 0.7 13.0 31.6 21.9 0.9 0.1 0.0 0.0 0.0 0.0 0.0 0.1 0.0 0.0 0.0 0.0 0.0 0.0 0.0 0.0 0.0 0.0 0.0 0.0 0.0 0.0 0.0 0.0 0.1 0.2 0.2 0.2 0.3 0.6 0.7 1.3 2.2 1.1 2.8 1.2 0.9 1.7 1.3
0.3 0.1 1.6 26.9 28.9 25.0 0.1 0.0 0.0 0.0 1.1 0.2 0.1 0.1 0.1 0.1 0.3 0.0 0.0 0.0 0.0 0.0 0.0 0.0 0.0 0.0 0.0 0.0 0.0 0.2 0.3 0.6 0.5 0.3 0.3 0.5 1.2 3.5 2.8 1.3 2.3 2.8 3.0 2.6
7.2 13.7 24.0 22.1 26.4 9.8 0.5 0.3 0.0 6.3 2.7 1.1 0.6 0.2 0.3 0.5 0.1 0.0 0.0 0.0 0.0 0.0 0.0 0.0 0.0 0.0 0.0 0.1 0.3 0.5 0.4 0.6 0.6 1.0 1.1 1.4 1.4 3.9 2.1 2.7 2.3 3.8 4.8 3.1
2.6 11.7 23.3 17.5 25.6 30.0 0.1 0.1 0.7 0.6 0.2 0.3 0.1 0.0 0.1 0.0 0.0 0.0 0.0 0.0 0.0 0.0 0.0 0.0 0.0 0.0 0.0 0.6 0.7 0.9 0.6 0.7 1.5 1.9 2.2 2.8 4.7 4.1 4.2 8.3 5.4 7.4 6.9 7.0
5.3 1.1 6.7 2.2 6.0 0.1 0.0 0.2 0.0 0.1 0.5 0.2 0.1 0.1 0.0 0.0 0.0 0.0 0.0 0.0 0.0 0.0 0.0 0.0 1.3 1.2 0.0 1.7 1.8 2.3 1.5 1.8 2.6 5.0 7.1 7.0 6.4 6.6 6.7 9.6 6.6 8.7 7.8 8.7
0.5 0.0 1.7 2.3 0.5 0.2 0.3 0.0 0.1 0.0 0.1 0.0 0.1 0.1 0.0 0.0 0.0 0.0 0.0 0.1 0.0 0.8 1.2 1.6 2.2 2.6 2.4 2.2 2.7 3.2 2.8 3.0 9.5 9.6 5.3 4.3 5.7 4.3 5.4 6.9 8.0 11.8 9.6 8.1
0.7 0.6 2.1 2.7 0.1 0.2 0.4 0.2 0.1 0.0 0.0 0.0 0.0 0.0 0.0 0.0 0.0 0.0 0.7 1.0 0.6 1.1 1.3 2.0 2.5 2.5 2.3 2.0 2.4 3.6 3.6 4.2 6.3 6.9 3.9 5.1 7.1 8.0 5.4 5.0 7.8 6.8 4.3 9.1
0.4 0.2 0.5 2.2 0.1 0.1 0.0 0.0 0.0 0.0 0.0 0.1 0.2 0.3 0.4 0.3 0.3 0.4 0.7 0.5 0.7 1.1 1.4 1.9 2.3 2.2 2.6 3.4 3.8 4.9 6.6 6.2 6.4 4.1 5.9 5.7 5.5 4.7 4.4 4.5 4.5 nan nan nan

GFSCGP_prec_sndepth_069.txt.gz
Snowfall_Accumulation
0.0 0.0 0.0 0.0 0.0 0.0 0.0 0.0 0.0 0.0 0.0 0.0 0.0 0.0 0.0 0.0 0.0 0.0 0.0 0.0 0.0 0.0 0.0 0.0 0.0 0.0 0.0 0.0 0.0 0.0 0.0 0.0 0.0 0.0 0.0 0.0 0.0 0.0 0.0 0.0 0.0 0.0 0.0 0.0
0.0 0.0 0.0 0.0 0.0 0.0 0.0 0.0 0.0 0.0 0.0 0.0 0.0 0.0 0.0 0.0 0.0 0.0 0.0 0.0 0.0 0.0 0.0 0.0 0.0 0.0 0.0 0.0 0.0 0.0 0.0 0.0 0.0 0.0 0.0 0.0 0.0 0.0 0.0 0.0 0.0 0.0 0.0 0.0
0.0 0.0 0.0 0.0 0.0 0.0 0.0 0.0 0.0 0.0 0.0 0.0 0.0 0.0 0.0 0.0 0.0 0.0 0.0 0.0 0.0 0.0 0.0 0.0 0.0 0.0 0.0 0.0 0.0 0.0 0.0 0.0 0.0 0.0 0.0 0.0 0.0 0.0 0.0 0.0 0.0 0.0 0.0 0.0
0.0 0.0 0.0 0.0 0.0 0.0 0.0 0.0 0.0 0.0 0.0 0.0 0.0 0.0 0.0 0.0 0.0 0.0 0.0 0.0 0.0 0.0 0.0 0.0 0.0 0.0 0.0 0.0 0.0 0.0 0.0 0.0 0.0 0.0 0.0 0.0 0.0 0.0 0.0 0.0 0.0 0.0 0.0 0.0
0.0 0.0 0.0 0.0 0.0 0.0 0.0 0.0 0.0 0.0 0.0 0.0 0.0 0.0 0.0 0.0 0.0 0.0 0.0 0.0 0.0 0.0 0.0 0.0 0.0 0.0 0.0 0.0 0.0 0.0 0.0 0.0 0.0 0.0 0.0 0.0 0.0 0.0 0.0 0.0 0.0 0.0 0.0 0.0
0.0 0.0 0.0 0.0 0.0 0.0 0.0 0.0 0.0 0.0 0.0 0.1 0.0 0.0 0.0 0.0 0.0 0.0 0.0 0.0 0.0 0.0 0.0 0.0 0.0 0.0 0.0 0.0 0.0 0.0 0.0 0.0 0.0 0.0 0.0 0.0 0.0 0.0 0.0 0.0 0.0 0.0 0.0 0.0
0.0 0.0 0.0 0.0 0.0 0.0 0.0 0.0 0.2 0.3 1.1 0.5 0.0 0.1 0.0 0.0 0.0 0.0 0.0 0.0 0.0 0.0 0.0 0.0 0.0 0.0 0.0 0.0 0.0 0.0 0.0 0.0 0.0 0.0 0.0 0.0 0.0 0.0 0.0 0.0 0.0 0.0 0.0 0.0
0.0 0.0 0.0 0.0 0.0 0.0 0.0 0.0 0.3 1.4 1.0 0.3 0.1 0.1 0.0 0.0 0.0 0.0 0.0 0.0 0.0 0.0 0.0 0.0 0.0 0.0 0.0 0.0 0.0 0.0 0.0 0.0 0.0 0.0 0.0 0.0 0.0 0.0 0.0 0.0 0.0 0.0 0.0 0.0
0.0 0.0 0.0 0.0 0.0 0.0 0.0 0.0 0.0 0.1 2.5 1.4 0.0 0.0 0.0 0.0 0.0 0.0 0.0 0.0 0.0 0.0 0.0 0.0 0.0 0.0 0.0 0.0 0.0 0.0 0.0 0.0 0.0 0.0 0.0 0.0 0.0 0.0 0.0 0.0 0.0 0.0 0.0 0.0
0.0 0.0 0.0 0.0 0.0 0.0 0.0 0.0 0.2 0.2 3.6 2.5 0.0 0.0 0.0 0.0 0.0 0.0 0.0 0.0 0.0 0.0 0.0 0.0 0.0 0.0 0.0 0.0 0.0 0.0 0.0 0.0 0.0 0.0 0.0 0.0 0.0 0.0 0.0 0.0 0.0 0.0 0.0 0.0
0.0 0.0 0.0 0.0 0.0 0.0 0.0 0.0 0.0 0.0 0.2 2.3 1.5 0.0 0.0 0.0 0.0 0.0 0.0 0.0 0.0 0.0 0.0 0.0 0.0 0.0 0.0 0.0 0.0 0.0 0.0 0.0 0.0 0.0 0.0 0.0 0.0 0.0 0.0 0.0 0.0 0.0 0.0 0.0
0.0 0.0 1.2 0.0 0.0 0.0 0.0 0.0 0.0 0.5 0.3 0.4 0.7 0.9 0.0 0.0 0.0 0.0 0.0 0.0 0.0 0.0 0.0 0.0 0.0 0.0 0.0 0.0 0.0 0.0 0.0 0.0 0.0 0.0 0.0 0.0 0.0 0.0 0.0 0.0 0.0 0.0 0.0 0.0
0.0 0.4 3.8 0.7 0.0 0.0 0.0 0.0 0.0 0.0 0.3 2.1 4.2 0.8 0.0 0.0 0.0 0.0 0.0 0.0 0.0 0.0 0.0 0.0 0.0 0.0 0.0 0.0 0.0 0.0 0.0 0.0 0.0 0.0 0.0 0.0 0.0 0.0 0.0 0.0 0.0 0.0 0.0 0.0
nan 0.1 0.3 0.8 0.0 0.0 0.1 0.0 0.0 0.0 3.0 0.7 0.5 0.1 0.0 0.0 0.0 0.0 0.0 0.0 0.0 0.0 0.0 0.0 0.0 0.0 0.0 0.0 0.0 0.0 0.0 0.0 0.0 0.0 0.0 0.0 0.0 0.0 0.0 0.0 0.0 0.0 0.0 0.0
0.0 2.5 0.0 0.0 0.0 0.0 0.1 0.1 0.0 0.0 0.0 0.5 0.0 0.0 0.0 0.0 0.0 0.0 0.0 0.0 0.0 0.0 0.0 0.0 0.0 0.0 0.0 0.0 0.0 0.0 0.0 0.0 0.0 0.0 0.0 0.0 0.0 0.0 0.0 0.1 0.1 0.1 0.1 0.0
0.0 2.7 0.1 1.4 0.0 0.0 0.1 0.0 0.0 0.0 0.0 0.0 0.0 0.0 0.0 0.0 0.0 0.0 0.0 0.0 0.0 0.0 0.0 0.0 0.0 0.0 0.0 0.0 0.0 0.0 0.0 0.0 0.0 0.0 0.0 0.0 0.1 0.2 0.3 0.3 0.3 0.2 0.2 0.2
0.8 3.0 5.7 15.5 0.2 0.2 10.0 0.2 0.0 0.0 0.0 0.0 0.1 0.0 0.0 0.0 0.0 0.0 0.0 0.0 0.0 0.0 0.0 0.0 0.0 0.0 0.0 0.0 0.0 0.0 0.0 0.0 0.2 0.3 0.6 0.6 0.4 0.6 0.5 0.4 0.3 0.3 0.3 0.3
1.5 3.1 5.2 16.8 7.6 36.4 1.8 0.0 0.0 0.0 0.0 0.0 0.0 0.0 0.0 0.0 0.0 0.0 0.0 0.0 0.0 0.0 0.0 0.0 0.0 0.0 0.0 0.0 0.0 0.0 0.0 0.1 0.2 0.5 1.0 0.8 0.5 1.2 0.6 0.5 0.6 0.4 0.3 0.5
0.0 0.6 13.0 31.7 21.7 0.8 0.1 0.0 0.0 0.0 0.0 0.0 0.0 0.0 0.0 0.0 0.0 0.0 0.0 0.0 0.0 0.0 0.0 0.0 0.0 0.0 0.0 0.0 0.0 0.1 0.2 0.1 0.2 0.2 0.4 0.5 0.8 1.6 0.8 2.3 0.9 0.7 1.5 1.2
0.2 0.1 1.5 26.2 28.8 24.8 0.1 0.0 0.0 0.0 1.0 0.1 0.1 0.0 0.0 0.0 0.3 0.0 0.0 0.0 0.0 0.0 0.0 0.0 0.0 0.0 0.0 0.0 0.0 0.2 0.3 0.4 0.4 0.2 0.2 0.4 0.9 2.8 2.2 0.9 1.8 2.3 2.6 2.6
6.4 13.2 24.5 22.5 26.7 9.7 0.4 0.2 0.0 5.9 2.0 0.7 0.4 0.1 0.2 0.4 0.0 0.0 0.0 0.0 0.0 0.0 0.0 0.0 0.0 0.0 0.0 0.1 0.3 0.3 0.3 0.5 0.5 0.8 0.8 1.1 1.1 3.2 1.6 2.1 1.7 3.2 4.7 3.0
2.3 11.5 23.1 17.6 25.8 30.6 0.1 0.0 0.6 0.5 0.2 0.3 0.1 0.0 0.1 0.0 0.0 0.0 0.0 0.0 0.0 0.0 0.0 0.0 0.0 0.0 0.0 0.4 0.6 0.7 0.5 0.6 1.2 1.7 1.9 2.4 4.0 3.4 3.4 7.5 5.0 7.0 6.9 6.9
5.2 0.9 5.9 1.9 5.5 0.1 0.0 0.1 0.0 0.0 0.3 0.2 0.1 0.0 0.0 0.0 0.0 0.0 0.0 0.0 0.0 0.0 0.0 0.0 1.1 1.1 0.0 1.6 1.6 2.0 1.3 1.6 2.5 5.0 7.0 7.0 5.9 6.2 6.1 9.1 6.5 8.2 7.7 8.7
0.3 0.0 1.4 2.0 0.3 0.1 0.2 0.0 0.1 0.0 0.1 0.0 0.0 0.1 0.0 0.0 0.0 0.0 0.0 0.0 0.0 0.7 1.2 1.5 2.1 2.6 2.4 2.2 2.7 3.2 2.8 3.0 9.4 9.5 5.2 4.3 5.7 4.0 4.9 6.0 7.1 10.7 9.2 8.1
0.6 0.4 1.7 2.4 0.1 0.1 0.2 0.1 0.0 0.0 0.0 0.0 0.0 0.0 0.0 0.0 0.0 0.0 0.6 0.9 0.5 1.0 1.3 1.9 2.5 2.4 2.3 2.0 2.4 3.6 3.5 4.1 6.0 6.8 3.8 4.4 6.2 6.9 4.8 4.7 7.0 6.7 4.4 9.1
0.3 0.2 0.4 1.9 0.1 0.0 0.0 0.0 0.0 0.0 0.0 0.1 0.1 0.2 0.3 0.3 0.2 0.4 0.7 0.5 0.7 1.1 1.4 1.9 2.3 2.2 2.6 3.3 3.7 4.9 6.5 6.0 6.4 4.1 6.0 5.8 5.6 4.6 4.3 4.5 4.6 nan nan nan